[[{"header":{"parameterUnit":"m.s-1","parameterCategory":1,"la1":31.0,"la2":29.5877,"lo1":-88.7671,"lo2":-86.6584,"dy":0.0162,"dx":0.0185,"nx":115,"ny":88,"refTime":"2024-07-07T06:00:00:Z","depth":0,"parameterNumber":2,"parameterNumberName":"U-component_of_WINDS"},"data":[0.0,0.0,0.0,0.0,0.0,0.0,0.0,0.0,0.0,0.0,0.0,0.0,0.0,0.0,0.0,0.0,0.0,0.0,0.0,0.0,0.0,0.0,0.0,0.0,0.0,0.0,0.0,0.0,0.0,0.0,0.0,0.0,0.0,0.0,0.0,0.0,0.0,0.0,0.0,0.0,0.0,0.0,0.0,0.0,0.0,0.0,0.0,0.0,0.0,0.0,0.0,0.0,0.0,0.0,0.0,0.0,0.0,0.0,0.0,0.0,0.0,0.0,0.0,0.0,0.0,0.0,0.0,0.0,0.0,0.0,0.0,0.0,0.0,0.0,0.0,0.0,0.0,0.0,0.0,0.0,0.0,0.0,0.0,0.0,0.0,0.0,0.0,0.0,0.0,0.0,0.0,0.0,0.0,0.0,0.0,0.0,0.0,0.0,0.0,0.0,0.0,0.0,0.0,0.0,0.0,0.0,0.0,0.0,0.0,0.0,0.0,0.0,0.0,0.0,0.0,0.0,0.0,0.0,0.0,0.0,0.0,0.0,0.0,0.0,0.0,0.0,0.0,0.0,0.0,0.0,0.0,0.0,0.0,0.0,0.0,0.0,0.0,0.0,0.0,0.0,0.0,0.0,0.0,0.0,0.0,0.0,0.0,0.0,0.0,0.0,0.0,0.0,0.0,0.0,0.0,0.0,0.0,0.0,0.0,0.0,0.0,0.0,0.0,0.0,0.0,0.0,0.0,0.0,0.0,0.0,0.0,0.0,0.0,0.0,0.0,0.0,0.0,0.0,0.0,0.0,0.0,0.0,0.0,0.0,0.0,0.0,0.0,0.0,0.0,0.0,0.0,0.0,0.0,0.0,0.0,0.0,0.0,0.0,0.0,0.0,0.0,0.0,0.0,0.0,0.0,0.0,0.0,0.0,0.0,0.0,0.0,0.0,0.0,0.0,0.0,0.0,0.0,0.0,0.0,0.0,0.0,0.0,0.0,0.0,0.0,0.0,0.0,0.0,0.0,0.0,0.0,0.0,0.0,0.0,0.0,0.0,0.0,0.0,0.0,0.0,0.0,0.0,0.0,0.0,0.0,0.0,0.0,0.0,0.0,0.0,0.0,0.0,0.0,0.0,0.0,0.0,0.0,0.0,0.0,0.0,0.0,0.0,0.0,0.0,0.0,0.0,0.0,0.0,0.0,0.0,0.0,0.0,0.0,0.0,0.0,0.0,0.0,0.0,0.0,0.0,0.0,0.0,0.0,0.0,0.0,0.0,0.0,0.0,0.0,0.0,0.0,0.0,0.0,0.0,0.0,0.0,0.0,0.0,0.0,0.0,0.0,0.0,0.0,0.0,0.0,0.0,0.0,0.0,0.0,0.0,0.0,0.0,0.0,0.0,0.0,0.0,0.0,0.0,0.0,0.0,0.0,0.0,0.0,0.0,0.0,0.0,0.0,0.0,0.0,0.0,0.0,0.0,0.0,0.0,0.0,0.0,0.0,0.0,0.0,0.0,0.0,0.0,0.0,0.0,0.0,0.0,0.0,0.0,0.0,0.0,0.0,0.0,0.0,0.0,0.0,0.0,0.0,0.0,0.0,0.0,0.0,0.0,0.0,0.0,0.0,0.0,0.0,0.0,0.0,0.0,0.0,0.0,0.0,0.0,0.0,0.0,0.0,0.0,0.0,0.0,0.0,0.0,0.0,0.0,0.0,0.0,0.0,0.0,0.0,0.0,0.0,0.0,0.0,0.0,0.0,0.0,0.0,0.0,0.0,0.0,0.0,0.0,0.0,0.0,0.0,0.0,0.0,0.0,0.0,0.0,0.0,0.0,0.0,0.0,0.0,0.0,0.0,0.0,0.0,0.0,0.0,0.0,0.0,0.0,0.0,0.0,0.0,0.0,0.0,0.0,0.0,0.0,0.0,0.0,0.0,0.0,0.0,0.0,0.0,0.0,0.0,0.0,0.0,0.0,0.0,0.0,0.0,0.0,0.0,0.0,0.0,0.0,0.0,0.0,0.0,0.0,0.0,0.0,0.0,0.0,0.0,0.0,0.0,0.0,0.0,0.0,0.0,0.0,0.0,0.0,0.0,0.0,0.0,0.0,0.0,0.0,0.0,0.0,0.0,0.0,0.0,0.0,0.0,0.0,0.0,0.0,0.0,0.0,0.0,0.0,0.0,0.0,0.0,0.0,0.0,0.0,0.0,0.0,0.0,0.0,0.0,0.0,0.0,0.0,0.0,0.0,0.0,0.0,0.0,0.0,0.0,0.0,0.0,0.0,0.0,0.0,0.0,0.0,0.0,0.0,0.0,0.0,0.0,0.0,0.0,0.0,0.0,0.0,0.0,0.0,0.0,0.0,0.0,0.0,0.0,0.0,0.0,0.0,0.0,0.0,0.0,0.0,0.0,0.0,0.0,0.0,0.0,0.0,0.0,0.0,0.0,0.0,0.0,0.0,0.0,0.0,0.0,0.0,0.0,0.0,0.0,0.0,0.0,0.0,0.0,0.0,0.0,0.0,0.0,0.0,0.0,0.0,0.0,0.0,0.0,0.0,0.0,0.0,0.0,0.0,0.0,0.0,0.0,0.0,0.0,0.0,0.0,0.0,0.0,0.0,0.0,0.0,0.0,0.0,0.0,0.0,0.0,0.0,0.0,0.0,0.0,0.0,0.0,0.0,0.0,0.0,0.0,0.0,0.0,0.0,0.0,0.0,0.0,0.0,0.0,0.0,0.0,0.0,0.0,0.0,0.0,0.0,0.0,0.0,0.0,0.0,0.0,0.0,0.0,0.0,0.0,0.0,0.0,0.0,0.0,0.0,0.0,0.0,0.0,0.0,0.0,0.0,0.0,0.0,0.0,0.0,0.0,0.0,0.0,0.0,0.0,0.0,0.0,0.0,0.0,0.0,0.0,0.0,0.0,0.0,0.0,0.0,0.0,0.0,0.0,0.0,0.0,0.0,0.0,0.0,0.0,0.0,0.0,0.0,0.0,0.0,0.0,0.0,0.0,0.0,0.0,0.0,0.0,0.0,0.0,0.0,0.0,0.0,0.0,0.0,0.0,0.0,0.0,0.0,0.0,0.0,0.0,0.0,0.0,0.0,0.0,0.0,0.0,0.0,0.0,0.0,0.0,0.0,0.0,0.0,0.0,0.0,0.0,0.0,0.0,0.0,0.0,0.0,0.0,0.0,0.0,0.0,0.0,0.0,0.0,0.0,0.0,0.0,0.0,0.0,0.0,0.0,0.0,0.0,0.0,0.0,0.0,0.0,0.0,0.0,0.0,0.0,0.0,0.0,0.0,0.0,0.0,0.0,0.0,0.0,0.0,0.0,0.0,0.0,0.0,0.0,0.0,0.0,0.0,0.0,0.0,0.0,0.0,0.0,0.0,0.0,0.0,0.0,0.0,0.0,0.0,0.0,0.0,0.0,0.0,0.0,0.0,0.0,0.0,0.0,0.0,0.0,0.0,0.0,0.0,0.0,0.0,0.0,0.0,0.0,0.0,0.0,0.0,0.0,0.0,0.0,0.0,0.0,0.0,0.0,0.0,0.0,0.0,0.0,0.0,0.0,0.0,0.0,0.0,0.0,0.0,0.0,0.0,0.0,0.0,0.0,0.0,0.0,0.0,0.0,0.0,0.0,0.0,0.0,0.0,0.0,0.0,0.0,0.0,0.0,0.0,0.0,0.0,0.0,0.0,0.0,0.0,0.0,0.0,0.0,0.0,0.0,0.0,0.0,0.0,0.0,0.0,0.0,0.0,0.0,0.0,0.0,0.0,0.0,0.0,0.0,0.0,0.0,0.0,0.0,0.0,0.0,0.0,0.0,0.0,0.0,0.0,0.0,0.0,0.0,0.0,0.0,0.0,0.0,0.0,0.0,0.0,0.0,0.0,0.0,0.0,0.0,0.0,0.0,0.0,0.0,0.0,0.0,0.0,0.0,0.0,0.0,0.0,0.0,0.0,0.0,0.0,0.0,0.0,0.0,0.0,0.0,0.0,0.0,0.0,0.0,0.0,0.0,0.0,0.0,0.0,0.0,0.0,0.0,0.0,0.0,0.0,0.0,0.0,0.0,0.0,0.0,0.0,0.0,0.0,0.0,0.0,0.0,0.0,0.0,0.0,0.0,0.0,0.0,0.0,0.0,0.0,0.0,0.0,0.0,0.0,0.0,0.0,0.0,0.0,0.0,0.0,0.0,0.0,0.0,0.0,0.0,0.0,0.0,0.0,0.0,0.0,0.0,0.0,0.0,0.0,0.0,0.0,0.0,0.0,0.0,-2.7486,0.0,0.0,0.0,0.0,0.0,0.0,0.0,0.0,0.0,0.0,0.0,0.0,0.0,0.0,0.0,0.0,0.0,0.0,0.0,0.0,0.0,0.0,0.0,0.0,0.0,0.0,0.0,0.0,0.0,0.0,0.0,0.0,0.0,0.0,0.0,0.0,0.0,0.0,0.0,0.0,0.0,0.0,0.0,0.0,0.0,0.0,0.0,0.0,0.0,0.0,0.0,0.0,0.0,0.0,0.0,0.0,0.0,0.0,0.0,0.0,0.0,0.0,0.0,0.0,0.0,0.0,0.0,0.0,0.0,0.0,0.0,0.0,0.0,0.0,0.0,0.0,0.0,0.0,0.0,0.0,0.0,0.0,0.0,0.0,0.0,0.0,0.0,0.0,0.0,0.0,0.0,0.0,0.0,0.0,0.0,0.0,0.0,0.0,0.0,0.0,0.0,0.0,0.0,0.0,0.0,0.0,0.0,0.0,0.0,0.0,-3.1975,-3.2021,-3.1541,-3.0368,-2.8503,0.0,0.0,0.0,0.0,0.0,0.0,0.0,0.0,0.0,0.0,0.0,0.0,0.0,0.0,0.0,0.0,0.0,0.0,0.0,0.0,0.0,0.0,0.0,0.0,0.0,0.0,0.0,0.0,0.0,0.0,0.0,0.0,0.0,0.0,0.0,0.0,0.0,0.0,0.0,0.0,0.0,0.0,0.0,0.0,0.0,0.0,0.0,0.0,0.0,0.0,0.0,0.0,0.0,0.0,0.0,0.0,0.0,0.0,0.0,0.0,0.0,0.0,0.0,0.0,0.0,0.0,0.0,0.0,0.0,0.0,0.0,0.0,0.0,0.0,0.0,0.0,0.0,0.0,0.0,0.0,0.0,0.0,0.0,0.0,0.0,0.0,0.0,0.0,0.0,0.0,0.0,0.0,0.0,0.0,0.0,0.0,0.0,0.0,0.0,0.0,0.0,0.0,0.0,0.0,0.0,0.0,0.0,0.0,0.0,0.0,0.0,0.0,-3.297,-3.1578,-2.9126,0.0,0.0,0.0,0.0,0.0,0.0,0.0,0.0,0.0,0.0,0.0,0.0,0.0,0.0,0.0,0.0,0.0,0.0,0.0,0.0,0.0,0.0,0.0,0.0,0.0,0.0,0.0,0.0,0.0,0.0,0.0,0.0,0.0,0.0,0.0,0.0,0.0,0.0,0.0,0.0,0.0,0.0,0.0,0.0,0.0,0.0,0.0,0.0,0.0,0.0,0.0,0.0,0.0,0.0,0.0,0.0,0.0,0.0,0.0,0.0,0.0,0.0,0.0,0.0,0.0,0.0,0.0,0.0,0.0,0.0,0.0,0.0,0.0,0.0,0.0,0.0,0.0,0.0,0.0,0.0,0.0,0.0,0.0,0.0,0.0,0.0,0.0,0.0,0.0,0.0,0.0,0.0,0.0,0.0,0.0,0.0,0.0,0.0,0.0,0.0,0.0,0.0,0.0,0.0,0.0,0.0,0.0,0.0,0.0,0.0,-3.5079,-3.702,-3.6052,0.0,-2.9579,0.0,0.0,0.0,0.0,0.0,0.0,0.0,0.0,0.0,0.0,0.0,0.0,0.0,0.0,0.0,0.0,0.0,0.0,0.0,0.0,0.0,0.0,0.0,0.0,0.0,0.0,0.0,0.0,0.0,0.0,0.0,0.0,0.0,0.0,0.0,0.0,0.0,0.0,0.0,0.0,0.0,0.0,0.0,0.0,0.0,0.0,0.0,0.0,0.0,0.0,0.0,0.0,0.0,0.0,0.0,0.0,0.0,0.0,0.0,0.0,0.0,0.0,0.0,0.0,0.0,0.0,0.0,0.0,0.0,0.0,0.0,0.0,0.0,0.0,0.0,0.0,0.0,0.0,0.0,0.0,0.0,0.0,0.0,0.0,0.0,0.0,0.0,0.0,0.0,0.0,0.0,0.0,0.0,0.0,0.0,0.0,0.0,0.0,0.0,0.0,0.0,0.0,0.0,0.0,0.0,0.0,0.0,0.0,0.0,0.0,-3.6389,-3.7581,-3.5905,-3.3215,0.0,0.0,0.0,0.0,0.0,0.0,0.0,0.0,0.0,0.0,0.0,0.0,0.0,0.0,0.0,0.0,0.0,0.0,0.0,0.0,0.0,0.0,0.0,0.0,0.0,0.0,0.0,0.0,0.0,0.0,0.0,0.0,0.0,0.0,0.0,0.0,0.0,0.0,0.0,0.0,0.0,0.0,0.0,0.0,0.0,0.0,0.0,0.0,0.0,0.0,0.0,0.0,0.0,0.0,0.0,0.0,0.0,0.0,0.0,0.0,0.0,0.0,0.0,0.0,0.0,0.0,0.0,0.0,0.0,0.0,0.0,0.0,0.0,0.0,0.0,0.0,0.0,0.0,0.0,0.0,0.0,0.0,0.0,0.0,0.0,0.0,0.0,0.0,0.0,0.0,0.0,0.0,0.0,0.0,0.0,0.0,0.0,0.0,0.0,0.0,0.0,0.0,0.0,0.0,0.0,0.0,0.0,0.0,0.0,0.0,-3.6765,-3.7566,-3.8033,-3.6624,-3.3864,-2.978,0.0,0.0,0.0,0.0,0.0,0.0,0.0,0.0,0.0,0.0,0.0,0.0,0.0,0.0,0.0,0.0,0.0,0.0,0.0,0.0,0.0,0.0,0.0,0.0,0.0,0.0,0.0,0.0,0.0,0.0,0.0,0.0,0.0,0.0,0.0,0.0,0.0,0.0,0.0,0.0,0.0,0.0,0.0,0.0,0.0,0.0,0.0,0.0,0.0,0.0,0.0,0.0,0.0,0.0,0.0,0.0,0.0,0.0,0.0,0.0,0.0,0.0,0.0,0.0,0.0,0.0,0.0,0.0,0.0,0.0,0.0,0.0,0.0,0.0,0.0,0.0,0.0,0.0,0.0,0.0,0.0,0.0,0.0,0.0,0.0,0.0,0.0,0.0,0.0,0.0,0.0,0.0,0.0,0.0,0.0,0.0,0.0,0.0,0.0,0.0,0.0,0.0,0.0,0.0,0.0,0.0,0.0,0.0,-3.9061,-3.8603,-3.8659,-3.9498,-3.934,-3.6489,0.0,0.0,0.0,0.0,0.0,0.0,0.0,0.0,0.0,0.0,0.0,0.0,0.0,0.0,0.0,0.0,0.0,0.0,0.0,0.0,0.0,0.0,0.0,0.0,0.0,0.0,0.0,0.0,0.0,0.0,0.0,0.0,0.0,0.0,0.0,0.0,0.0,0.0,0.0,0.0,0.0,0.0,0.0,0.0,0.0,0.0,0.0,0.0,0.0,0.0,0.0,0.0,0.0,0.0,0.0,0.0,0.0,0.0,0.0,0.0,0.0,0.0,0.0,0.0,0.0,0.0,0.0,0.0,0.0,0.0,0.0,0.0,0.0,0.0,0.0,0.0,0.0,0.0,0.0,0.0,0.0,0.0,0.0,0.0,0.0,0.0,0.0,0.0,0.0,0.0,0.0,0.0,0.0,0.0,0.0,0.0,0.0,0.0,0.0,0.0,0.0,0.0,0.0,0.0,0.0,0.0,0.0,0.0,0.0,-3.7138,-3.838,-3.9961,-4.1786,-3.8943,-3.5615,0.0,0.0,0.0,0.0,0.0,0.0,0.0,0.0,0.0,0.0,0.0,0.0,0.0,0.0,0.0,0.0,0.0,0.0,0.0,0.0,0.0,0.0,0.0,0.0,0.0,0.0,0.0,0.0,0.0,0.0,0.0,0.0,0.0,0.0,0.0,0.0,0.0,0.0,0.0,0.0,0.0,0.0,0.0,0.0,0.0,0.0,0.0,0.0,0.0,0.0,0.0,0.0,0.0,0.0,0.0,0.0,0.0,0.0,0.0,0.0,0.0,0.0,0.0,0.0,0.0,0.0,0.0,0.0,0.0,0.0,0.0,0.0,0.0,0.0,0.0,0.0,0.0,0.0,0.0,0.0,0.0,0.0,0.0,0.0,0.0,0.0,0.0,0.0,0.0,0.0,0.0,0.0,0.0,0.0,0.0,0.0,0.0,0.0,0.0,0.0,0.0,0.0,0.0,0.0,0.0,0.0,0.0,0.0,0.0,-3.7442,0.0,-4.1215,-4.2052,-3.871,-3.5219,0.0,0.0,0.0,0.0,0.0,0.0,0.0,0.0,0.0,0.0,0.0,0.0,0.0,0.0,0.0,0.0,0.0,0.0,0.0,0.0,0.0,0.0,0.0,0.0,0.0,0.0,0.0,0.0,0.0,0.0,0.0,0.0,0.0,0.0,0.0,0.0,0.0,0.0,0.0,0.0,0.0,0.0,0.0,0.0,0.0,0.0,0.0,0.0,0.0,0.0,0.0,0.0,0.0,0.0,0.0,0.0,0.0,0.0,0.0,0.0,0.0,0.0,0.0,0.0,0.0,0.0,0.0,0.0,0.0,0.0,0.0,0.0,0.0,0.0,0.0,0.0,0.0,0.0,0.0,0.0,0.0,0.0,0.0,0.0,0.0,0.0,0.0,0.0,0.0,0.0,0.0,0.0,0.0,0.0,0.0,0.0,0.0,0.0,0.0,0.0,0.0,0.0,0.0,0.0,0.0,0.0,0.0,0.0,-3.6579,-4.0555,-4.2369,-4.227,-4.0244,-3.8993,-3.5633,0.0,0.0,0.0,0.0,0.0,0.0,0.0,0.0,0.0,0.0,0.0,0.0,0.0,0.0,0.0,0.0,0.0,0.0,0.0,0.0,0.0,0.0,0.0,0.0,0.0,0.0,0.0,0.0,0.0,0.0,0.0,0.0,0.0,0.0,0.0,0.0,0.0,0.0,0.0,0.0,0.0,0.0,0.0,0.0,0.0,0.0,0.0,0.0,0.0,0.0,0.0,0.0,0.0,0.0,0.0,0.0,0.0,0.0,0.0,0.0,0.0,0.0,0.0,0.0,0.0,0.0,0.0,0.0,0.0,0.0,0.0,0.0,0.0,0.0,0.0,0.0,0.0,0.0,0.0,0.0,0.0,0.0,0.0,0.0,0.0,0.0,0.0,0.0,0.0,0.0,0.0,0.0,0.0,0.0,0.0,0.0,0.0,0.0,0.0,0.0,0.0,0.0,0.0,0.0,0.0,0.0,0.0,0.0,0.0,-3.9894,-4.1514,-4.2476,-4.2534,-3.9347,-3.6265,0.0,0.0,0.0,0.0,0.0,0.0,0.0,0.0,0.0,0.0,0.0,0.0,0.0,0.0,0.0,0.0,0.0,0.0,0.0,0.0,0.0,0.0,0.0,0.0,0.0,0.0,0.0,0.0,0.0,0.0,0.0,0.0,0.0,0.0,0.0,0.0,0.0,0.0,0.0,0.0,0.0,0.0,0.0,0.0,0.0,0.0,0.0,0.0,0.0,0.0,0.0,0.0,0.0,0.0,0.0,0.0,0.0,0.0,0.0,0.0,0.0,0.0,0.0,0.0,0.0,0.0,0.0,0.0,0.0,0.0,0.0,0.0,0.0,0.0,0.0,0.0,0.0,0.0,0.0,0.0,0.0,0.0,0.0,0.0,0.0,0.0,0.0,0.0,0.0,0.0,0.0,0.0,0.0,0.0,0.0,0.0,0.0,0.0,0.0,0.0,0.0,0.0,0.0,0.0,0.0,0.0,0.0,0.0,0.0,-4.103,-4.2538,-4.3404,-4.3541,-4.0027,-3.7201,-3.5231,0.0,0.0,0.0,0.0,0.0,0.0,0.0,0.0,0.0,0.0,0.0,0.0,0.0,0.0,0.0,0.0,0.0,0.0,0.0,0.0,0.0,0.0,0.0,0.0,0.0,0.0,0.0,0.0,0.0,0.0,0.0,0.0,0.0,0.0,0.0,0.0,0.0,0.0,0.0,0.0,0.0,0.0,0.0,0.0,0.0,0.0,0.0,0.0,0.0,0.0,0.0,0.0,0.0,0.0,0.0,0.0,0.0,0.0,0.0,0.0,0.0,0.0,0.0,0.0,0.0,0.0,0.0,0.0,0.0,0.0,0.0,0.0,0.0,0.0,0.0,0.0,0.0,0.0,0.0,0.0,0.0,0.0,0.0,0.0,0.0,0.0,0.0,0.0,0.0,0.0,0.0,0.0,0.0,0.0,0.0,0.0,0.0,0.0,0.0,0.0,0.0,0.0,0.0,0.0,0.0,0.0,0.0,0.0,-4.3391,-4.4973,-4.4938,-4.3291,-4.0974,-3.8437,0.0,0.0,0.0,0.0,0.0,0.0,0.0,0.0,0.0,0.0,0.0,0.0,0.0,0.0,0.0,0.0,0.0,0.0,0.0,0.0,0.0,0.0,0.0,0.0,0.0,0.0,0.0,0.0,0.0,0.0,0.0,0.0,0.0,0.0,0.0,0.0,0.0,0.0,0.0,0.0,0.0,0.0,0.0,0.0,0.0,0.0,0.0,0.0,0.0,0.0,0.0,0.0,0.0,0.0,0.0,0.0,0.0,0.0,0.0,0.0,0.0,0.0,0.0,0.0,0.0,0.0,0.0,0.0,0.0,0.0,0.0,0.0,0.0,0.0,0.0,0.0,0.0,0.0,0.0,0.0,0.0,0.0,0.0,0.0,0.0,0.0,0.0,0.0,0.0,0.0,0.0,0.0,0.0,0.0,0.0,0.0,0.0,0.0,0.0,0.0,0.0,0.0,0.0,0.0,0.0,0.0,0.0,0.0,0.0,-4.3421,-4.4898,-4.5299,-4.4544,-4.199,-3.9552,0.0,0.0,0.0,0.0,0.0,0.0,0.0,0.0,0.0,0.0,0.0,0.0,0.0,0.0,0.0,0.0,0.0,0.0,0.0,0.0,0.0,0.0,0.0,0.0,0.0,0.0,0.0,0.0,0.0,0.0,0.0,0.0,0.0,0.0,0.0,0.0,0.0,0.0,0.0,0.0,0.0,0.0,0.0,0.0,0.0,0.0,0.0,0.0,0.0,0.0,0.0,0.0,0.0,0.0,0.0,0.0,0.0,0.0,0.0,0.0,0.0,0.0,0.0,0.0,0.0,0.0,0.0,0.0,0.0,0.0,0.0,0.0,0.0,0.0,0.0,0.0,0.0,0.0,0.0,0.0,0.0,0.0,0.0,0.0,0.0,0.0,0.0,0.0,0.0,0.0,0.0,0.0,0.0,0.0,0.0,0.0,0.0,0.0,0.0,0.0,0.0,0.0,0.0,0.0,0.0,0.0,0.0,0.0,-4.3251,-4.4407,-4.5204,-4.5362,-4.4889,-4.2953,-4.1004,0.0,0.0,0.0,0.0,0.0,0.0,0.0,0.0,0.0,0.0,0.0,0.0,0.0,0.0,0.0,0.0,0.0,0.0,0.0,0.0,0.0,0.0,0.0,0.0,0.0,0.0,0.0,0.0,0.0,0.0,0.0,0.0,0.0,0.0,0.0,0.0,0.0,0.0,0.0,0.0,0.0,0.0,0.0,0.0,0.0,0.0,0.0,0.0,0.0,0.0,0.0,0.0,0.0,0.0,0.0,0.0,0.0,0.0,0.0,0.0,0.0,0.0,0.0,0.0,0.0,0.0,0.0,0.0,0.0,0.0,0.0,0.0,0.0,0.0,0.0,0.0,0.0,0.0,0.0,0.0,0.0,0.0,0.0,0.0,0.0,0.0,0.0,0.0,0.0,0.0,0.0,0.0,0.0,0.0,0.0,0.0,0.0,0.0,0.0,0.0,0.0,0.0,0.0,0.0,0.0,0.0,0.0,0.0,-4.4251,-4.5719,-4.5614,-4.5243,-4.4612,-4.3756,-4.2365,0.0,0.0,0.0,0.0,0.0,0.0,0.0,0.0,0.0,0.0,0.0,0.0,0.0,0.0,0.0,0.0,0.0,0.0,0.0,0.0,0.0,0.0,0.0,0.0,0.0,0.0,0.0,0.0,0.0,0.0,0.0,0.0,0.0,0.0,0.0,0.0,0.0,0.0,0.0,0.0,0.0,0.0,0.0,0.0,0.0,0.0,0.0,0.0,0.0,0.0,0.0,0.0,0.0,0.0,0.0,0.0,0.0,0.0,0.0,0.0,0.0,0.0,0.0,0.0,0.0,0.0,0.0,0.0,0.0,0.0,0.0,0.0,0.0,0.0,0.0,0.0,0.0,0.0,0.0,0.0,0.0,0.0,0.0,0.0,0.0,0.0,0.0,0.0,0.0,0.0,0.0,0.0,0.0,0.0,0.0,0.0,0.0,0.0,0.0,0.0,0.0,0.0,0.0,0.0,0.0,0.0,0.0,0.0,-4.4587,-4.4952,-4.5117,-4.503,-4.4606,-4.3756,-4.2283,0.0,0.0,0.0,0.0,0.0,0.0,0.0,0.0,0.0,0.0,0.0,0.0,0.0,0.0,0.0,0.0,0.0,0.0,0.0,0.0,0.0,0.0,0.0,0.0,0.0,0.0,0.0,0.0,0.0,0.0,0.0,0.0,0.0,0.0,0.0,0.0,0.0,0.0,0.0,0.0,0.0,0.0,0.0,0.0,0.0,0.0,0.0,0.0,-3.6373,0.0,0.0,0.0,0.0,0.0,0.0,0.0,0.0,0.0,0.0,0.0,0.0,0.0,0.0,0.0,0.0,0.0,0.0,0.0,0.0,0.0,0.0,0.0,0.0,0.0,0.0,0.0,0.0,0.0,0.0,0.0,0.0,0.0,0.0,0.0,0.0,0.0,0.0,0.0,0.0,0.0,0.0,0.0,0.0,0.0,0.0,0.0,0.0,0.0,0.0,0.0,0.0,0.0,0.0,0.0,0.0,0.0,0.0,0.0,-4.487,-4.5212,-4.5129,-4.4931,-4.4587,-4.3963,-4.2626,0.0,0.0,0.0,0.0,0.0,0.0,0.0,0.0,0.0,0.0,0.0,0.0,0.0,0.0,0.0,0.0,0.0,0.0,0.0,0.0,0.0,0.0,0.0,0.0,0.0,0.0,0.0,0.0,0.0,0.0,0.0,0.0,0.0,0.0,0.0,0.0,0.0,0.0,0.0,0.0,0.0,0.0,0.0,0.0,0.0,0.0,0.0,0.0,0.0,0.0,0.0,0.0,0.0,0.0,0.0,0.0,0.0,0.0,0.0,0.0,0.0,0.0,0.0,0.0,0.0,0.0,0.0,0.0,0.0,0.0,0.0,0.0,0.0,0.0,0.0,0.0,0.0,0.0,0.0,0.0,0.0,0.0,0.0,0.0,0.0,0.0,0.0,0.0,0.0,0.0,0.0,0.0,0.0,0.0,0.0,0.0,0.0,0.0,0.0,0.0,0.0,0.0,0.0,0.0,0.0,0.0,0.0,-4.4238,-4.5034,-4.5738,-4.5304,-4.4884,-4.4593,-4.4165,-4.2998,-4.1031,0.0,0.0,0.0,0.0,0.0,0.0,0.0,0.0,0.0,0.0,0.0,0.0,0.0,0.0,0.0,0.0,0.0,0.0,0.0,0.0,0.0,0.0,0.0,0.0,0.0,0.0,0.0,0.0,0.0,0.0,0.0,0.0,0.0,0.0,0.0,0.0,0.0,0.0,-3.5573,-3.9048,0.0,0.0,0.0,0.0,0.0,0.0,0.0,0.0,-3.9622,0.0,0.0,0.0,0.0,0.0,0.0,0.0,0.0,0.0,0.0,0.0,0.0,0.0,0.0,0.0,0.0,0.0,0.0,0.0,0.0,0.0,0.0,0.0,0.0,0.0,0.0,0.0,0.0,0.0,0.0,0.0,0.0,0.0,0.0,0.0,0.0,0.0,0.0,0.0,0.0,0.0,0.0,0.0,0.0,0.0,0.0,0.0,0.0,0.0,0.0,0.0,0.0,0.0,0.0,0.0,0.0,-4.4215,-4.4459,-4.4956,-4.5757,-4.5076,-4.4663,-4.4599,-4.3946,-4.2586,-4.0491,0.0,0.0,0.0,0.0,0.0,0.0,0.0,0.0,0.0,0.0,0.0,0.0,0.0,0.0,0.0,0.0,0.0,0.0,0.0,0.0,0.0,0.0,0.0,0.0,0.0,0.0,0.0,0.0,0.0,0.0,0.0,0.0,0.0,0.0,0.0,0.0,0.0,0.0,0.0,-4.1585,-4.3319,0.0,0.0,0.0,0.0,0.0,0.0,0.0,0.0,-4.0028,0.0,0.0,0.0,0.0,0.0,0.0,0.0,0.0,0.0,0.0,0.0,0.0,0.0,0.0,0.0,0.0,0.0,0.0,0.0,0.0,0.0,0.0,0.0,0.0,0.0,0.0,0.0,0.0,0.0,0.0,0.0,0.0,0.0,0.0,0.0,0.0,0.0,0.0,0.0,0.0,0.0,0.0,0.0,0.0,0.0,0.0,0.0,0.0,0.0,0.0,0.0,0.0,0.0,0.0,0.0,-4.3639,-4.4692,-4.5242,-4.5423,-4.4886,-4.4501,-4.4276,-4.3368,-4.1775,0.0,0.0,0.0,0.0,0.0,0.0,0.0,0.0,0.0,0.0,0.0,0.0,0.0,0.0,0.0,0.0,0.0,0.0,0.0,0.0,0.0,0.0,0.0,0.0,0.0,0.0,0.0,0.0,0.0,0.0,0.0,0.0,0.0,0.0,0.0,0.0,0.0,0.0,0.0,0.0,-4.2322,-4.3778,-4.4532,0.0,0.0,0.0,0.0,0.0,0.0,-4.0048,-3.9952,0.0,0.0,0.0,0.0,0.0,0.0,0.0,0.0,0.0,0.0,0.0,0.0,0.0,0.0,0.0,0.0,0.0,0.0,0.0,0.0,0.0,0.0,0.0,0.0,0.0,0.0,0.0,0.0,0.0,0.0,0.0,0.0,0.0,0.0,0.0,0.0,0.0,0.0,0.0,0.0,0.0,0.0,0.0,0.0,0.0,0.0,0.0,0.0,0.0,0.0,0.0,0.0,0.0,0.0,0.0,-4.3066,-4.4665,-4.5373,-4.5088,-4.4757,-4.4401,-4.3998,-4.3051,-4.1268,0.0,0.0,0.0,0.0,0.0,0.0,0.0,0.0,0.0,0.0,0.0,0.0,0.0,0.0,0.0,0.0,0.0,0.0,0.0,0.0,0.0,0.0,0.0,0.0,0.0,0.0,0.0,0.0,0.0,0.0,0.0,0.0,0.0,0.0,0.0,0.0,0.0,0.0,0.0,0.0,0.0,-4.4294,-4.5074,-4.4601,0.0,0.0,0.0,0.0,-4.0974,-4.0607,0.0,0.0,0.0,0.0,0.0,0.0,0.0,0.0,0.0,0.0,0.0,0.0,0.0,0.0,0.0,0.0,0.0,0.0,0.0,0.0,0.0,0.0,0.0,0.0,0.0,0.0,0.0,0.0,0.0,0.0,0.0,0.0,0.0,0.0,0.0,0.0,0.0,0.0,0.0,0.0,0.0,0.0,0.0,0.0,0.0,0.0,0.0,0.0,0.0,0.0,0.0,0.0,0.0,0.0,0.0,0.0,-4.2992,-4.4014,-4.467,-4.5058,-4.4769,-4.4401,-4.4016,-4.3586,-4.1831,0.0,0.0,0.0,0.0,0.0,0.0,0.0,0.0,0.0,0.0,0.0,0.0,0.0,0.0,0.0,0.0,0.0,0.0,0.0,0.0,0.0,0.0,0.0,0.0,0.0,0.0,0.0,0.0,0.0,0.0,0.0,0.0,0.0,0.0,0.0,0.0,0.0,0.0,0.0,0.0,0.0,-4.5511,-4.5241,-4.5059,-4.4754,0.0,0.0,-4.1778,-4.1257,-4.112,0.0,0.0,0.0,0.0,0.0,0.0,0.0,0.0,0.0,0.0,0.0,0.0,0.0,0.0,0.0,0.0,0.0,0.0,0.0,0.0,0.0,0.0,0.0,0.0,0.0,0.0,0.0,0.0,0.0,0.0,0.0,0.0,0.0,0.0,0.0,0.0,0.0,0.0,0.0,0.0,0.0,0.0,0.0,0.0,0.0,0.0,0.0,0.0,0.0,0.0,0.0,0.0,0.0,0.0,0.0,-4.0222,-4.233,-4.3933,-4.4777,-4.4806,-4.4441,-4.3867,-4.3061,-4.2459,-4.0559,0.0,0.0,0.0,0.0,0.0,0.0,0.0,0.0,0.0,0.0,0.0,0.0,0.0,0.0,0.0,0.0,0.0,0.0,0.0,0.0,0.0,0.0,0.0,0.0,0.0,0.0,0.0,0.0,0.0,0.0,0.0,0.0,0.0,0.0,0.0,0.0,0.0,0.0,0.0,0.0,0.0,0.0,-4.5876,-4.5491,0.0,0.0,0.0,-4.1646,-4.1686,0.0,0.0,0.0,0.0,0.0,0.0,0.0,0.0,0.0,0.0,0.0,0.0,0.0,0.0,0.0,0.0,0.0,0.0,0.0,0.0,0.0,0.0,0.0,0.0,0.0,0.0,0.0,0.0,0.0,0.0,0.0,0.0,0.0,0.0,0.0,0.0,0.0,0.0,0.0,0.0,0.0,0.0,0.0,0.0,0.0,0.0,0.0,0.0,0.0,0.0,0.0,0.0,0.0,0.0,0.0,0.0,0.0,-4.1669,-4.3721,-4.4668,-4.446,-4.4146,-4.3463,-4.234,-4.1701,0.0,0.0,0.0,0.0,0.0,0.0,0.0,0.0,0.0,0.0,0.0,0.0,0.0,0.0,0.0,0.0,0.0,0.0,0.0,0.0,0.0,0.0,0.0,0.0,0.0,0.0,0.0,-2.783,0.0,0.0,0.0,0.0,0.0,0.0,0.0,0.0,0.0,0.0,0.0,0.0,0.0,0.0,-4.5937,-4.6039,-4.5621,-4.547,0.0,0.0,-4.1613,-4.2085,-4.0497,-3.8876,0.0,0.0,0.0,0.0,0.0,0.0,0.0,0.0,0.0,0.0,0.0,0.0,0.0,0.0,0.0,0.0,0.0,0.0,0.0,0.0,0.0,0.0,0.0,0.0,0.0,0.0,0.0,0.0,0.0,0.0,0.0,0.0,0.0,0.0,0.0,0.0,0.0,0.0,0.0,0.0,0.0,0.0,0.0,0.0,0.0,0.0,0.0,0.0,0.0,0.0,0.0,0.0,0.0,0.0,-3.8693,-4.1292,-4.3008,-4.393,-4.4035,-4.4031,-4.3463,-4.234,-4.2231,-4.0285,0.0,0.0,0.0,0.0,0.0,0.0,0.0,0.0,0.0,0.0,0.0,0.0,0.0,0.0,0.0,0.0,0.0,0.0,0.0,0.0,0.0,0.0,0.0,0.0,0.0,0.0,0.0,0.0,0.0,0.0,0.0,0.0,0.0,0.0,0.0,0.0,0.0,0.0,0.0,0.0,0.0,-4.5699,-4.5182,-4.5211,-4.5347,0.0,-4.3674,-4.2228,-4.2298,-4.0992,-3.9521,-3.8033,0.0,0.0,0.0,0.0,0.0,0.0,0.0,0.0,0.0,0.0,0.0,0.0,0.0,0.0,0.0,0.0,0.0,0.0,0.0,0.0,0.0,0.0,0.0,0.0,0.0,0.0,0.0,0.0,0.0,0.0,0.0,0.0,0.0,0.0,0.0,0.0,0.0,0.0,0.0,0.0,0.0,0.0,0.0,0.0,0.0,0.0,0.0,0.0,0.0,0.0,0.0,0.0,0.0,-3.8286,-3.9521,-4.1467,-4.246,-4.2518,-4.2323,-4.1767,-4.0852,-4.0818,-3.9102,0.0,0.0,0.0,0.0,0.0,0.0,0.0,0.0,0.0,0.0,0.0,0.0,0.0,0.0,0.0,0.0,0.0,0.0,0.0,0.0,0.0,0.0,0.0,0.0,0.0,0.0,0.0,0.0,-3.185,-3.2398,-3.2708,0.0,0.0,0.0,0.0,0.0,0.0,0.0,0.0,0.0,0.0,-4.4022,-4.3793,-4.3941,0.0,0.0,-4.339,-4.2153,-4.1683,-4.0348,-3.8824,-3.7329,-3.643,0.0,0.0,0.0,0.0,0.0,0.0,0.0,0.0,0.0,0.0,0.0,0.0,0.0,0.0,0.0,0.0,0.0,0.0,0.0,0.0,0.0,0.0,0.0,0.0,0.0,0.0,0.0,0.0,0.0,0.0,0.0,0.0,0.0,0.0,0.0,0.0,0.0,0.0,0.0,0.0,0.0,0.0,0.0,0.0,0.0,0.0,0.0,0.0,0.0,0.0,0.0,0.0,-3.7586,-3.8254,-4.0221,-4.1291,-4.1434,-4.122,-4.0708,-3.9937,-3.9733,-3.8153,0.0,0.0,0.0,0.0,0.0,0.0,0.0,0.0,0.0,0.0,0.0,0.0,0.0,0.0,0.0,0.0,0.0,0.0,0.0,0.0,0.0,0.0,0.0,0.0,0.0,0.0,0.0,0.0,-3.2316,-3.2869,-3.41,0.0,0.0,0.0,0.0,0.0,0.0,0.0,0.0,0.0,0.0,-4.2921,-4.2758,-4.3074,-4.3408,-4.3742,-4.2717,-4.1654,-4.0976,-3.9715,-3.8304,-3.6847,0.0,0.0,0.0,0.0,0.0,0.0,0.0,0.0,0.0,0.0,0.0,0.0,0.0,0.0,0.0,0.0,0.0,0.0,0.0,0.0,0.0,0.0,0.0,0.0,0.0,0.0,0.0,-3.5096,0.0,0.0,-3.4288,0.0,0.0,0.0,0.0,0.0,0.0,0.0,0.0,0.0,0.0,0.0,0.0,0.0,0.0,0.0,0.0,0.0,0.0,0.0,0.0,0.0,0.0,-3.6367,-3.7899,-3.9467,-4.0559,-4.1071,-4.1093,-4.0655,-3.99,-3.9379,-3.7773,-3.4942,0.0,0.0,0.0,0.0,0.0,0.0,0.0,0.0,0.0,0.0,0.0,0.0,0.0,0.0,0.0,0.0,0.0,0.0,0.0,0.0,0.0,0.0,0.0,0.0,0.0,0.0,-3.3052,-3.2562,-3.2893,0.0,0.0,0.0,0.0,0.0,0.0,0.0,0.0,0.0,-4.158,-4.2487,-4.2767,-4.2187,-4.2781,-4.3009,-4.2436,-4.1611,-4.0823,-4.0226,-3.9272,-3.8164,0.0,0.0,0.0,0.0,0.0,0.0,0.0,0.0,0.0,0.0,0.0,0.0,0.0,0.0,0.0,0.0,0.0,0.0,0.0,0.0,0.0,0.0,0.0,0.0,0.0,0.0,0.0,-3.7125,-3.6937,0.0,0.0,0.0,0.0,0.0,0.0,0.0,0.0,0.0,0.0,0.0,-3.9446,-4.0463,0.0,0.0,0.0,0.0,0.0,0.0,0.0,0.0,0.0,0.0,0.0,0.0,-3.6297,-3.6892,-3.8423,-3.9322,-3.9496,-3.9499,-3.9368,-3.9111,-3.8581,-3.6862,-3.379,0.0,0.0,0.0,0.0,0.0,0.0,0.0,0.0,0.0,0.0,0.0,0.0,0.0,0.0,0.0,0.0,0.0,0.0,0.0,0.0,0.0,0.0,0.0,0.0,0.0,-3.3724,0.0,0.0,0.0,0.0,0.0,0.0,0.0,0.0,0.0,0.0,0.0,-3.9604,-4.0556,-4.0896,-4.0996,-4.0802,-4.1007,-4.1231,0.0,0.0,0.0,0.0,0.0,0.0,0.0,0.0,0.0,0.0,0.0,0.0,0.0,0.0,-3.1755,-3.1639,-3.1426,-3.1268,-3.1268,0.0,0.0,0.0,0.0,0.0,0.0,0.0,0.0,0.0,0.0,0.0,0.0,0.0,0.0,-3.8393,-3.8199,-3.7015,0.0,0.0,0.0,0.0,0.0,0.0,0.0,0.0,-4.0677,-4.1079,-4.0844,-4.1646,-4.1308,0.0,-3.9955,-3.8836,0.0,0.0,0.0,0.0,0.0,0.0,0.0,0.0,-3.6285,-3.6376,-3.79,-3.8707,-3.8707,-3.8707,-3.8611,-3.8415,-3.7251,-3.5541,-3.3261,-3.1455,-2.9905,0.0,0.0,0.0,0.0,0.0,0.0,0.0,0.0,0.0,0.0,0.0,0.0,0.0,0.0,0.0,0.0,0.0,0.0,0.0,0.0,0.0,0.0,0.0,-3.4083,0.0,0.0,0.0,0.0,0.0,0.0,0.0,0.0,0.0,-3.8797,-3.8728,-3.9042,-4.0247,-3.9981,-3.9789,-4.0057,0.0,0.0,0.0,0.0,0.0,0.0,0.0,-3.7685,-3.601,-3.4998,-3.3986,-3.2832,-3.2246,-3.1431,-3.0036,0.0,0.0,-3.0947,-3.0975,-3.0989,-3.0975,-3.1319,-3.1549,-3.1254,-3.1669,-3.2307,0.0,0.0,0.0,0.0,0.0,0.0,0.0,0.0,-3.9104,-3.9317,0.0,-3.8097,0.0,0.0,0.0,0.0,0.0,-3.8899,0.0,0.0,-4.1574,-4.2688,-4.3722,-4.3033,-4.2557,-4.2284,-4.2176,-4.1368,-3.979,-3.83,0.0,0.0,0.0,0.0,0.0,0.0,-3.6285,-3.634,-3.7808,-3.8615,-3.8579,-3.8634,-3.8394,-3.7804,-3.5522,-3.3987,-3.3347,-3.1955,-3.0852,-3.0142,-3.0055,0.0,0.0,0.0,0.0,0.0,0.0,0.0,0.0,0.0,0.0,0.0,0.0,0.0,0.0,0.0,0.0,0.0,0.0,0.0,0.0,-3.4049,0.0,0.0,0.0,0.0,0.0,0.0,0.0,0.0,0.0,0.0,-3.8559,-3.8206,-3.8579,-4.0635,0.0,0.0,0.0,0.0,-3.8608,-3.7927,-3.7696,-3.7421,-3.677,-3.7051,-3.6956,-3.5723,0.0,0.0,-3.1643,-3.0894,-3.05,-2.988,-2.983,-2.9792,-2.9805,-2.9857,-2.987,-2.9844,-2.996,-3.0165,-3.097,-3.1402,-3.1997,-4.2481,0.0,0.0,0.0,0.0,-4.0719,-4.1296,-4.1662,-4.1912,-4.161,-4.0899,-3.985,0.0,0.0,0.0,0.0,0.0,0.0,-3.9764,-4.0437,-4.0494,-4.104,-4.1896,-4.1709,-4.1537,-4.1442,-4.1442,-4.091,-3.9934,-3.9439,-3.8083,-3.5973,0.0,0.0,0.0,0.0,-3.6285,-3.6321,-3.6743,-3.6982,-3.6982,-3.7547,-3.7428,-3.656,-3.5367,-3.4061,-3.2673,-3.1698,-3.0869,-3.0142,-3.0089,0.0,0.0,0.0,0.0,0.0,0.0,0.0,0.0,0.0,0.0,0.0,0.0,0.0,0.0,0.0,0.0,0.0,0.0,0.0,-3.3305,-3.4066,-3.4796,0.0,0.0,0.0,0.0,0.0,0.0,0.0,0.0,0.0,-3.7834,-3.7875,-3.82,0.0,0.0,-3.8185,-3.8423,-3.8234,-3.7995,-3.7682,-3.7623,0.0,-3.7195,-3.6944,-3.6524,-3.5881,-3.469,-3.3261,-3.1482,-3.1101,-3.0738,-2.9997,-2.9779,-2.9779,-2.9779,-2.9779,-2.9818,-2.9818,-3.0317,-3.0833,-3.118,-3.2213,-3.331,-4.3982,-4.2317,-4.1963,-4.1296,-4.0593,-4.1431,-4.1912,-4.2085,-4.2431,-4.2277,-4.175,-4.0731,-3.9789,-3.8962,-3.8367,0.0,0.0,0.0,-3.9463,-4.0141,-3.9657,-4.0029,-4.104,-4.0799,-4.0783,-4.1077,-4.0765,-4.0377,-3.9882,-3.957,-3.8557,-3.6831,0.0,0.0,-3.5555,-3.6046,-3.6285,-3.6285,-3.6285,-3.6285,-3.6303,-3.6682,-3.6441,-3.5527,-3.4721,-3.3671,-3.2368,-3.1599,-3.0987,-3.0565,-3.0548,-3.0192,0.0,0.0,0.0,0.0,0.0,0.0,0.0,0.0,0.0,0.0,0.0,-3.0706,-3.0363,0.0,0.0,0.0,-3.1875,-3.2565,-3.374,-3.4489,0.0,0.0,0.0,0.0,0.0,0.0,0.0,-3.7243,-3.6631,-3.6425,-3.7067,-3.6987,-3.7355,-3.8588,-3.7924,-3.7433,-3.7717,0.0,-3.7197,-3.6842,-3.6776,-3.6736,-3.6648,-3.6342,-3.5893,-3.5227,-3.4356,-3.3229,-3.2005,-3.1742,-3.1536,-3.1057,-3.0921,-3.0921,-3.0921,-3.0921,-3.0784,-3.0457,-3.1082,-3.1815,-3.2213,-3.3192,-3.4095,-4.4704,-4.304,-4.2174,-4.1312,-4.0612,-4.1431,-4.1335,-4.0689,-4.1546,-4.1865,-4.1731,-4.095,-4.0573,-4.0442,-3.9382,0.0,-3.8456,-3.8914,-3.9365,-3.98,-3.9035,-3.9462,-4.0838,-4.0139,-4.0194,-4.0875,-4.0157,-3.979,-3.9753,-3.9056,-3.8322,-3.7621,-3.7584,-3.7199,-3.6446,-3.634,-3.634,-3.6395,-3.6266,-3.6248,-3.638,-3.6175,-3.5651,-3.4836,-3.3973,-3.3104,-3.2242,-3.1562,-3.119,-3.119,-3.119,-3.0886,-3.0207,0.0,0.0,0.0,0.0,0.0,0.0,0.0,0.0,0.0,0.0,0.0,0.0,0.0,0.0,-3.2381,-3.3011,0.0,-3.4415,-3.51,0.0,0.0,0.0,-3.5872,-3.6524,-3.5968,-3.5767,-3.643,0.0,0.0,-3.6312,-3.5878,-3.6202,-3.8189,-3.7311,-3.6755,-3.742,-3.6909,-3.629,-3.5681,-3.5504,-3.5504,-3.5624,-3.5579,-3.5288,-3.4477,-3.4129,-3.3802,-3.2925,-3.2713,-3.2713,-3.25,-3.2558,-3.2522,-3.2558,-3.2522,-3.2464,-3.1596,-3.2105,-3.2947,-3.3705,-3.4061,-3.4461,-4.394,-4.2285,-4.2048,-4.14,-4.0593,-4.1412,-4.1673,-4.1566,-4.2431,-4.2431,-4.1788,-4.1585,-4.1123,-4.0481,-4.0003,-3.9757,-3.9658,-3.9271,-3.917,-3.9245,-3.888,-3.8909,-3.9258,-3.9074,-3.9093,-3.9258,-3.9074,-3.9001,-3.8982,-3.8799,-3.8597,-3.8432,-3.8414,-3.801,-3.7235,-3.6597,-3.6611,-3.7199,-3.5973,-3.5936,-3.7162,-3.715,-3.6391,-3.4906,-3.4658,-3.3584,-3.1571,-3.1292,-3.119,-3.119,-3.119,-3.1142,-3.0937,-2.9591,0.0,0.0,0.0,0.0,0.0,0.0,0.0,0.0,0.0,-3.2984,-3.1133,0.0,-3.3187,0.0,-3.3267,-3.3598,-3.4338,-3.459,0.0,0.0,-3.5523,-3.5595,-3.5765,-3.5619,-3.5552,-3.5735,-3.5619,-3.5564,-3.5729,-3.5594,-3.5659,-3.6187,-3.5993,-3.5825,-3.5993,-3.5903,-3.5701,-3.5522,-3.5489,-3.5489,-3.5489,-3.5489,-3.5424,-3.5166,-3.5118,-3.4806,-3.3856,-3.3656,-3.3449,-3.277,-3.2593,-3.2593,-3.2629,-3.3122,-3.3567,-3.338,-3.3518,-3.3705,-3.3993,-3.4576,-3.5213,-4.3387,-4.2057,-4.2024,-4.1434,-4.0535,-4.1027,-4.1219,-4.1258,-4.172,-4.1662,-4.1219,-4.12,-4.0958,-4.0481,-4.0213,-4.0101,-4.0071,-3.9564,-3.9314,-3.932,-3.9017,-3.8884,-3.8869,-3.8747,-3.8707,-3.8707,-3.8707,-3.8505,-3.8175,-3.8172,-3.7991,-3.7643,-3.7624,-3.7404,-3.696,-3.6519,-3.6505,-3.696,-3.6046,-3.6028,-3.6909,-3.7095,-3.6262,-3.4462,-3.4499,-3.3533,-3.128,-3.119,-3.119,-3.119,-3.119,-3.119,-3.1173,-3.0108,-2.9634,0.0,0.0,0.0,0.0,0.0,0.0,0.0,0.0,0.0,0.0,0.0,-3.3599,-3.3817,-3.3821,-3.4109,-3.4811,-3.4885,-3.5044,-3.5461,-3.5475,-3.5501,-3.5492,-3.5489,-3.5489,-3.5489,-3.5489,-3.5489,-3.5489,-3.5489,-3.5489,-3.5489,-3.5489,-3.5489,-3.5489,-3.5489,-3.5489,-3.5489,-3.5489,-3.5489,-3.5489,-3.5489,-3.5489,-3.5489,-3.5489,-3.5294,-3.4758,-3.4658,-3.4476,-3.4007,-3.3891,-3.3905,-3.3905,-3.4259,-3.4643,-3.4658,-3.4658,-3.4691,-3.4691,-3.51,-3.5489,-4.285,-4.1926,-4.1851,-4.1318,-4.0496,-4.0496,-4.0496,-4.0496,-4.0496,-4.0496,-4.0496,-4.0496,-4.0496,-4.0481,-4.0269,-4.0148,-4.0129,-3.9808,-3.9656,-3.9645,-3.9314,-3.9096,-3.895,-3.8707,-3.8533,-3.8414,-3.8395,-3.8028,-3.7345,-3.7345,-3.6997,-3.6303,-3.6285,-3.6248,-3.6138,-3.6119,-3.6138,-3.6138,-3.634,-3.6431,-3.645,-3.678,-3.601,-3.4087,-3.4232,-3.3398,-3.1395,-3.1271,-3.1303,-3.1345,-3.1326,-3.1345,-3.1326,-3.0734,-3.0632,0.0,-3.0598,0.0,0.0,0.0,0.0,0.0,0.0,0.0,0.0,-3.3944,-3.3937,-3.4356,-3.4503,-3.4816,-3.5446,-3.5498,-3.5489,-3.5489,-3.5489,-3.5489,-3.5489,-3.5489,-3.5489,-3.5489,-3.5489,-3.5489,-3.5489,-3.5489,-3.5489,-3.5489,-3.5489,-3.5489,-3.5489,-3.5489,-3.5489,-3.5489,-3.5489,-3.5489,-3.5489,-3.5489,-3.5489,-3.5489,-3.5489,-3.5489,-3.5457,-3.5457,-3.5457,-3.5424,-3.5344,-3.5392,-3.5504,-3.5457,-3.5427,-3.5275,-3.523,-3.5245,-3.5245,-3.5277,-3.534,-4.1956,-4.1066,-4.0973,-4.0758,-4.0496,-4.0496,-4.0496,-4.0496,-4.0496,-4.0496,-4.0496,-4.0496,-4.0496,-4.0489,-4.0449,-4.0433,-4.0406,-4.0148,-4.0002,-3.9992,-3.9637,-3.9027,-3.8143,-3.8077,-3.7577,-3.6795,-3.6762,-3.6684,-3.6523,-3.6523,-3.645,-3.6285,-3.6285,-3.5954,-3.5279,0.0,0.0,0.0,-3.6578,-3.7272,-3.729,-3.7952,-3.7332,-3.5337,-3.5312,0.0,-3.1838,-3.1696,-3.1819,-3.2059,-3.209,0.0,0.0,0.0,0.0,0.0,0.0,0.0,0.0,0.0,0.0,0.0,-3.2736,-3.2479,-3.2755,-3.418,-3.4949,-3.4562,-3.498,-3.5337,-3.5505,-3.5497,-3.5489,-3.5489,-3.5489,-3.5489,-3.5489,-3.5489,-3.5489,-3.5489,-3.5489,-3.5489,-3.5489,-3.5489,-3.5489,-3.5489,-3.5489,-3.5489,-3.5489,-3.5489,-3.5489,-3.5489,-3.5489,-3.5489,-3.5489,-3.5489,-3.5489,-3.5489,-3.5489,-3.5489,-3.5459,-3.5489,-3.5489,-3.5489,-3.5489,-3.5474,-3.5474,-3.5489,-3.5265,-3.4771,-3.4681,-3.4666,-3.4698,-3.4698,-3.4517,-4.1289,0.0,-4.0713,-4.0623,0.0,-4.0496,-4.0496,-4.0496,-4.0496,-4.0496,-4.0496,-4.0496,-4.0496,-4.0496,-4.0496,-4.0496,-4.0489,-4.0356,-4.0285,-4.0257,-3.9546,-3.8883,-3.8331,-3.7648,-3.7021,-3.65,-3.6352,-3.6083,-3.5679,-3.5679,-3.5459,-3.5055,-3.5055,-3.4835,-3.4431,-3.4417,-3.4619,-3.5004,-3.6248,-3.6905,-3.6942,-3.7679,-3.7128,-3.5108,-3.5168,0.0,0.0,0.0,0.0,0.0,0.0,0.0,0.0,0.0,0.0,-3.278,-3.2831,-3.3152,-3.3825,-3.3311,-3.3235,-3.3975,-3.403,-3.3853,-3.3434,-3.4698,-3.5363,-3.5045,-3.531,-3.5489,-3.5489,-3.5489,-3.5489,-3.5489,-3.5489,-3.5489,-3.5489,-3.5489,-3.5489,-3.5489,-3.5489,-3.5489,-3.5489,-3.5489,-3.5489,-3.5489,-3.5489,-3.5489,-3.5489,-3.5489,-3.5489,-3.5489,-3.5489,-3.5489,-3.5489,-3.5489,-3.534,-3.513,-3.528,-3.5325,-3.5055,-3.5295,-3.5489,-3.5474,-3.5235,-3.4996,-3.4966,-3.4756,-3.4412,-3.4098,-3.3993,-3.3858,-3.3634,-3.3769,-3.3903,-4.0855,-4.0697,-4.0687,-4.0596,-4.0496,-4.0496,-4.0496,-4.0496,0.0,0.0,0.0,-4.0496,-4.0496,-4.0496,-4.0496,-4.0496,-4.0496,-4.0362,-4.0304,-4.0239,-3.9159,-3.8565,-3.829,-3.7182,-3.6527,-3.6342,-3.607,-3.5575,-3.488,-3.4812,-3.4454,-3.3862,-3.3807,-3.3807,-3.3807,-3.3807,-3.4137,-3.4802,-3.5642,-3.6064,-3.6083,-3.6853,-3.6391,-3.4534,-3.4694,-3.3899,-3.2003,-3.2109,-3.2221,-3.2293,-3.2293,-3.2649,-3.3339,-3.2933,-3.3241,-3.437,-3.4607,-3.4962,-3.5526,-3.4965,-3.4593,-3.4611,-3.5162,-3.5285,-3.4726,-3.5309,-3.5701,-3.5701,-3.5587,-3.5489,-3.5489,-3.5489,-3.5489,-3.5489,-3.5489,-3.5489,-3.5489,-3.5489,-3.5489,-3.5489,-3.5489,-3.5489,-3.5489,-3.5489,-3.5444,-3.534,-3.5265,-3.5265,-3.5205,-3.5325,-3.5489,-3.5489,-3.537,-3.528,-3.5295,-3.5115,-3.4921,-3.4427,-3.4756,-3.4921,-3.4608,-3.4771,-3.513,-3.5179,-3.4728,-3.4352,-3.4186,-3.3857,-3.3469,-3.3335,-3.332,-3.3125,-3.2572,-3.2751,-3.3095,-4.0766,-4.0686,-4.0588,-4.05,-4.0496,-4.0496,-4.0496,-4.0496,-4.0496,-4.0496,-4.0496,-4.0496,-4.0496,-4.0496,-4.0496,-4.0496,-4.0458,-3.9804,-3.9457,-3.9431,-3.8535,-3.7581,-3.6677,-3.6453,-3.5884,-3.4999,-3.4673,-3.4444,-3.4315,-3.4099,-3.3899,-3.3825,-3.3807,-3.3807,-3.3807,-3.3807,-3.3844,-3.399,-3.4747,-3.5188,-3.5188,-3.6028,-3.5981,-3.4975,-3.4606,-3.3818,-3.247,-3.2072,-3.201,-3.23,-3.2293,-3.2628,-3.3355,-3.388,-3.4286,-3.4506,-3.5098,-3.5498,-3.556,-3.4965,-3.4595,-3.4597,-3.4712,-3.496,-3.544,-3.6045,-3.6446,-3.6415,-3.5926,-3.5489,-3.5489,-3.5522,-3.5522,-3.5489,-3.5489,-3.5489,-3.5489,-3.5489,-3.5489,-3.5489,-3.5489,-3.5489,-3.5444,-3.5459,-3.522,-3.4803,-3.4637,-3.4474,-3.4203,-3.4786,-3.5429,-3.5415,-3.4996,-3.4698,-3.4592,-3.4128,-3.3858,-3.3649,-3.3754,-3.3873,-3.3679,-3.3814,-3.4085,-3.4361,-3.3996,-3.3558,-3.3226,-3.3333,-3.314,-3.2751,-3.2647,-3.2407,-3.1839,-3.1809,-3.1839,-4.0713,-4.0589,-4.0527,-4.0496,-4.0496,-4.0496,-4.0496,-4.0496,-4.0496,-4.0496,-4.0496,-4.0496,-4.0496,-4.0496,-4.0496,-4.0265,-3.9842,-3.9477,-3.9046,-3.8546,-3.77,-3.7033,-3.65,-3.5908,-3.5396,-3.4908,-3.4632,-3.4456,-3.4453,-3.4159,-3.4037,-3.4024,-3.3863,-3.3807,-3.3807,-3.3807,-3.3807,-3.3807,-3.4174,-3.4344,-3.4362,-3.5169,-3.5188,-3.4362,-3.4119,-3.3547,-3.2536,-3.2222,-3.2142,-3.2276,-3.2293,-3.2632,-3.3372,-3.3728,-3.4083,-3.4489,-3.5199,-3.5616,-3.5616,-3.5316,-3.498,-3.4642,-3.5341,-3.5742,-3.5637,-3.628,-3.6839,-3.7202,-3.692,-3.6554,-3.6149,-3.6117,-3.5943,-3.5522,-3.5489,-3.5489,-3.5489,-3.5489,-3.5489,-3.5489,-3.5489,-3.5355,-3.4981,-3.4951,-3.4696,-3.4083,-3.3948,-3.3799,-3.3514,-3.3978,-3.4412,-3.4382,-3.4143,-3.3978,-3.3933,-3.3709,-3.3365,-3.3036,-3.326,-3.3305,-3.311,-3.32,-3.3651,-3.4045,-3.3532,-3.3006,-3.2751,-3.2527,-3.2288,-3.2093,-3.1959,-3.178,-3.1555,-3.1241,-3.1092,-4.0676,-4.0496,-4.0304,-4.0227,-4.0246,-4.0419,-4.0496,-4.0477,-4.0304,-4.0323,-4.0496,-4.0496,-4.0496,-4.0477,-4.0323,-3.9881,-3.9296,-3.888,-3.8334,-3.7661,-3.6815,-3.6423,-3.6351,-3.5557,-3.5198,-3.5147,-3.4907,-3.4784,-3.4754,-3.4401,-3.4171,-3.4086,-3.3884,-3.3807,-3.3807,-3.3807,-3.3807,-3.3807,-3.3807,-3.3807,-3.3825,-3.4399,-3.439,-3.3716,-3.3508,-3.3085,-3.2386,-3.2151,-3.2056,-3.2056,-3.2056,-3.2374,-3.3085,-3.3152,-3.3474,-3.4201,-3.4793,-3.5177,-3.5346,-3.5515,-3.5385,-3.4911,-3.5877,-3.6343,-3.6049,-3.6417,-3.6933,-3.744,-3.7466,-3.7152,-3.651,-3.6531,-3.6398,-3.5825,-3.5777,-3.5826,-3.5762,-3.5619,-3.5416,-3.5326,-3.5136,-3.4816,-3.4444,-3.4279,-3.3978,-3.344,-3.3155,-3.3051,-3.3051,-3.3066,-3.3051,-3.3095,-3.317,-3.3275,-3.326,-3.3095,-3.2796,-3.2347,-3.2662,-3.2677,-3.2437,-3.2736,-3.3066,-3.3291,-3.2856,-3.2258,-3.2182,-3.1898,-3.1511,-3.1346,-3.1256,-3.1212,-3.0972,-3.0614,-3.0537,-4.0676,-4.0404,-3.9773,-3.9419,-3.9554,-4.0208,-4.0496,-4.0419,-3.9746,-3.9842,-4.0477,-4.0496,-4.0477,-4.04,-3.9746,-3.9381,-3.9084,-3.7661,-3.6923,-3.6769,-3.5981,-3.5596,-3.5654,-3.5498,-3.546,-3.5412,-3.5171,-3.507,-3.5025,-3.451,-3.4093,-3.385,-3.382,-3.382,-3.3807,-3.3807,-3.3807,-3.3807,-3.3807,-3.3807,-3.3807,-3.388,-3.3712,-3.3276,-3.2848,-3.2386,-3.1915,-3.1498,-3.1292,-3.1309,-3.1309,-3.163,-3.2293,-3.2412,-3.2713,-3.3423,-3.3592,-3.3897,-3.4556,-3.5233,-3.5543,-3.5515,-3.5622,-3.6005,-3.6544,-3.671,-3.6775,-3.683,-3.682,-3.659,-3.5868,-3.6326,-3.6603,-3.6435,-3.6419,-3.6607,-3.6435,-3.5982,-3.5334,-3.4642,-3.4243,-3.3649,-3.365,-3.3529,-3.329,-3.2647,-3.2198,-3.1914,-3.1899,-3.1899,-3.1869,-3.1884,-3.2168,-3.2557,-3.2542,-3.2049,-3.1824,-3.166,-3.1645,-3.1675,-3.166,-3.1645,-3.1734,-3.1943,-3.1779,-3.1406,-3.0915,-3.0871,-3.1212,-3.0746,-3.0567,-3.0447,-2.9953,-2.9714,-2.9909,-4.0788,-4.0604,-4.0269,-4.0079,-4.0081,-4.0381,-4.0496,-4.0458,-4.015,-4.0208,-4.0477,-4.0496,-4.0227,-3.9765,-3.9438,-3.8757,-3.7738,-3.7019,-3.6423,-3.6,-3.5635,-3.55,-3.55,-3.55,-3.55,-3.55,-3.5383,-3.5346,-3.5262,-3.4916,-3.4492,-3.4062,-3.4031,-3.3961,-3.3834,-3.3807,-3.3807,-3.3807,-3.3807,-3.3807,-3.3807,-3.3807,-3.3721,-3.3508,-3.2872,-3.2434,-3.2179,-3.1564,-3.119,-3.119,-3.119,-3.1343,-3.1633,-3.2056,-3.2429,-3.2747,-3.3169,-3.3728,-3.4477,-3.4793,-3.5148,-3.5549,-3.5616,-3.5752,-3.6045,-3.6096,-3.6076,-3.6155,-3.6862,-3.7096,-3.6375,-3.6517,-3.6535,-3.6169,-3.6031,-3.6059,-3.6047,-3.5807,-3.5326,-3.4585,-3.4264,-3.3742,-3.3066,-3.2542,-3.2228,-3.1929,-3.163,-3.1511,-3.1496,-3.1496,-3.1496,-3.1525,-3.1765,-3.1884,-3.1869,-3.172,-3.1361,-3.1032,-3.0898,-3.0898,-3.0898,-3.0898,-3.0883,-3.0751,-3.0839,-3.0528,-2.9627,-2.9916,-3.0253,-2.9968,-2.9924,-2.9759,-2.9131,-2.9011,-2.9146,-4.0887,-4.0712,-4.0469,-4.0288,-4.0193,-4.0173,-4.0169,-4.0169,-4.0169,-4.0035,-3.9861,-4.0054,-3.9573,-3.87,-3.8823,-3.8104,-3.6808,-3.6462,-3.6058,-3.5519,-3.55,-3.55,-3.55,-3.55,-3.55,-3.55,-3.55,-3.5453,-3.5376,-3.5207,-3.4794,-3.4281,-3.4218,-3.4062,-3.3847,-3.3807,-3.3807,-3.3807,-3.3807,-3.3807,-3.3807,-3.3807,-3.3675,-3.3419,-3.284,-3.2384,-3.2144,-3.1524,-3.119,-3.119,-3.119,-3.119,-3.1207,-3.1718,-3.2005,-3.2056,-3.2679,-3.344,-3.415,-3.4387,-3.4827,-3.5498,-3.5616,-3.5616,-3.5616,-3.5616,-3.5616,-3.5695,-3.6597,-3.6928,-3.653,-3.658,-3.647,-3.5997,-3.5918,-3.5918,-3.5971,-3.577,-3.5353,-3.4672,-3.4277,-3.3829,-3.2725,-3.2014,-3.157,-3.154,-3.1525,-3.1496,-3.1496,-3.1496,-3.1451,-3.1256,-3.1212,-3.1227,-3.1227,-3.1182,-3.0913,-3.0507,-3.0253,-3.0253,-3.0253,-3.0253,-3.0253,-3.0195,-3.021,-2.9986,-2.9277,-2.9271,-2.9445,-2.9382,-2.9307,-2.9112,-2.8483,-2.8353,-2.8323,-4.0936,-4.0668,-3.9839,-3.9553,-3.9472,-3.941,-3.94,-3.9457,-3.94,-3.8938,-3.845,-3.9046,-3.843,-3.7058,-3.7777,-3.7546,-3.6654,-3.5923,-3.5577,-3.55,-3.55,-3.55,-3.55,-3.55,-3.55,-3.55,-3.55,-3.5383,-3.5147,-3.5113,-3.4794,-3.4235,-3.4223,-3.4062,-3.386,-3.3807,-3.3807,-3.3807,-3.3807,-3.3807,-3.3807,-3.3807,-3.3419,-3.2745,-3.2534,-3.2144,-3.143,-3.1249,-3.119,-3.119,-3.119,-3.119,-3.119,-3.1241,-3.1292,-3.1343,-3.1955,-3.2645,-3.3406,-3.4015,-3.4726,-3.5414,-3.5515,-3.5583,-3.56,-3.5616,-3.5616,-3.5616,-3.5752,-3.5808,-3.5813,-3.6289,-3.6649,-3.6602,-3.6643,-3.6619,-3.6666,-3.5984,-3.5399,-3.4668,-3.4008,-3.3349,-3.2628,-3.1953,-3.1582,-3.1496,-3.1496,-3.1466,-3.1391,-3.1436,-3.1167,-3.0731,-3.0567,-3.0552,-3.0537,-3.0567,-3.0283,-2.9834,-2.9609,-2.9636,-2.9636,-2.9624,-2.9609,-2.9609,-2.9609,-2.94,-2.8966,-2.8846,-2.8951,-2.8891,-2.8682,-2.8368,-2.8004,-2.775,-2.775,-4.1052,-4.0897,-4.0478,-4.0286,-4.0161,-3.9624,-3.9341,-3.9304,-3.9304,-3.913,-3.8911,-3.9169,-3.8642,-3.7526,-3.7257,-3.6712,-3.5962,-3.5635,-3.55,-3.55,-3.55,-3.55,-3.55,-3.55,-3.55,-3.55,-3.55,-3.5446,-3.5369,-3.5342,-3.5069,-3.4614,-3.4518,-3.4284,-3.3895,-3.3807,-3.3807,-3.3807,-3.3807,-3.3807,-3.3807,-3.3807,-3.3504,-3.3001,-3.2648,-3.2368,-3.2039,-3.1523,-3.119,-3.119,-3.119,-3.119,-3.119,-3.119,-3.119,-3.1224,-3.1427,-3.1921,-3.2598,-3.2953,-3.3609,-3.4742,-3.4895,-3.5131,-3.5498,-3.5616,-3.5616,-3.5616,-3.5616,-3.5616,-3.565,-3.5893,-3.6045,-3.6045,-3.6045,-3.6062,-3.6005,-3.5765,-3.5358,-3.4617,-3.37,-3.268,-3.216,-3.1653,-3.1496,-3.1496,-3.1496,-3.1301,-3.0943,-3.0881,-3.0642,-3.0103,-2.9909,-2.9774,-2.9295,-2.9699,-2.9729,-2.9235,-2.8951,-2.8951,-2.8951,-2.8951,-2.8936,-2.8936,-2.8951,-2.8757,-2.8323,-2.8068,-2.8244,-2.8259,-2.8038,-2.7914,-2.766,-2.76,-2.7585,-4.115,-4.1013,-4.0608,-4.0404,-4.0237,-3.9376,-3.8781,-3.8534,-3.8757,-3.8584,-3.8238,-3.8604,-3.8277,-3.7296,-3.6827,-3.6269,-3.5538,-3.55,-3.55,-3.55,-3.55,-3.55,-3.55,-3.55,-3.55,-3.55,-3.55,-3.55,-3.55,-3.55,-3.5254,-3.4841,-3.4744,-3.4461,-3.3999,-3.3855,-3.3807,-3.3807,-3.3807,-3.3807,-3.3807,-3.3807,-3.3662,-3.3375,-3.295,-3.2648,-3.2501,-3.1787,-3.1391,-3.1389,-3.1271,-3.119,-3.119,-3.119,-3.119,-3.119,-3.119,-3.1532,-3.2158,-3.2293,-3.2852,-3.3998,-3.4387,-3.4742,-3.5216,-3.5447,-3.5583,-3.5616,-3.5616,-3.5616,-3.5616,-3.5616,-3.5616,-3.5616,-3.5616,-3.5616,-3.5616,-3.5616,-3.527,-3.4616,-3.37,-3.2734,-3.1979,-3.1653,-3.1405,-3.1241,-3.1182,-3.0913,-3.0372,-3.0178,-2.9983,-2.9415,-2.9265,-2.8951,-2.8562,-2.8678,-2.8858,-2.8427,-2.8353,-2.8338,-2.8353,-2.8323,-2.8349,-2.8293,-2.8214,-2.8019,-2.775,-2.745,-2.742,-2.7495,-2.7435,-2.7315,-2.7375,-2.76,-2.7495,-4.1191,-4.1055,-4.014,-3.9741,-3.9579,-3.8607,-3.7634,-3.7126,-3.7668,-3.7257,-3.6404,-3.7353,-3.7199,-3.6077,-3.6365,-3.6192,-3.5596,-3.55,-3.55,-3.55,-3.55,-3.55,-3.55,-3.55,-3.55,-3.55,-3.55,-3.55,-3.55,-3.5474,-3.5335,-3.5069,-3.4822,-3.45,-3.4176,-3.3941,-3.3807,-3.3807,-3.3807,-3.3807,-3.3807,-3.3807,-3.3738,-3.3648,-3.3354,-3.2978,-3.253,-3.2039,-3.1752,-3.1733,-3.1408,-3.119,-3.119,-3.119,-3.119,-3.119,-3.119,-3.1546,-3.2124,-3.2209,-3.2513,-3.3305,-3.4015,-3.4336,-3.4675,-3.5148,-3.5515,-3.56,-3.5616,-3.5616,-3.5616,-3.5616,-3.5616,-3.5616,-3.5616,-3.5616,-3.5616,-3.56,-3.5322,-3.46,-3.3862,-3.3313,-3.261,-3.1879,-3.1285,-3.0717,-3.0582,-3.0357,-2.9729,-2.9549,-2.928,-2.8786,-2.8562,-2.8353,-2.7959,-2.7615,-2.766,-2.766,-2.775,-2.7794,-2.7869,-2.7869,-2.7914,-2.7899,-2.7914,-2.7705,-2.7111,-2.6856,-2.6956,-2.7001,-2.6866,-2.6707,-2.6841,-2.6991,-2.7195,-4.1191,-4.1094,-4.0213,-3.9767,-3.9463,-3.8022,-3.7133,-3.6843,-3.7063,-3.6776,-3.6481,-3.6873,-3.6788,-3.6327,-3.6058,-3.5731,-3.5519,-3.55,-3.55,-3.55,-3.55,-3.55,-3.55,-3.55,-3.55,-3.55,-3.55,-3.55,-3.55,-3.55,-3.5369,-3.5096,-3.4851,-3.454,-3.423,-3.3954,-3.3807,-3.3807,-3.3807,-3.3807,-3.3807,-3.3807,-3.355,-3.3078,-3.3369,-3.3299,-3.2585,-3.2066,-3.1826,-3.1825,-3.1411,-3.119,-3.119,-3.119,-3.119,-3.119,-3.119,-3.1241,-3.1478,-3.1599,-3.1867,-3.2513,-3.2886,-3.3491,-3.4336,-3.4675,-3.5064,-3.5464,-3.56,-3.5616,-3.5616,-3.5616,-3.5616,-3.5616,-3.5616,-3.5616,-3.56,-3.5577,-3.5052,-3.4137,-3.3735,-3.294,-3.1699,-3.1164,-3.1031,-3.0118,-3.0163,-3.0073,-2.919,-2.8891,-2.8637,-2.8064,-2.7974,-2.7974,-2.7735,-2.7585,-2.7585,-2.7585,-2.7585,-2.7585,-2.7585,-2.7585,-2.7585,-2.745,-2.7465,-2.7195,-2.6602,-2.6348,-2.6378,-2.6288,-2.6063,-2.6078,-2.6183,-2.6348,-2.6542,-4.1016,-4.0664,-4.0137,-3.9428,-3.869,-3.7442,-3.6782,-3.6452,-3.6312,-3.6269,-3.6231,-3.625,-3.625,-3.6154,-3.5731,-3.55,-3.55,-3.55,-3.55,-3.55,-3.55,-3.55,-3.55,-3.55,-3.55,-3.55,-3.55,-3.55,-3.55,-3.5481,-3.5405,-3.5223,-3.4981,-3.4695,-3.439,-3.4105,-3.3897,-3.3834,-3.3807,-3.3807,-3.3807,-3.3807,-3.3421,-3.2839,-3.3385,-3.3353,-3.2659,-3.2396,-3.2315,-3.2213,-3.177,-3.1389,-3.123,-3.119,-3.119,-3.119,-3.119,-3.119,-3.119,-3.1241,-3.136,-3.1836,-3.2141,-3.2649,-3.3546,-3.3846,-3.4421,-3.5047,-3.516,-3.5295,-3.5532,-3.5616,-3.5616,-3.5616,-3.5616,-3.5616,-3.5577,-3.5362,-3.48,-3.3887,-3.3407,-3.2333,-3.1197,-3.0733,-3.0584,-2.9624,-2.952,-2.9475,-2.8547,-2.8218,-2.7929,-2.772,-2.7705,-2.769,-2.763,-2.7585,-2.7585,-2.7585,-2.7585,-2.7585,-2.7585,-2.757,-2.7555,-2.7031,-2.6881,-2.6497,-2.595,-2.5666,-2.56,-2.5435,-2.539,-2.551,-2.5659,-2.5779,-2.5929,-4.0605,-3.9863,-3.9766,-3.8746,-3.7372,-3.6985,-3.6433,-3.5718,-3.5585,-3.5597,-3.5565,-3.5615,-3.5571,-3.554,-3.5533,-3.5494,-3.5494,-3.55,-3.55,-3.55,-3.55,-3.55,-3.55,-3.55,-3.55,-3.55,-3.55,-3.55,-3.55,-3.55,-3.55,-3.5439,-3.519,-3.4954,-3.4634,-3.4357,-3.4025,-3.3829,-3.3807,-3.3807,-3.3807,-3.3807,-3.3421,-3.2693,-3.3366,-3.3421,-3.2768,-3.2958,-3.3118,-3.2957,-3.2091,-3.1551,-3.1244,-3.1159,-3.119,-3.119,-3.119,-3.119,-3.119,-3.119,-3.1244,-3.1326,-3.1836,-3.2276,-3.253,-3.3072,-3.366,-3.4336,-3.4438,-3.4692,-3.5199,-3.5295,-3.5312,-3.5414,-3.5464,-3.5583,-3.5538,-3.5001,-3.4226,-3.3549,-3.2887,-3.1924,-3.0481,-3.0342,-2.9819,-2.8966,-2.8652,-2.8457,-2.7989,-2.7764,-2.7645,-2.7585,-2.7585,-2.7585,-2.7585,-2.7585,-2.7585,-2.7525,-2.748,-2.7375,-2.742,-2.7405,-2.7151,-2.6617,-2.6168,-2.5794,-2.5382,-2.5053,-2.4941,-2.4926,-2.4956,-2.5008,-2.5023,-2.5061,-2.5121,-3.9726,-3.8887,-3.8262,-3.7714,-3.7183,-3.6529,-3.6022,-3.5679,-3.5611,-3.5534,-3.5515,-3.55,-3.5541,-3.5568,-3.5522,-3.5528,-3.5538,-3.5522,-3.55,-3.55,-3.55,-3.55,-3.55,-3.55,-3.55,-3.55,-3.55,-3.55,-3.55,-3.55,-3.55,-3.5493,-3.5258,-3.4972,-3.4694,-3.439,-3.408,-3.386,-3.3807,-3.3807,-3.3807,-3.3807,-3.3403,-3.2766,-3.3385,-3.3385,-3.2766,-3.3286,-3.2991,-3.1898,-3.1829,-3.1476,-3.0897,-3.1011,-3.1179,-3.119,-3.119,-3.119,-3.119,-3.119,-3.119,-3.119,-3.141,-3.1735,-3.2259,-3.2462,-3.2949,-3.3508,-3.3694,-3.3778,-3.396,-3.4027,-3.4032,-3.4095,-3.4856,-3.5481,-3.5346,-3.4568,-3.358,-3.2891,-3.1895,-3.0741,-2.9796,-2.9555,-2.9364,-2.8378,-2.8214,-2.8364,-2.7794,-2.7585,-2.7585,-2.7585,-2.7585,-2.7585,-2.7585,-2.7585,-2.7555,-2.748,-2.7315,-2.7031,-2.7061,-2.7036,-2.6557,-2.5989,-2.5615,-2.5202,-2.4724,-2.4321,-2.4358,-2.4433,-2.4283,-2.4216,-2.4088,-2.4059,-2.4133,-3.9394,-3.8535,-3.7656,-3.709,-3.6719,-3.6134,-3.5847,-3.5758,-3.5648,-3.5568,-3.5546,-3.5553,-3.5568,-3.5581,-3.5585,-3.5579,-3.5595,-3.5556,-3.5515,-3.55,-3.55,-3.55,-3.55,-3.55,-3.55,-3.55,-3.55,-3.55,-3.55,-3.55,-3.55,-3.5467,-3.5335,-3.5122,-3.4889,-3.4572,-3.4253,-3.4012,-3.3881,-3.3807,-3.3807,-3.3807,-3.3366,-3.2931,-3.3366,-3.3532,-3.3238,-3.355,-3.3079,-3.1977,-3.1756,-3.1512,-3.0733,-3.081,-3.103,-3.1162,-3.119,-3.119,-3.119,-3.119,-3.119,-3.119,-3.119,-3.1393,-3.1735,-3.1853,-3.2138,-3.2797,-3.2916,-3.3102,-3.3339,-3.3389,-3.3389,-3.3537,-3.418,-3.467,-3.4687,-3.3728,-3.304,-3.24,-3.1571,-3.0438,-2.9154,-2.9355,-2.8848,-2.8106,-2.7914,-2.7884,-2.7675,-2.763,-2.7585,-2.7585,-2.7585,-2.7585,-2.7585,-2.7585,-2.7225,-2.7151,-2.6797,-2.6557,-2.6348,-2.6363,-2.5989,-2.5397,-2.5023,-2.4649,-2.4238,-2.3909,-2.3924,-2.3894,-2.364,-2.3595,-2.3595,-2.3595,-2.3595,-3.9199,-3.8262,-3.748,-3.6719,-3.6094,-3.5942,-3.5907,-3.5862,-3.5714,-3.5621,-3.5616,-3.5611,-3.5636,-3.5616,-3.5671,-3.5659,-3.566,-3.5616,-3.5564,-3.5509,-3.55,-3.55,-3.55,-3.55,-3.55,-3.55,-3.55,-3.55,-3.55,-3.55,-3.55,-3.5474,-3.5467,-3.5327,-3.5079,-3.4851,-3.4542,-3.4195,-3.3986,-3.3855,-3.3834,-3.3788,-3.3476,-3.3115,-3.3421,-3.377,-3.3733,-3.3757,-3.3241,-3.2123,-3.2116,-3.1684,-3.0924,-3.0716,-3.0878,-3.1118,-3.119,-3.119,-3.119,-3.119,-3.119,-3.119,-3.119,-3.119,-3.1275,-3.1326,-3.1562,-3.2141,-3.2192,-3.2442,-3.2831,-3.3068,-3.2983,-3.2949,-3.3136,-3.3169,-3.3043,-3.2651,-3.2301,-3.2223,-3.165,-3.0648,-2.9855,-2.9305,-2.8922,-2.7885,-2.775,-2.7705,-2.7645,-2.7615,-2.7585,-2.7585,-2.7585,-2.7585,-2.7585,-2.7585,-2.7076,-2.6686,-2.6198,-2.5839,-2.5405,-2.53,-2.5158,-2.4859,-2.4545,-2.4223,-2.3864,-2.367,-2.3655,-2.3655,-2.361,-2.3595,-2.3595,-2.3595,-2.3595,-3.7969,-3.6543,-3.6367,-3.6172,-3.6016,-3.5975,-3.5928,-3.5882,-3.5838,-3.5765,-3.5686,-3.5675,-3.5733,-3.5841,-3.5755,-3.5746,-3.5794,-3.5681,-3.5568,-3.5501,-3.55,-3.55,-3.55,-3.55,-3.55,-3.55,-3.55,-3.55,-3.55,-3.55,-3.55,-3.55,-3.5474,-3.5369,-3.513,-3.5018,-3.4735,-3.4311,-3.4153,-3.3992,-3.3834,-3.3807,-3.3697,-3.3513,-3.3697,-3.3788,-3.3807,-3.3807,-3.3363,-3.2803,-3.2694,-3.236,-3.1398,-3.1324,-3.1347,-3.1208,-3.119,-3.119,-3.119,-3.119,-3.121,-3.1249,-3.1252,-3.119,-3.119,-3.123,-3.1278,-3.1427,-3.1464,-3.1613,-3.1799,-3.1715,-3.1816,-3.1867,-3.1833,-3.1782,-3.1685,-3.1662,-3.1687,-3.1429,-3.0664,-2.9569,-2.8871,-2.8821,-2.8406,-2.7735,-2.7585,-2.7585,-2.7585,-2.76,-2.7585,-2.7585,-2.7585,-2.757,-2.7495,-2.7285,-2.6572,-2.6004,-2.5525,-2.5113,-2.4702,-2.4567,-2.4545,-2.4365,-2.4118,-2.3804,-2.361,-2.3595,-2.3625,-2.361,-2.3595,-2.3595,-2.3595,-2.3595,-2.3595,-3.7832,-3.6601,-3.6172,-3.6016,-3.6016,-3.6016,-3.5975,-3.5946,-3.5929,-3.5869,-3.5805,-3.578,-3.5838,-3.5882,-3.5861,-3.5885,-3.5856,-3.5686,-3.5588,-3.554,-3.5515,-3.55,-3.55,-3.55,-3.55,-3.55,-3.55,-3.55,-3.55,-3.55,-3.55,-3.55,-3.55,-3.5439,-3.5231,-3.507,-3.4764,-3.4453,-3.4141,-3.3941,-3.3834,-3.3807,-3.3807,-3.3807,-3.3807,-3.3807,-3.3807,-3.3807,-3.3587,-3.3313,-3.3323,-3.2823,-3.1623,-3.1459,-3.1426,-3.1242,-3.119,-3.119,-3.119,-3.121,-3.1271,-3.1487,-3.1487,-3.1488,-3.147,-3.147,-3.137,-3.1252,-3.1207,-3.1207,-3.119,-3.1207,-3.119,-3.119,-3.119,-3.119,-3.1219,-3.1271,-3.1308,-3.1154,-3.0509,-2.9758,-2.9173,-2.8865,-2.8286,-2.782,-2.7685,-2.766,-2.76,-2.76,-2.76,-2.7585,-2.7585,-2.754,-2.742,-2.6916,-2.6019,-2.536,-2.4717,-2.4373,-2.4014,-2.4029,-2.4096,-2.3954,-2.3819,-2.3744,-2.3595,-2.3595,-2.3595,-2.3595,-2.3595,-2.3595,-2.3595,-2.3595,-2.3595,-3.7988,-3.7031,-3.6309,-3.6016,-3.6016,-3.6016,-3.5996,-3.5996,-3.5945,-3.5935,-3.5911,-3.5931,-3.5914,-3.5919,-3.5953,-3.5951,-3.5851,-3.5725,-3.5621,-3.5599,-3.5528,-3.5494,-3.55,-3.55,-3.55,-3.55,-3.55,-3.55,-3.55,-3.55,-3.55,-3.55,-3.55,-3.5467,-3.5376,-3.5105,-3.4841,-3.4724,-3.4307,-3.4005,-3.3895,-3.3855,-3.3807,-3.3807,-3.3807,-3.3807,-3.3807,-3.3807,-3.3788,-3.3807,-3.3807,-3.2994,-3.2054,-3.156,-3.1426,-3.1374,-3.1411,-3.1468,-3.1411,-3.1447,-3.162,-3.1897,-3.1915,-3.1915,-3.1915,-3.1862,-3.1696,-3.143,-3.1291,-3.119,-3.119,-3.119,-3.119,-3.119,-3.119,-3.119,-3.119,-3.119,-3.1199,-3.1142,-3.0803,-3.0241,-2.9673,-2.9271,-2.8591,-2.8002,-2.7894,-2.7795,-2.776,-2.7785,-2.7894,-2.7785,-2.781,-2.7375,-2.7185,-2.6288,-2.5435,-2.4956,-2.4193,-2.3894,-2.3625,-2.3729,-2.3849,-2.3744,-2.3625,-2.3595,-2.3595,-2.3595,-2.3595,-2.3595,-2.3595,-2.3595,-2.3595,-2.3595,-2.3595,-3.7566,-3.6191,-3.6055,-3.6016,-3.6016,-3.6016,-3.6016,-3.6016,-3.5996,-3.5996,-3.5976,-3.5976,-3.5976,-3.5976,-3.5996,-3.5976,-3.5862,-3.5749,-3.5655,-3.5601,-3.5553,-3.5501,-3.55,-3.55,-3.55,-3.55,-3.55,-3.55,-3.55,-3.55,-3.55,-3.55,-3.55,-3.55,-3.5493,-3.5376,-3.5147,-3.4963,-3.4624,-3.4353,-3.4153,-3.3954,-3.3834,-3.382,-3.3807,-3.3807,-3.3807,-3.3807,-3.3807,-3.3807,-3.3807,-3.3463,-3.2961,-3.2787,-3.2438,-3.1951,-3.1986,-3.2003,-3.1806,-3.2056,-3.2248,-3.2384,-3.2383,-3.2383,-3.2384,-3.2332,-3.2127,-3.1696,-3.1389,-3.119,-3.119,-3.119,-3.119,-3.119,-3.119,-3.119,-3.119,-3.119,-3.119,-3.1171,-3.0995,-3.0757,-3.0145,-2.9651,-2.918,-2.8787,-2.8693,-2.8496,-2.8367,-2.8448,-2.8567,-2.8352,-2.8091,-2.7476,-2.6904,-2.5728,-2.4784,-2.4597,-2.4088,-2.3804,-2.361,-2.3595,-2.3595,-2.3595,-2.3595,-2.3595,-2.3595,-2.3595,-2.3595,-2.3595,-2.3595,-2.3595,-2.3595,-2.3595,-2.3595,-3.7719,-3.6641,-3.6211,-3.6016,-3.6016,-3.6016,-3.6016,-3.6016,-3.6016,-3.6016,-3.6016,-3.6016,-3.6016,-3.6016,-3.6016,-3.5976,-3.5925,-3.5851,-3.5743,-3.5666,-3.5579,-3.5541,-3.5508,-3.5494,-3.55,-3.55,-3.55,-3.5488,-3.55,-3.55,-3.55,-3.55,-3.55,-3.55,-3.5453,-3.5327,-3.5258,-3.5062,-3.4832,-3.4632,-3.4434,-3.4165,-3.3974,-3.3829,-3.382,-3.3807,-3.3807,-3.3807,-3.3807,-3.3807,-3.3807,-3.3694,-3.3564,-3.3404,-3.3103,-3.2416,-3.2417,-3.2451,-3.2213,-3.2417,-3.2567,-3.2825,-3.2874,-3.2874,-3.2874,-3.2793,-3.25,-3.1915,-3.1449,-3.119,-3.119,-3.119,-3.119,-3.119,-3.119,-3.119,-3.119,-3.119,-3.119,-3.1151,-3.0838,-3.0576,-3.0351,-2.9951,-2.9711,-2.954,-2.9451,-2.9248,-2.8996,-2.9134,-2.9255,-2.8404,-2.7902,-2.6849,-2.6197,-2.5234,-2.438,-2.4163,-2.3999,-2.3714,-2.3595,-2.3595,-2.3595,-2.3595,-2.3595,-2.3595,-2.3595,-2.3595,-2.3595,-2.3595,-2.3595,-2.3595,-2.3595,-2.3595,-2.3595,-3.8195,-3.7459,-3.6797,-3.6426,-3.6269,-3.6269,-3.6172,-3.6035,-3.6016,-3.6016,-3.6016,-3.6016,-3.6016,-3.6016,-3.6016,-3.5996,-3.5976,-3.5919,-3.5836,-3.5746,-3.565,-3.5604,-3.557,-3.5547,-3.5538,-3.5568,-3.5528,-3.5495,-3.5488,-3.55,-3.55,-3.55,-3.55,-3.55,-3.5453,-3.5335,-3.5198,-3.5096,-3.4926,-3.4783,-3.4643,-3.4453,-3.4159,-3.3915,-3.3876,-3.3881,-3.382,-3.3807,-3.3807,-3.3807,-3.3807,-3.3807,-3.3807,-3.3807,-3.3476,-3.2885,-3.2759,-3.2745,-3.2681,-3.2793,-3.3045,-3.327,-3.3299,-3.3317,-3.3214,-3.3029,-3.2647,-3.195,-3.1432,-3.119,-3.119,-3.119,-3.119,-3.119,-3.119,-3.119,-3.119,-3.119,-3.119,-3.1015,-3.0679,-3.0576,-3.0518,-3.0518,-3.033,-3.0309,-3.0208,-2.9913,-2.9739,-2.9892,-2.9708,-2.8478,-2.7481,-2.619,-2.5386,-2.4769,-2.4111,-2.3849,-2.3789,-2.364,-2.3595,-2.3595,-2.3595,-2.3595,-2.3595,-2.3595,-2.3595,-2.3595,-2.3595,-2.3595,-2.3595,-2.3595,-2.3595,-2.3595,-2.3595,-3.899,-3.8271,-3.8279,-3.7851,-3.7207,-3.7148,-3.6699,-3.6133,-3.6113,-3.6016,-3.6113,-3.6016,-3.6016,-3.6016,-3.6016,-3.6016,-3.5976,-3.5945,-3.5901,-3.5838,-3.5765,-3.5694,-3.5679,-3.569,-3.5655,-3.5653,-3.5601,-3.5544,-3.5515,-3.5501,-3.55,-3.55,-3.55,-3.55,-3.5474,-3.5432,-3.5446,-3.5391,-3.519,-3.4944,-3.4773,-3.4663,-3.4475,-3.4253,-3.4123,-3.4031,-3.3868,-3.3847,-3.3807,-3.3807,-3.3807,-3.3807,-3.3807,-3.3807,-3.3793,-3.368,-3.3606,-3.3508,-3.3243,-3.3346,-3.3508,-3.362,-3.368,-3.3721,-3.3536,-3.2981,-3.2416,-3.188,-3.1432,-3.1213,-3.119,-3.119,-3.119,-3.119,-3.119,-3.119,-3.119,-3.119,-3.119,-3.1171,-3.0918,-3.0975,-3.0995,-3.1015,-3.1015,-3.0995,-3.0898,-3.058,-3.029,-3.0282,-2.9857,-2.8571,-2.7277,-2.601,-2.5075,-2.4383,-2.4019,-2.3668,-2.361,-2.3595,-2.3595,-2.3595,-2.3595,-2.3595,-2.3595,-2.3595,-2.3595,-2.3595,-2.3595,-2.3595,-2.3595,-2.3595,-2.3595,-2.3595,-2.3595,-3.9805,-3.9123,-3.8747,-3.8379,-3.8047,-3.8047,-3.7832,-3.7441,-3.6953,-3.6738,-3.6621,-3.6172,-3.6016,-3.6094,-3.6016,-3.6016,-3.5996,-3.5996,-3.5941,-3.5926,-3.5841,-3.5769,-3.5707,-3.5703,-3.5703,-3.5707,-3.5679,-3.5631,-3.5579,-3.5515,-3.55,-3.55,-3.55,-3.55,-3.55,-3.55,-3.55,-3.5453,-3.5361,-3.5198,-3.4999,-3.4917,-3.4793,-3.4489,-3.4304,-3.4159,-3.4018,-3.3868,-3.382,-3.3807,-3.3807,-3.3807,-3.3807,-3.3807,-3.3807,-3.3807,-3.3793,-3.3707,-3.3611,-3.3721,-3.3793,-3.3807,-3.3807,-3.3793,-3.362,-3.3027,-3.2451,-3.223,-3.1564,-3.1252,-3.119,-3.119,-3.119,-3.119,-3.119,-3.119,-3.119,-3.119,-3.119,-3.119,-3.119,-3.119,-3.119,-3.1171,-3.1131,-3.1095,-3.1058,-3.0905,-3.0429,-3.0021,-2.9406,-2.8465,-2.7171,-2.5874,-2.506,-2.43,-2.4048,-2.3767,-2.361,-2.3595,-2.3595,-2.3595,-2.3595,-2.3595,-2.3595,-2.3595,-2.358,-2.3595,-2.3595,-2.3595,-2.3595,-2.3595,-2.3595,-2.3595,-2.3595,-4.0393,-3.9895,-3.9369,-3.9058,-3.8926,-3.8885,-3.8594,-3.8184,-3.7832,-3.75,-3.7246,-3.6875,-3.6719,-3.666,-3.6738,-3.6699,-3.6348,-3.6309,-3.6133,-3.6022,-3.5914,-3.5862,-3.5828,-3.5792,-3.5792,-3.578,-3.5769,-3.5746,-3.5676,-3.5577,-3.5528,-3.5507,-3.55,-3.55,-3.55,-3.55,-3.55,-3.5481,-3.5474,-3.5369,-3.5231,-3.5187,-3.5034,-3.4803,-3.4563,-3.436,-3.4195,-3.4031,-3.3928,-3.3807,-3.3807,-3.3807,-3.3807,-3.3807,-3.3807,-3.3807,-3.3807,-3.3807,-3.3766,-3.3793,-3.3807,-3.3807,-3.3793,-3.3753,-3.3536,-3.2919,-3.2384,-3.2248,-3.1638,-3.1271,-3.119,-3.119,-3.119,-3.119,-3.119,-3.119,-3.119,-3.119,-3.119,-3.119,-3.119,-3.119,-3.119,-3.119,-3.119,-3.119,-3.1157,-3.1125,-3.0527,-2.9805,-2.8945,-2.8094,-2.7339,-2.6046,-2.4957,-2.4333,-2.4069,-2.3858,-2.3724,-2.3595,-2.3595,-2.3595,-2.3595,-2.3595,-2.355,-2.34,-2.3266,-2.343,-2.3595,-2.3595,-2.3595,-2.3595,-2.3595,-2.3595,-2.3595,-4.067,-4.0627,-4.0617,-4.0277,-3.9784,-3.9688,-3.8795,-3.793,-3.8301,-3.8066,-3.7578,-3.7949,-3.8164,-3.8184,-3.7891,-3.7637,-3.7148,-3.7187,-3.6738,-3.625,-3.5976,-3.6035,-3.5976,-3.5937,-3.5957,-3.5951,-3.5896,-3.5855,-3.5824,-3.5693,-3.5596,-3.5527,-3.5514,-3.5507,-3.55,-3.55,-3.55,-3.55,-3.55,-3.5481,-3.5439,-3.5405,-3.5331,-3.513,-3.5008,-3.4794,-3.4265,-3.4159,-3.4006,-3.3834,-3.3807,-3.3807,-3.3807,-3.3807,-3.3807,-3.3807,-3.3807,-3.3807,-3.3807,-3.3807,-3.3807,-3.3807,-3.3793,-3.368,-3.3465,-3.2887,-3.2366,-3.2039,-3.162,-3.1308,-3.123,-3.119,-3.119,-3.119,-3.119,-3.119,-3.119,-3.119,-3.119,-3.119,-3.119,-3.119,-3.119,-3.119,-3.119,-3.119,-3.0835,-3.0751,-3.0057,-2.933,-2.8471,-2.7738,-2.7342,-2.6286,-2.4896,-2.445,-2.4491,-2.4178,-2.3879,-2.3724,-2.3616,-2.3595,-2.3595,-2.3415,-2.3325,-2.3131,-2.2936,-2.2951,-2.3071,-2.3445,-2.3565,-2.3445,-2.352,-2.3595,-2.3595,-4.061,-4.0697,-4.0648,-4.0563,-4.0447,-4.0483,-4.0146,-3.9597,-3.9453,-3.8906,-3.8164,-3.8437,-3.8301,-3.7969,-3.7793,-3.7656,-3.7305,-3.7285,-3.7031,-3.6934,-3.6777,-3.6484,-3.6269,-3.6035,-3.6016,-3.5996,-3.5976,-3.594,-3.5873,-3.58,-3.5693,-3.5604,-3.5547,-3.5514,-3.55,-3.55,-3.55,-3.55,-3.55,-3.55,-3.55,-3.55,-3.5446,-3.5369,-3.5138,-3.4916,-3.4551,-3.4311,-3.4068,-3.3895,-3.3834,-3.3807,-3.3807,-3.3807,-3.3807,-3.3807,-3.3807,-3.3807,-3.3807,-3.3807,-3.3807,-3.3807,-3.3793,-3.3739,-3.3508,-3.3151,-3.2729,-3.2299,-3.1806,-3.1487,-3.121,-3.119,-3.119,-3.119,-3.119,-3.119,-3.119,-3.119,-3.1055,-3.1004,-3.1106,-3.119,-3.119,-3.119,-3.119,-3.1157,-3.0751,-3.026,-2.9516,-2.8839,-2.8,-2.7491,-2.715,-2.6717,-2.5381,-2.5109,-2.5012,-2.4536,-2.4095,-2.3948,-2.3837,-2.3616,-2.3571,-2.3362,-2.2996,-2.2697,-2.2488,-2.2368,-2.2458,-2.2667,-2.2951,-2.3161,-2.331,-2.3565,-2.3595,-4.0552,-4.063,-4.053,-4.061,-4.0797,-4.0908,-4.0823,-4.0594,-4.0368,-3.998,-3.9355,-3.9121,-3.8691,-3.8203,-3.8125,-3.7695,-3.7598,-3.7539,-3.7305,-3.7012,-3.668,-3.6523,-3.6269,-3.6211,-3.6367,-3.6172,-3.6289,-3.6344,-3.5923,-3.589,-3.5816,-3.5702,-3.5571,-3.5534,-3.55,-3.55,-3.55,-3.55,-3.55,-3.55,-3.55,-3.55,-3.55,-3.546,-3.5312,-3.5113,-3.4822,-3.4561,-3.4242,-3.4012,-3.3881,-3.382,-3.3807,-3.3807,-3.3807,-3.3807,-3.3807,-3.3807,-3.3807,-3.3807,-3.3807,-3.3807,-3.3807,-3.3807,-3.3726,-3.3437,-3.2937,-3.2501,-3.2057,-3.1641,-3.1271,-3.119,-3.119,-3.119,-3.119,-3.119,-3.119,-3.1173,-3.0954,-3.0784,-3.0835,-3.07,-3.0328,-3.0243,-3.0446,-3.0243,-2.96,-2.9178,-2.8738,-2.8112,-2.7536,-2.718,-2.6994,-2.6533,-2.6033,-2.5744,-2.543,-2.4973,-2.4556,-2.4307,-2.4158,-2.3921,-2.3471,-2.3062,-2.2688,-2.2248,-2.1904,-2.162,-2.165,-2.1784,-2.2263,-2.2882,-2.3355,-2.3595,-2.3595,-4.0504,-4.0504,-4.0496,-4.0604,-4.0788,-4.0797,-4.0458,-4.0131,-4.0723,-4.0996,-4.0781,-4.0195,-3.9785,-3.9609,-3.9316,-3.8555,-3.7793,-3.8027,-3.7695,-3.6641,-3.6543,-3.6191,-3.6367,-3.6641,-3.6855,-3.6426,-3.6758,-3.6914,-3.623,-3.6395,-3.6235,-3.5911,-3.5788,-3.5544,-3.5501,-3.55,-3.55,-3.55,-3.55,-3.55,-3.55,-3.55,-3.55,-3.5474,-3.5446,-3.5289,-3.5016,-3.4813,-3.4489,-3.4159,-3.3948,-3.3868,-3.382,-3.3807,-3.3807,-3.3807,-3.3807,-3.3807,-3.3807,-3.3807,-3.3807,-3.3807,-3.3807,-3.3807,-3.3739,-3.3465,-3.3029,-3.2583,-3.2127,-3.1678,-3.1372,-3.119,-3.119,-3.119,-3.119,-3.119,-3.119,-3.0937,-3.0666,-3.0429,-3.0176,-2.9905,-2.9397,-2.9162,-2.9465,-2.9245,-2.8483,-2.8043,-2.7841,-2.7537,-2.708,-2.6979,-2.6843,-2.664,-2.6297,-2.6138,-2.5835,-2.5392,-2.507,-2.4871,-2.4572,-2.4307,-2.3733,-2.2988,-2.2403,-2.2029,-2.1365,-2.0748,-2.0976,-2.1276,-2.2074,-2.2703,-2.3221,-2.3595,-2.3595,-4.0496,-4.0496,-4.0496,-4.0533,-4.0617,-4.0699,-4.0595,-4.0532,-4.0957,-4.1191,-4.1152,-4.084,-4.0371,-3.9941,-3.9277,-3.8691,-3.8262,-3.7559,-3.707,-3.6914,-3.6738,-3.6894,-3.7012,-3.7129,-3.7441,-3.7734,-3.8047,-3.8066,-3.7793,-3.75,-3.7168,-3.6846,-3.6067,-3.5585,-3.5509,-3.55,-3.55,-3.55,-3.55,-3.55,-3.55,-3.55,-3.55,-3.55,-3.55,-3.5376,-3.5138,-3.499,-3.4706,-3.4338,-3.4129,-3.4012,-3.3863,-3.3829,-3.3802,-3.382,-3.3807,-3.3807,-3.3807,-3.3807,-3.3807,-3.3807,-3.3807,-3.3807,-3.378,-3.3707,-3.3225,-3.2697,-3.2349,-3.1896,-3.1389,-3.123,-3.119,-3.119,-3.119,-3.119,-3.1089,-3.0632,-3.026,-3.004,-2.9803,-2.9381,-2.8908,-2.8456,-2.8609,-2.8642,-2.8014,-2.7538,-2.7249,-2.7114,-2.681,-2.681,-2.6725,-2.6657,-2.6504,-2.6367,-2.6209,-2.5854,-2.5617,-2.5468,-2.5144,-2.4792,-2.4118,-2.3394,-2.2571,-2.1774,-2.139,-2.1012,-2.0644,-2.0887,-2.1719,-2.2409,-2.2912,-2.3325,-2.3595,-4.0496,-4.0496,-4.0496,-4.0496,-4.0527,-4.063,-4.0747,-4.0899,-4.1094,-4.1191,-4.1133,-4.0879,-4.0449,-3.9746,-3.9043,-3.8301,-3.8125,-3.7617,-3.6953,-3.6914,-3.6816,-3.6934,-3.7187,-3.7617,-3.8027,-3.8594,-3.8906,-3.8926,-3.8437,-3.8555,-3.8008,-3.7147,-3.6518,-3.6008,-3.5728,-3.5522,-3.55,-3.55,-3.55,-3.55,-3.55,-3.55,-3.55,-3.55,-3.5467,-3.5405,-3.5273,-3.5105,-3.4925,-3.4576,-3.4371,-3.423,-3.4031,-3.3935,-3.3889,-3.3842,-3.3807,-3.3807,-3.3807,-3.3807,-3.3807,-3.3807,-3.3807,-3.3807,-3.3807,-3.378,-3.3404,-3.2965,-3.2631,-3.2109,-3.1564,-3.1391,-3.119,-3.119,-3.0937,-3.092,-3.0666,-3.0192,-2.9516,-2.933,-2.9079,-2.8706,-2.8387,-2.8032,-2.7809,-2.7725,-2.7606,-2.7198,-2.686,-2.6759,-2.6708,-2.6708,-2.6708,-2.6657,-2.6641,-2.6624,-2.647,-2.6279,-2.6122,-2.5979,-2.5707,-2.5319,-2.4586,-2.3899,-2.3293,-2.2655,-2.1901,-2.1415,-2.1181,-2.1137,-2.1452,-2.2079,-2.2589,-2.2921,-2.3251,-4.0496,-4.0496,-4.0496,-4.0496,-4.0527,-4.063,-4.0809,-4.1012,-4.1149,-4.1191,-4.1152,-4.041,-4.0176,-3.9883,-3.9082,-3.8398,-3.7734,-3.75,-3.6914,-3.6387,-3.6328,-3.6738,-3.748,-3.8125,-3.8672,-3.9023,-3.9414,-3.9668,-3.8848,-3.8867,-3.834,-3.7518,-3.7121,-3.646,-3.5906,-3.5575,-3.5522,-3.5494,-3.55,-3.55,-3.55,-3.55,-3.55,-3.55,-3.5474,-3.5467,-3.5376,-3.5266,-3.513,-3.4944,-3.4822,-3.4551,-3.4345,-3.4211,-3.4043,-3.3902,-3.3842,-3.3807,-3.3807,-3.3807,-3.3807,-3.3807,-3.3807,-3.3807,-3.3807,-3.3793,-3.3508,-3.3103,-3.2727,-3.2281,-3.1843,-3.1507,-3.119,-3.0903,-3.0531,-3.0345,-3.0108,-2.9533,-2.8755,-2.835,-2.8098,-2.7794,-2.752,-2.7226,-2.7615,-2.7598,-2.7585,-2.7341,-2.7022,-2.6759,-2.6708,-2.6708,-2.6708,-2.6708,-2.6708,-2.6708,-2.6657,-2.647,-2.6505,-2.6384,-2.6139,-2.5801,-2.5155,-2.4572,-2.4196,-2.3449,-2.2226,-2.1814,-2.1855,-2.1843,-2.1646,-2.1794,-2.2313,-2.2433,-2.2727,-4.0496,-4.0496,-4.0496,-4.0496,-4.0527,-4.0649,-4.0752,-4.087,-4.1094,-4.1191,-4.1191,-4.0957,-4.0703,-4.0742,-3.9922,-3.9375,-3.8711,-3.7988,-3.7344,-3.6797,-3.6309,-3.709,-3.7832,-3.8574,-3.9297,-4.0098,-4.0566,-4.0566,-4.0312,-3.9902,-3.9062,-3.8317,-3.76,-3.6781,-3.6086,-3.5645,-3.5587,-3.5521,-3.5501,-3.55,-3.55,-3.55,-3.55,-3.55,-3.55,-3.55,-3.5453,-3.5424,-3.5297,-3.5105,-3.5025,-3.4841,-3.4612,-3.454,-3.4412,-3.4099,-3.3954,-3.3807,-3.3807,-3.3807,-3.3807,-3.3807,-3.3807,-3.3807,-3.3807,-3.3766,-3.3625,-3.327,-3.2856,-3.2433,-3.1986,-3.1603,-3.1329,-3.099,-3.0497,-2.9973,-2.9634,-2.8821,-2.8095,-2.7809,-2.7521,-2.7483,-2.7133,-2.7472,-2.783,-2.776,-2.7634,-2.7454,-2.7225,-2.6989,-2.6742,-2.6725,-2.6708,-2.6708,-2.6708,-2.6708,-2.6708,-2.6674,-2.6674,-2.6674,-2.647,-2.6107,-2.565,-2.5181,-2.4726,-2.3541,-2.2093,-2.211,-2.2638,-2.1991,-2.1744,-2.1839,-2.1949,-2.2188,-2.2547,-4.0496,-4.0496,-4.0496,-4.0496,-4.0527,-4.0649,-4.0715,-4.0799,-4.0955,-4.1076,-4.1105,-4.1016,-4.1077,-4.0937,-4.0176,-3.9551,-3.9121,-3.793,-3.709,-3.6543,-3.6582,-3.7461,-3.8242,-3.9023,-3.9922,-4.0781,-4.1191,-4.1055,-4.1035,-4.0684,-3.9902,-3.8574,-3.791,-3.7031,-3.622,-3.5759,-3.5674,-3.5587,-3.5515,-3.5494,-3.55,-3.55,-3.55,-3.55,-3.55,-3.55,-3.55,-3.55,-3.5391,-3.5281,-3.5246,-3.5122,-3.4879,-3.4754,-3.454,-3.4242,-3.4074,-3.3915,-3.3842,-3.3807,-3.3807,-3.3807,-3.3807,-3.3807,-3.3807,-3.3793,-3.3666,-3.3447,-3.3027,-3.2598,-3.2144,-3.1732,-3.1468,-3.1213,-3.0465,-2.9702,-2.8941,-2.8146,-2.7706,-2.7419,-2.7315,-2.7333,-2.747,-2.7833,-2.8084,-2.8088,-2.8034,-2.7862,-2.7607,-2.7341,-2.6973,-2.6758,-2.6725,-2.6708,-2.6708,-2.6708,-2.6708,-2.6708,-2.6708,-2.6674,-2.6641,-2.6488,-2.6109,-2.5657,-2.5202,-2.4225,-2.3497,-2.3305,-2.3437,-2.2788,-2.2254,-2.2264,-2.2349,-2.2358,-2.2772,-4.0496,-4.0496,-4.0496,-4.0496,-4.0519,-4.063,-4.0686,-4.0709,-4.0757,-4.0857,-4.095,-4.0844,-4.0883,-4.083,-4.0278,-3.9595,-3.9023,-3.8047,-3.7187,-3.6191,-3.6855,-3.7695,-3.8555,-3.9453,-4.0234,-4.0879,-4.1191,-4.1191,-4.1191,-4.0898,-4.0156,-3.8711,-3.8516,-3.7617,-3.6151,-3.5892,-3.5781,-3.5691,-3.5574,-3.5515,-3.5494,-3.55,-3.55,-3.55,-3.55,-3.55,-3.55,-3.55,-3.55,-3.55,-3.5453,-3.5327,-3.5138,-3.4898,-3.4614,-3.4423,-3.4323,-3.4099,-3.3974,-3.3915,-3.3842,-3.3829,-3.3807,-3.3807,-3.3807,-3.3807,-3.3707,-3.3606,-3.324,-3.2934,-3.255,-3.1951,-3.1551,-3.0914,-3.0122,-2.9353,-2.8569,-2.7807,-2.7216,-2.7096,-2.7385,-2.7426,-2.7634,-2.7988,-2.8464,-2.8464,-2.8425,-2.829,-2.7946,-2.7642,-2.7214,-2.6825,-2.6742,-2.6691,-2.6708,-2.6708,-2.6708,-2.6708,-2.6708,-2.6708,-2.6674,-2.6641,-2.6624,-2.604,-2.5475,-2.5865,-2.5543,-2.4917,-2.4209,-2.3842,-2.3332,-2.2934,-2.281,-2.2739,-2.2957,-4.0496,-4.0496,-4.0496,-4.0496,-4.0496,-4.0523,-4.061,-4.0686,-4.0604,-4.0685,-4.0805,-4.0809,-4.0805,-4.0756,-4.0601,-4.0026,-3.9316,-3.8301,-3.7754,-3.7187,-3.7285,-3.7851,-3.8672,-3.9609,-4.0391,-4.0937,-4.1191,-4.1191,-4.1191,-4.0996,-4.0371,-3.8809,-3.8555,-3.7695,-3.6089,-3.5922,-3.5864,-3.5788,-3.5672,-3.5562,-3.5528,-3.5501,-3.55,-3.55,-3.55,-3.55,-3.55,-3.55,-3.55,-3.55,-3.55,-3.5453,-3.541,-3.5157,-3.499,-3.4851,-3.4665,-3.4412,-3.4195,-3.408,-3.3999,-3.385,-3.3802,-3.382,-3.3807,-3.3807,-3.3766,-3.3666,-3.3522,-3.3258,-3.2887,-3.2246,-3.1511,-3.0657,-2.981,-2.9054,-2.8284,-2.7538,-2.6809,-2.7068,-2.7441,-2.7648,-2.7851,-2.821,-2.8688,-2.8851,-2.8881,-2.8694,-2.8223,-2.7841,-2.7332,-2.6953,-2.6758,-2.6708,-2.6691,-2.6708,-2.6708,-2.6708,-2.6708,-2.6708,-2.6708,-2.659,-2.647,-2.6086,-2.5817,-2.6104,-2.6035,-2.5422,-2.4808,-2.4588,-2.4126,-2.3631,-2.3375,-2.3305,-2.3398,-4.0285,-3.9977,-3.9977,-4.0189,-4.0458,-4.0496,-4.0537,-4.0575,-4.0523,-4.0575,-4.0657,-4.0674,-4.0687,-4.0631,-4.0523,-4.0294,-3.9513,-3.8473,-3.7754,-3.7402,-3.7734,-3.8144,-3.8906,-3.9844,-4.0566,-4.1152,-4.1191,-4.1191,-4.1191,-4.1035,-4.0371,-3.8887,-3.8496,-3.7773,-3.625,-3.5957,-3.5918,-3.5878,-3.5759,-3.5685,-3.5596,-3.5534,-3.5501,-3.55,-3.55,-3.55,-3.55,-3.55,-3.55,-3.55,-3.55,-3.55,-3.5453,-3.5335,-3.5215,-3.5088,-3.4907,-3.4754,-3.4508,-3.43,-3.4171,-3.4031,-3.3829,-3.3834,-3.3807,-3.3807,-3.3807,-3.3721,-3.3707,-3.3462,-3.3199,-3.2661,-3.1757,-3.0872,-3.0124,-2.9376,-2.8432,-2.7524,-2.7289,-2.7487,-2.7754,-2.788,-2.8129,-2.8489,-2.8875,-2.894,-2.8994,-2.8851,-2.8422,-2.8018,-2.7499,-2.7079,-2.6873,-2.6741,-2.6691,-2.6708,-2.6708,-2.6708,-2.6657,-2.6708,-2.6674,-2.6505,-2.628,-2.6175,-2.6104,-2.6157,-2.5964,-2.5672,-2.5524,-2.5341,-2.4803,-2.4225,-2.4012,-2.3767,-2.3681,-4.0112,-3.9496,-3.9361,-3.9765,-4.0439,-4.0496,-4.0496,-4.0504,-4.0496,-4.0496,-4.0508,-4.0508,-4.0588,-4.0409,-4.012,-3.9864,-3.9349,-3.8452,-3.7754,-3.7793,-3.8242,-3.8633,-3.9375,-4.0312,-4.0898,-4.1152,-4.1191,-4.1191,-4.1191,-4.1055,-4.041,-3.8984,-3.8262,-3.7754,-3.6523,-3.5996,-3.5954,-3.5921,-3.5849,-3.5829,-3.571,-3.5579,-3.5534,-3.5509,-3.5494,-3.5488,-3.55,-3.55,-3.55,-3.55,-3.55,-3.55,-3.55,-3.5453,-3.5369,-3.5231,-3.5171,-3.4999,-3.4784,-3.4542,-3.4412,-3.423,-3.3986,-3.3868,-3.3855,-3.382,-3.382,-3.3752,-3.3707,-3.3497,-3.3208,-3.2712,-3.1781,-3.0822,-3.0121,-2.9445,-2.8448,-2.7595,-2.7728,-2.7869,-2.7996,-2.8134,-2.8386,-2.8761,-2.8922,-2.8975,-2.891,-2.8743,-2.8504,-2.8147,-2.7713,-2.7278,-2.6987,-2.6857,-2.6725,-2.6657,-2.6657,-2.6556,-2.6522,-2.6624,-2.6674,-2.6573,-2.6522,-2.6607,-2.6556,-2.6436,-2.6401,-2.621,-2.6122,-2.5908,-2.5486,-2.4875,-2.4266,-2.4012,-2.3773,-4.0419,-4.0227,-3.9592,-3.9765,-4.0439,-4.0496,-4.0496,-4.0496,-4.0496,-4.0496,-4.0496,-4.0496,-4.0515,-4.0533,-4.0616,-4.0337,-3.9652,-3.8652,-3.8418,-3.8476,-3.8672,-3.9082,-3.9726,-4.0586,-4.1055,-4.1191,-4.1191,-4.1191,-4.1191,-4.1113,-4.0332,-3.8711,-3.8613,-3.7773,-3.6328,-3.5996,-3.5996,-3.5957,-3.5919,-3.588,-3.5829,-3.5702,-3.5586,-3.5562,-3.5515,-3.5515,-3.55,-3.55,-3.55,-3.55,-3.55,-3.55,-3.55,-3.55,-3.5439,-3.5391,-3.535,-3.5239,-3.5034,-3.4879,-3.4745,-3.4489,-3.4272,-3.4056,-3.3999,-3.3855,-3.3768,-3.355,-3.3408,-3.3023,-3.2657,-3.2071,-3.1252,-3.0216,-2.9368,-2.8845,-2.8099,-2.7883,-2.7926,-2.8047,-2.8183,-2.829,-2.8451,-2.8761,-2.8998,-2.9051,-2.9044,-2.888,-2.8767,-2.8353,-2.7864,-2.7502,-2.7114,-2.6873,-2.6708,-2.6607,-2.6556,-2.6436,-2.6384,-2.6453,-2.6573,-2.6708,-2.6708,-2.6708,-2.6708,-2.6624,-2.659,-2.6539,-2.6367,-2.6139,-2.6015,-2.5561,-2.4855,-2.4369,-2.422]},{"header":{"parameterUnit":"m.s-1","parameterCategory":1,"la1":31.0,"la2":29.5877,"lo1":-88.7671,"lo2":-86.6584,"dy":0.0162,"dx":0.0185,"nx":115,"ny":88,"refTime":"2024-07-07T06:00:00:Z","depth":0,"parameterNumber":3,"parameterNumberName":"V-component_of_WINDS"},"data":[0.0,0.0,0.0,0.0,0.0,0.0,0.0,0.0,0.0,0.0,0.0,0.0,0.0,0.0,0.0,0.0,0.0,0.0,0.0,0.0,0.0,0.0,0.0,0.0,0.0,0.0,0.0,0.0,0.0,0.0,0.0,0.0,0.0,0.0,0.0,0.0,0.0,0.0,0.0,0.0,0.0,0.0,0.0,0.0,0.0,0.0,0.0,0.0,0.0,0.0,0.0,0.0,0.0,0.0,0.0,0.0,0.0,0.0,0.0,0.0,0.0,0.0,0.0,0.0,0.0,0.0,0.0,0.0,0.0,0.0,0.0,0.0,0.0,0.0,0.0,0.0,0.0,0.0,0.0,0.0,0.0,0.0,0.0,0.0,0.0,0.0,0.0,0.0,0.0,0.0,0.0,0.0,0.0,0.0,0.0,0.0,0.0,0.0,0.0,0.0,0.0,0.0,0.0,0.0,0.0,0.0,0.0,0.0,0.0,0.0,0.0,0.0,0.0,0.0,0.0,0.0,0.0,0.0,0.0,0.0,0.0,0.0,0.0,0.0,0.0,0.0,0.0,0.0,0.0,0.0,0.0,0.0,0.0,0.0,0.0,0.0,0.0,0.0,0.0,0.0,0.0,0.0,0.0,0.0,0.0,0.0,0.0,0.0,0.0,0.0,0.0,0.0,0.0,0.0,0.0,0.0,0.0,0.0,0.0,0.0,0.0,0.0,0.0,0.0,0.0,0.0,0.0,0.0,0.0,0.0,0.0,0.0,0.0,0.0,0.0,0.0,0.0,0.0,0.0,0.0,0.0,0.0,0.0,0.0,0.0,0.0,0.0,0.0,0.0,0.0,0.0,0.0,0.0,0.0,0.0,0.0,0.0,0.0,0.0,0.0,0.0,0.0,0.0,0.0,0.0,0.0,0.0,0.0,0.0,0.0,0.0,0.0,0.0,0.0,0.0,0.0,0.0,0.0,0.0,0.0,0.0,0.0,0.0,0.0,0.0,0.0,0.0,0.0,0.0,0.0,0.0,0.0,0.0,0.0,0.0,0.0,0.0,0.0,0.0,0.0,0.0,0.0,0.0,0.0,0.0,0.0,0.0,0.0,0.0,0.0,0.0,0.0,0.0,0.0,0.0,0.0,0.0,0.0,0.0,0.0,0.0,0.0,0.0,0.0,0.0,0.0,0.0,0.0,0.0,0.0,0.0,0.0,0.0,0.0,0.0,0.0,0.0,0.0,0.0,0.0,0.0,0.0,0.0,0.0,0.0,0.0,0.0,0.0,0.0,0.0,0.0,0.0,0.0,0.0,0.0,0.0,0.0,0.0,0.0,0.0,0.0,0.0,0.0,0.0,0.0,0.0,0.0,0.0,0.0,0.0,0.0,0.0,0.0,0.0,0.0,0.0,0.0,0.0,0.0,0.0,0.0,0.0,0.0,0.0,0.0,0.0,0.0,0.0,0.0,0.0,0.0,0.0,0.0,0.0,0.0,0.0,0.0,0.0,0.0,0.0,0.0,0.0,0.0,0.0,0.0,0.0,0.0,0.0,0.0,0.0,0.0,0.0,0.0,0.0,0.0,0.0,0.0,0.0,0.0,0.0,0.0,0.0,0.0,0.0,0.0,0.0,0.0,0.0,0.0,0.0,0.0,0.0,0.0,0.0,0.0,0.0,0.0,0.0,0.0,0.0,0.0,0.0,0.0,0.0,0.0,0.0,0.0,0.0,0.0,0.0,0.0,0.0,0.0,0.0,0.0,0.0,0.0,0.0,0.0,0.0,0.0,0.0,0.0,0.0,0.0,0.0,0.0,0.0,0.0,0.0,0.0,0.0,0.0,0.0,0.0,0.0,0.0,0.0,0.0,0.0,0.0,0.0,0.0,0.0,0.0,0.0,0.0,0.0,0.0,0.0,0.0,0.0,0.0,0.0,0.0,0.0,0.0,0.0,0.0,0.0,0.0,0.0,0.0,0.0,0.0,0.0,0.0,0.0,0.0,0.0,0.0,0.0,0.0,0.0,0.0,0.0,0.0,0.0,0.0,0.0,0.0,0.0,0.0,0.0,0.0,0.0,0.0,0.0,0.0,0.0,0.0,0.0,0.0,0.0,0.0,0.0,0.0,0.0,0.0,0.0,0.0,0.0,0.0,0.0,0.0,0.0,0.0,0.0,0.0,0.0,0.0,0.0,0.0,0.0,0.0,0.0,0.0,0.0,0.0,0.0,0.0,0.0,0.0,0.0,0.0,0.0,0.0,0.0,0.0,0.0,0.0,0.0,0.0,0.0,0.0,0.0,0.0,0.0,0.0,0.0,0.0,0.0,0.0,0.0,0.0,0.0,0.0,0.0,0.0,0.0,0.0,0.0,0.0,0.0,0.0,0.0,0.0,0.0,0.0,0.0,0.0,0.0,0.0,0.0,0.0,0.0,0.0,0.0,0.0,0.0,0.0,0.0,0.0,0.0,0.0,0.0,0.0,0.0,0.0,0.0,0.0,0.0,0.0,0.0,0.0,0.0,0.0,0.0,0.0,0.0,0.0,0.0,0.0,0.0,0.0,0.0,0.0,0.0,0.0,0.0,0.0,0.0,0.0,0.0,0.0,0.0,0.0,0.0,0.0,0.0,0.0,0.0,0.0,0.0,0.0,0.0,0.0,0.0,0.0,0.0,0.0,0.0,0.0,0.0,0.0,0.0,0.0,0.0,0.0,0.0,0.0,0.0,0.0,0.0,0.0,0.0,0.0,0.0,0.0,0.0,0.0,0.0,0.0,0.0,0.0,0.0,0.0,0.0,0.0,0.0,0.0,0.0,0.0,0.0,0.0,0.0,0.0,0.0,0.0,0.0,0.0,0.0,0.0,0.0,0.0,0.0,0.0,0.0,0.0,0.0,0.0,0.0,0.0,0.0,0.0,0.0,0.0,0.0,0.0,0.0,0.0,0.0,0.0,0.0,0.0,0.0,0.0,0.0,0.0,0.0,0.0,0.0,0.0,0.0,0.0,0.0,0.0,0.0,0.0,0.0,0.0,0.0,0.0,0.0,0.0,0.0,0.0,0.0,0.0,0.0,0.0,0.0,0.0,0.0,0.0,0.0,0.0,0.0,0.0,0.0,0.0,0.0,0.0,0.0,0.0,0.0,0.0,0.0,0.0,0.0,0.0,0.0,0.0,0.0,0.0,0.0,0.0,0.0,0.0,0.0,0.0,0.0,0.0,0.0,0.0,0.0,0.0,0.0,0.0,0.0,0.0,0.0,0.0,0.0,0.0,0.0,0.0,0.0,0.0,0.0,0.0,0.0,0.0,0.0,0.0,0.0,0.0,0.0,0.0,0.0,0.0,0.0,0.0,0.0,0.0,0.0,0.0,0.0,0.0,0.0,0.0,0.0,0.0,0.0,0.0,0.0,0.0,0.0,0.0,0.0,0.0,0.0,0.0,0.0,0.0,0.0,0.0,0.0,0.0,0.0,0.0,0.0,0.0,0.0,0.0,0.0,0.0,0.0,0.0,0.0,0.0,0.0,0.0,0.0,0.0,0.0,0.0,0.0,0.0,0.0,0.0,0.0,0.0,0.0,0.0,0.0,0.0,0.0,0.0,0.0,0.0,0.0,0.0,0.0,0.0,0.0,0.0,0.0,0.0,0.0,0.0,0.0,0.0,0.0,0.0,0.0,0.0,0.0,0.0,0.0,0.0,0.0,0.0,0.0,0.0,0.0,0.0,0.0,0.0,0.0,0.0,0.0,0.0,0.0,0.0,0.0,0.0,0.0,0.0,0.0,0.0,0.0,0.0,0.0,0.0,0.0,0.0,0.0,0.0,0.0,0.0,0.0,0.0,0.0,0.0,0.0,0.0,0.0,0.0,0.0,0.0,0.0,0.0,0.0,0.0,0.0,0.0,0.0,0.0,0.0,0.0,0.0,0.0,0.0,0.0,0.0,0.0,0.0,0.0,0.0,0.0,0.0,0.0,0.0,0.0,0.0,0.0,0.0,0.0,0.0,0.0,0.0,0.0,0.0,0.0,0.0,0.0,0.0,0.0,0.0,0.0,0.0,0.0,0.0,0.0,0.0,0.0,0.0,0.0,0.0,0.0,0.0,0.0,0.0,0.0,0.0,0.0,0.0,0.0,0.0,0.0,0.0,0.0,0.0,0.0,0.0,0.0,0.0,0.0,0.0,0.0,0.0,0.0,0.0,0.0,0.0,0.0,0.0,0.0,0.0,0.0,0.0,0.0,0.0,0.0,0.0,0.0,0.0,0.0,0.0,0.0,0.0,0.0,0.0,0.0,0.0,-1.014,0.0,0.0,0.0,0.0,0.0,0.0,0.0,0.0,0.0,0.0,0.0,0.0,0.0,0.0,0.0,0.0,0.0,0.0,0.0,0.0,0.0,0.0,0.0,0.0,0.0,0.0,0.0,0.0,0.0,0.0,0.0,0.0,0.0,0.0,0.0,0.0,0.0,0.0,0.0,0.0,0.0,0.0,0.0,0.0,0.0,0.0,0.0,0.0,0.0,0.0,0.0,0.0,0.0,0.0,0.0,0.0,0.0,0.0,0.0,0.0,0.0,0.0,0.0,0.0,0.0,0.0,0.0,0.0,0.0,0.0,0.0,0.0,0.0,0.0,0.0,0.0,0.0,0.0,0.0,0.0,0.0,0.0,0.0,0.0,0.0,0.0,0.0,0.0,0.0,0.0,0.0,0.0,0.0,0.0,0.0,0.0,0.0,0.0,0.0,0.0,0.0,0.0,0.0,0.0,0.0,0.0,0.0,0.0,0.0,0.0,-0.7787,-0.9144,-0.953,-0.994,-1.0374,0.0,0.0,0.0,0.0,0.0,0.0,0.0,0.0,0.0,0.0,0.0,0.0,0.0,0.0,0.0,0.0,0.0,0.0,0.0,0.0,0.0,0.0,0.0,0.0,0.0,0.0,0.0,0.0,0.0,0.0,0.0,0.0,0.0,0.0,0.0,0.0,0.0,0.0,0.0,0.0,0.0,0.0,0.0,0.0,0.0,0.0,0.0,0.0,0.0,0.0,0.0,0.0,0.0,0.0,0.0,0.0,0.0,0.0,0.0,0.0,0.0,0.0,0.0,0.0,0.0,0.0,0.0,0.0,0.0,0.0,0.0,0.0,0.0,0.0,0.0,0.0,0.0,0.0,0.0,0.0,0.0,0.0,0.0,0.0,0.0,0.0,0.0,0.0,0.0,0.0,0.0,0.0,0.0,0.0,0.0,0.0,0.0,0.0,0.0,0.0,0.0,0.0,0.0,0.0,0.0,0.0,0.0,0.0,0.0,0.0,0.0,0.0,-0.9376,-1.026,-1.1107,0.0,0.0,0.0,0.0,0.0,0.0,0.0,0.0,0.0,0.0,0.0,0.0,0.0,0.0,0.0,0.0,0.0,0.0,0.0,0.0,0.0,0.0,0.0,0.0,0.0,0.0,0.0,0.0,0.0,0.0,0.0,0.0,0.0,0.0,0.0,0.0,0.0,0.0,0.0,0.0,0.0,0.0,0.0,0.0,0.0,0.0,0.0,0.0,0.0,0.0,0.0,0.0,0.0,0.0,0.0,0.0,0.0,0.0,0.0,0.0,0.0,0.0,0.0,0.0,0.0,0.0,0.0,0.0,0.0,0.0,0.0,0.0,0.0,0.0,0.0,0.0,0.0,0.0,0.0,0.0,0.0,0.0,0.0,0.0,0.0,0.0,0.0,0.0,0.0,0.0,0.0,0.0,0.0,0.0,0.0,0.0,0.0,0.0,0.0,0.0,0.0,0.0,0.0,0.0,0.0,0.0,0.0,0.0,0.0,0.0,-0.587,-0.8165,-0.9198,0.0,-1.2594,0.0,0.0,0.0,0.0,0.0,0.0,0.0,0.0,0.0,0.0,0.0,0.0,0.0,0.0,0.0,0.0,0.0,0.0,0.0,0.0,0.0,0.0,0.0,0.0,0.0,0.0,0.0,0.0,0.0,0.0,0.0,0.0,0.0,0.0,0.0,0.0,0.0,0.0,0.0,0.0,0.0,0.0,0.0,0.0,0.0,0.0,0.0,0.0,0.0,0.0,0.0,0.0,0.0,0.0,0.0,0.0,0.0,0.0,0.0,0.0,0.0,0.0,0.0,0.0,0.0,0.0,0.0,0.0,0.0,0.0,0.0,0.0,0.0,0.0,0.0,0.0,0.0,0.0,0.0,0.0,0.0,0.0,0.0,0.0,0.0,0.0,0.0,0.0,0.0,0.0,0.0,0.0,0.0,0.0,0.0,0.0,0.0,0.0,0.0,0.0,0.0,0.0,0.0,0.0,0.0,0.0,0.0,0.0,0.0,0.0,-0.5845,-0.816,-0.9453,-1.1033,0.0,0.0,0.0,0.0,0.0,0.0,0.0,0.0,0.0,0.0,0.0,0.0,0.0,0.0,0.0,0.0,0.0,0.0,0.0,0.0,0.0,0.0,0.0,0.0,0.0,0.0,0.0,0.0,0.0,0.0,0.0,0.0,0.0,0.0,0.0,0.0,0.0,0.0,0.0,0.0,0.0,0.0,0.0,0.0,0.0,0.0,0.0,0.0,0.0,0.0,0.0,0.0,0.0,0.0,0.0,0.0,0.0,0.0,0.0,0.0,0.0,0.0,0.0,0.0,0.0,0.0,0.0,0.0,0.0,0.0,0.0,0.0,0.0,0.0,0.0,0.0,0.0,0.0,0.0,0.0,0.0,0.0,0.0,0.0,0.0,0.0,0.0,0.0,0.0,0.0,0.0,0.0,0.0,0.0,0.0,0.0,0.0,0.0,0.0,0.0,0.0,0.0,0.0,0.0,0.0,0.0,0.0,0.0,0.0,0.0,-0.4433,-0.5908,-0.8737,-0.9942,-1.1372,-1.3065,0.0,0.0,0.0,0.0,0.0,0.0,0.0,0.0,0.0,0.0,0.0,0.0,0.0,0.0,0.0,0.0,0.0,0.0,0.0,0.0,0.0,0.0,0.0,0.0,0.0,0.0,0.0,0.0,0.0,0.0,0.0,0.0,0.0,0.0,0.0,0.0,0.0,0.0,0.0,0.0,0.0,0.0,0.0,0.0,0.0,0.0,0.0,0.0,0.0,0.0,0.0,0.0,0.0,0.0,0.0,0.0,0.0,0.0,0.0,0.0,0.0,0.0,0.0,0.0,0.0,0.0,0.0,0.0,0.0,0.0,0.0,0.0,0.0,0.0,0.0,0.0,0.0,0.0,0.0,0.0,0.0,0.0,0.0,0.0,0.0,0.0,0.0,0.0,0.0,0.0,0.0,0.0,0.0,0.0,0.0,0.0,0.0,0.0,0.0,0.0,0.0,0.0,0.0,0.0,0.0,0.0,0.0,0.0,-0.3289,-0.359,-0.5864,-1.0307,-1.0818,-1.1768,0.0,0.0,0.0,0.0,0.0,0.0,0.0,0.0,0.0,0.0,0.0,0.0,0.0,0.0,0.0,0.0,0.0,0.0,0.0,0.0,0.0,0.0,0.0,0.0,0.0,0.0,0.0,0.0,0.0,0.0,0.0,0.0,0.0,0.0,0.0,0.0,0.0,0.0,0.0,0.0,0.0,0.0,0.0,0.0,0.0,0.0,0.0,0.0,0.0,0.0,0.0,0.0,0.0,0.0,0.0,0.0,0.0,0.0,0.0,0.0,0.0,0.0,0.0,0.0,0.0,0.0,0.0,0.0,0.0,0.0,0.0,0.0,0.0,0.0,0.0,0.0,0.0,0.0,0.0,0.0,0.0,0.0,0.0,0.0,0.0,0.0,0.0,0.0,0.0,0.0,0.0,0.0,0.0,0.0,0.0,0.0,0.0,0.0,0.0,0.0,0.0,0.0,0.0,0.0,0.0,0.0,0.0,0.0,0.0,-0.2271,-0.3865,-0.6867,-1.105,-1.0344,-1.1101,0.0,0.0,0.0,0.0,0.0,0.0,0.0,0.0,0.0,0.0,0.0,0.0,0.0,0.0,0.0,0.0,0.0,0.0,0.0,0.0,0.0,0.0,0.0,0.0,0.0,0.0,0.0,0.0,0.0,0.0,0.0,0.0,0.0,0.0,0.0,0.0,0.0,0.0,0.0,0.0,0.0,0.0,0.0,0.0,0.0,0.0,0.0,0.0,0.0,0.0,0.0,0.0,0.0,0.0,0.0,0.0,0.0,0.0,0.0,0.0,0.0,0.0,0.0,0.0,0.0,0.0,0.0,0.0,0.0,0.0,0.0,0.0,0.0,0.0,0.0,0.0,0.0,0.0,0.0,0.0,0.0,0.0,0.0,0.0,0.0,0.0,0.0,0.0,0.0,0.0,0.0,0.0,0.0,0.0,0.0,0.0,0.0,0.0,0.0,0.0,0.0,0.0,0.0,0.0,0.0,0.0,0.0,0.0,0.0,-0.2413,0.0,-0.6712,-1.0485,-0.9921,-1.0726,0.0,0.0,0.0,0.0,0.0,0.0,0.0,0.0,0.0,0.0,0.0,0.0,0.0,0.0,0.0,0.0,0.0,0.0,0.0,0.0,0.0,0.0,0.0,0.0,0.0,0.0,0.0,0.0,0.0,0.0,0.0,0.0,0.0,0.0,0.0,0.0,0.0,0.0,0.0,0.0,0.0,0.0,0.0,0.0,0.0,0.0,0.0,0.0,0.0,0.0,0.0,0.0,0.0,0.0,0.0,0.0,0.0,0.0,0.0,0.0,0.0,0.0,0.0,0.0,0.0,0.0,0.0,0.0,0.0,0.0,0.0,0.0,0.0,0.0,0.0,0.0,0.0,0.0,0.0,0.0,0.0,0.0,0.0,0.0,0.0,0.0,0.0,0.0,0.0,0.0,0.0,0.0,0.0,0.0,0.0,0.0,0.0,0.0,0.0,0.0,0.0,0.0,0.0,0.0,0.0,0.0,0.0,0.0,-0.32,-0.3905,-0.38,-0.5424,-0.86,-0.9677,-1.064,0.0,0.0,0.0,0.0,0.0,0.0,0.0,0.0,0.0,0.0,0.0,0.0,0.0,0.0,0.0,0.0,0.0,0.0,0.0,0.0,0.0,0.0,0.0,0.0,0.0,0.0,0.0,0.0,0.0,0.0,0.0,0.0,0.0,0.0,0.0,0.0,0.0,0.0,0.0,0.0,0.0,0.0,0.0,0.0,0.0,0.0,0.0,0.0,0.0,0.0,0.0,0.0,0.0,0.0,0.0,0.0,0.0,0.0,0.0,0.0,0.0,0.0,0.0,0.0,0.0,0.0,0.0,0.0,0.0,0.0,0.0,0.0,0.0,0.0,0.0,0.0,0.0,0.0,0.0,0.0,0.0,0.0,0.0,0.0,0.0,0.0,0.0,0.0,0.0,0.0,0.0,0.0,0.0,0.0,0.0,0.0,0.0,0.0,0.0,0.0,0.0,0.0,0.0,0.0,0.0,0.0,0.0,0.0,0.0,-0.3841,-0.4684,-0.649,-0.9284,-0.9628,-1.0356,0.0,0.0,0.0,0.0,0.0,0.0,0.0,0.0,0.0,0.0,0.0,0.0,0.0,0.0,0.0,0.0,0.0,0.0,0.0,0.0,0.0,0.0,0.0,0.0,0.0,0.0,0.0,0.0,0.0,0.0,0.0,0.0,0.0,0.0,0.0,0.0,0.0,0.0,0.0,0.0,0.0,0.0,0.0,0.0,0.0,0.0,0.0,0.0,0.0,0.0,0.0,0.0,0.0,0.0,0.0,0.0,0.0,0.0,0.0,0.0,0.0,0.0,0.0,0.0,0.0,0.0,0.0,0.0,0.0,0.0,0.0,0.0,0.0,0.0,0.0,0.0,0.0,0.0,0.0,0.0,0.0,0.0,0.0,0.0,0.0,0.0,0.0,0.0,0.0,0.0,0.0,0.0,0.0,0.0,0.0,0.0,0.0,0.0,0.0,0.0,0.0,0.0,0.0,0.0,0.0,0.0,0.0,0.0,0.0,-0.386,-0.5176,-0.6875,-0.8958,-0.9471,-1.0273,-1.1278,0.0,0.0,0.0,0.0,0.0,0.0,0.0,0.0,0.0,0.0,0.0,0.0,0.0,0.0,0.0,0.0,0.0,0.0,0.0,0.0,0.0,0.0,0.0,0.0,0.0,0.0,0.0,0.0,0.0,0.0,0.0,0.0,0.0,0.0,0.0,0.0,0.0,0.0,0.0,0.0,0.0,0.0,0.0,0.0,0.0,0.0,0.0,0.0,0.0,0.0,0.0,0.0,0.0,0.0,0.0,0.0,0.0,0.0,0.0,0.0,0.0,0.0,0.0,0.0,0.0,0.0,0.0,0.0,0.0,0.0,0.0,0.0,0.0,0.0,0.0,0.0,0.0,0.0,0.0,0.0,0.0,0.0,0.0,0.0,0.0,0.0,0.0,0.0,0.0,0.0,0.0,0.0,0.0,0.0,0.0,0.0,0.0,0.0,0.0,0.0,0.0,0.0,0.0,0.0,0.0,0.0,0.0,0.0,-0.3987,-0.5373,-0.6666,-0.7779,-0.9366,-1.0344,0.0,0.0,0.0,0.0,0.0,0.0,0.0,0.0,0.0,0.0,0.0,0.0,0.0,0.0,0.0,0.0,0.0,0.0,0.0,0.0,0.0,0.0,0.0,0.0,0.0,0.0,0.0,0.0,0.0,0.0,0.0,0.0,0.0,0.0,0.0,0.0,0.0,0.0,0.0,0.0,0.0,0.0,0.0,0.0,0.0,0.0,0.0,0.0,0.0,0.0,0.0,0.0,0.0,0.0,0.0,0.0,0.0,0.0,0.0,0.0,0.0,0.0,0.0,0.0,0.0,0.0,0.0,0.0,0.0,0.0,0.0,0.0,0.0,0.0,0.0,0.0,0.0,0.0,0.0,0.0,0.0,0.0,0.0,0.0,0.0,0.0,0.0,0.0,0.0,0.0,0.0,0.0,0.0,0.0,0.0,0.0,0.0,0.0,0.0,0.0,0.0,0.0,0.0,0.0,0.0,0.0,0.0,0.0,0.0,-0.4085,-0.626,-0.8089,-0.9316,-1.0081,-1.0783,0.0,0.0,0.0,0.0,0.0,0.0,0.0,0.0,0.0,0.0,0.0,0.0,0.0,0.0,0.0,0.0,0.0,0.0,0.0,0.0,0.0,0.0,0.0,0.0,0.0,0.0,0.0,0.0,0.0,0.0,0.0,0.0,0.0,0.0,0.0,0.0,0.0,0.0,0.0,0.0,0.0,0.0,0.0,0.0,0.0,0.0,0.0,0.0,0.0,0.0,0.0,0.0,0.0,0.0,0.0,0.0,0.0,0.0,0.0,0.0,0.0,0.0,0.0,0.0,0.0,0.0,0.0,0.0,0.0,0.0,0.0,0.0,0.0,0.0,0.0,0.0,0.0,0.0,0.0,0.0,0.0,0.0,0.0,0.0,0.0,0.0,0.0,0.0,0.0,0.0,0.0,0.0,0.0,0.0,0.0,0.0,0.0,0.0,0.0,0.0,0.0,0.0,0.0,0.0,0.0,0.0,0.0,0.0,-0.4022,-0.4032,-0.6605,-0.892,-1.0725,-1.0909,-1.1323,0.0,0.0,0.0,0.0,0.0,0.0,0.0,0.0,0.0,0.0,0.0,0.0,0.0,0.0,0.0,0.0,0.0,0.0,0.0,0.0,0.0,0.0,0.0,0.0,0.0,0.0,0.0,0.0,0.0,0.0,0.0,0.0,0.0,0.0,0.0,0.0,0.0,0.0,0.0,0.0,0.0,0.0,0.0,0.0,0.0,0.0,0.0,0.0,0.0,0.0,0.0,0.0,0.0,0.0,0.0,0.0,0.0,0.0,0.0,0.0,0.0,0.0,0.0,0.0,0.0,0.0,0.0,0.0,0.0,0.0,0.0,0.0,0.0,0.0,0.0,0.0,0.0,0.0,0.0,0.0,0.0,0.0,0.0,0.0,0.0,0.0,0.0,0.0,0.0,0.0,0.0,0.0,0.0,0.0,0.0,0.0,0.0,0.0,0.0,0.0,0.0,0.0,0.0,0.0,0.0,0.0,0.0,0.0,-0.4017,-0.405,-0.6766,-0.941,-1.1745,-1.1622,-1.1898,0.0,0.0,0.0,0.0,0.0,0.0,0.0,0.0,0.0,0.0,0.0,0.0,0.0,0.0,0.0,0.0,0.0,0.0,0.0,0.0,0.0,0.0,0.0,0.0,0.0,0.0,0.0,0.0,0.0,0.0,0.0,0.0,0.0,0.0,0.0,0.0,0.0,0.0,0.0,0.0,0.0,0.0,0.0,0.0,0.0,0.0,0.0,0.0,0.0,0.0,0.0,0.0,0.0,0.0,0.0,0.0,0.0,0.0,0.0,0.0,0.0,0.0,0.0,0.0,0.0,0.0,0.0,0.0,0.0,0.0,0.0,0.0,0.0,0.0,0.0,0.0,0.0,0.0,0.0,0.0,0.0,0.0,0.0,0.0,0.0,0.0,0.0,0.0,0.0,0.0,0.0,0.0,0.0,0.0,0.0,0.0,0.0,0.0,0.0,0.0,0.0,0.0,0.0,0.0,0.0,0.0,0.0,0.0,-0.3999,-0.4081,-0.7651,-1.0293,-1.1848,-1.1622,-1.2324,0.0,0.0,0.0,0.0,0.0,0.0,0.0,0.0,0.0,0.0,0.0,0.0,0.0,0.0,0.0,0.0,0.0,0.0,0.0,0.0,0.0,0.0,0.0,0.0,0.0,0.0,0.0,0.0,0.0,0.0,0.0,0.0,0.0,0.0,0.0,0.0,0.0,0.0,0.0,0.0,0.0,0.0,0.0,0.0,0.0,0.0,0.0,0.0,-2.0789,0.0,0.0,0.0,0.0,0.0,0.0,0.0,0.0,0.0,0.0,0.0,0.0,0.0,0.0,0.0,0.0,0.0,0.0,0.0,0.0,0.0,0.0,0.0,0.0,0.0,0.0,0.0,0.0,0.0,0.0,0.0,0.0,0.0,0.0,0.0,0.0,0.0,0.0,0.0,0.0,0.0,0.0,0.0,0.0,0.0,0.0,0.0,0.0,0.0,0.0,0.0,0.0,0.0,0.0,0.0,0.0,0.0,0.0,0.0,-0.4321,-0.5001,-0.8262,-1.0632,-1.1843,-1.2347,-1.3287,0.0,0.0,0.0,0.0,0.0,0.0,0.0,0.0,0.0,0.0,0.0,0.0,0.0,0.0,0.0,0.0,0.0,0.0,0.0,0.0,0.0,0.0,0.0,0.0,0.0,0.0,0.0,0.0,0.0,0.0,0.0,0.0,0.0,0.0,0.0,0.0,0.0,0.0,0.0,0.0,0.0,0.0,0.0,0.0,0.0,0.0,0.0,0.0,0.0,0.0,0.0,0.0,0.0,0.0,0.0,0.0,0.0,0.0,0.0,0.0,0.0,0.0,0.0,0.0,0.0,0.0,0.0,0.0,0.0,0.0,0.0,0.0,0.0,0.0,0.0,0.0,0.0,0.0,0.0,0.0,0.0,0.0,0.0,0.0,0.0,0.0,0.0,0.0,0.0,0.0,0.0,0.0,0.0,0.0,0.0,0.0,0.0,0.0,0.0,0.0,0.0,0.0,0.0,0.0,0.0,0.0,0.0,-0.4747,-0.4833,-0.6022,-0.8806,-1.0828,-1.1896,-1.3397,-1.4543,-1.5239,0.0,0.0,0.0,0.0,0.0,0.0,0.0,0.0,0.0,0.0,0.0,0.0,0.0,0.0,0.0,0.0,0.0,0.0,0.0,0.0,0.0,0.0,0.0,0.0,0.0,0.0,0.0,0.0,0.0,0.0,0.0,0.0,0.0,0.0,0.0,0.0,0.0,0.0,-1.5514,-1.5234,0.0,0.0,0.0,0.0,0.0,0.0,0.0,0.0,-2.2818,0.0,0.0,0.0,0.0,0.0,0.0,0.0,0.0,0.0,0.0,0.0,0.0,0.0,0.0,0.0,0.0,0.0,0.0,0.0,0.0,0.0,0.0,0.0,0.0,0.0,0.0,0.0,0.0,0.0,0.0,0.0,0.0,0.0,0.0,0.0,0.0,0.0,0.0,0.0,0.0,0.0,0.0,0.0,0.0,0.0,0.0,0.0,0.0,0.0,0.0,0.0,0.0,0.0,0.0,0.0,0.0,-0.5772,-0.5557,-0.5669,-0.6024,-0.9633,-1.1707,-1.195,-1.4226,-1.5764,-1.6308,0.0,0.0,0.0,0.0,0.0,0.0,0.0,0.0,0.0,0.0,0.0,0.0,0.0,0.0,0.0,0.0,0.0,0.0,0.0,0.0,0.0,0.0,0.0,0.0,0.0,0.0,0.0,0.0,0.0,0.0,0.0,0.0,0.0,0.0,0.0,0.0,0.0,0.0,0.0,-1.4624,-1.5287,0.0,0.0,0.0,0.0,0.0,0.0,0.0,0.0,-2.3052,0.0,0.0,0.0,0.0,0.0,0.0,0.0,0.0,0.0,0.0,0.0,0.0,0.0,0.0,0.0,0.0,0.0,0.0,0.0,0.0,0.0,0.0,0.0,0.0,0.0,0.0,0.0,0.0,0.0,0.0,0.0,0.0,0.0,0.0,0.0,0.0,0.0,0.0,0.0,0.0,0.0,0.0,0.0,0.0,0.0,0.0,0.0,0.0,0.0,0.0,0.0,0.0,0.0,0.0,0.0,-0.6765,-0.6182,-0.661,-0.806,-1.0569,-1.2237,-1.2958,-1.4669,-1.6088,0.0,0.0,0.0,0.0,0.0,0.0,0.0,0.0,0.0,0.0,0.0,0.0,0.0,0.0,0.0,0.0,0.0,0.0,0.0,0.0,0.0,0.0,0.0,0.0,0.0,0.0,0.0,0.0,0.0,0.0,0.0,0.0,0.0,0.0,0.0,0.0,0.0,0.0,0.0,0.0,-1.4883,-1.5395,-1.4255,0.0,0.0,0.0,0.0,0.0,0.0,-2.2543,-2.3299,0.0,0.0,0.0,0.0,0.0,0.0,0.0,0.0,0.0,0.0,0.0,0.0,0.0,0.0,0.0,0.0,0.0,0.0,0.0,0.0,0.0,0.0,0.0,0.0,0.0,0.0,0.0,0.0,0.0,0.0,0.0,0.0,0.0,0.0,0.0,0.0,0.0,0.0,0.0,0.0,0.0,0.0,0.0,0.0,0.0,0.0,0.0,0.0,0.0,0.0,0.0,0.0,0.0,0.0,0.0,-0.7594,-0.6775,-0.7542,-0.9944,-1.1263,-1.2522,-1.3872,-1.4929,-1.6152,0.0,0.0,0.0,0.0,0.0,0.0,0.0,0.0,0.0,0.0,0.0,0.0,0.0,0.0,0.0,0.0,0.0,0.0,0.0,0.0,0.0,0.0,0.0,0.0,0.0,0.0,0.0,0.0,0.0,0.0,0.0,0.0,0.0,0.0,0.0,0.0,0.0,0.0,0.0,0.0,0.0,-1.5577,-1.4483,-1.6509,0.0,0.0,0.0,0.0,-2.1786,-2.2625,0.0,0.0,0.0,0.0,0.0,0.0,0.0,0.0,0.0,0.0,0.0,0.0,0.0,0.0,0.0,0.0,0.0,0.0,0.0,0.0,0.0,0.0,0.0,0.0,0.0,0.0,0.0,0.0,0.0,0.0,0.0,0.0,0.0,0.0,0.0,0.0,0.0,0.0,0.0,0.0,0.0,0.0,0.0,0.0,0.0,0.0,0.0,0.0,0.0,0.0,0.0,0.0,0.0,0.0,0.0,0.0,-0.7677,-0.7612,-0.838,-0.9989,-1.1214,-1.2522,-1.3878,-1.5114,-1.632,0.0,0.0,0.0,0.0,0.0,0.0,0.0,0.0,0.0,0.0,0.0,0.0,0.0,0.0,0.0,0.0,0.0,0.0,0.0,0.0,0.0,0.0,0.0,0.0,0.0,0.0,0.0,0.0,0.0,0.0,0.0,0.0,0.0,0.0,0.0,0.0,0.0,0.0,0.0,0.0,0.0,-1.606,-1.4536,-1.6679,-1.8882,0.0,0.0,-2.2272,-2.3342,-2.3621,0.0,0.0,0.0,0.0,0.0,0.0,0.0,0.0,0.0,0.0,0.0,0.0,0.0,0.0,0.0,0.0,0.0,0.0,0.0,0.0,0.0,0.0,0.0,0.0,0.0,0.0,0.0,0.0,0.0,0.0,0.0,0.0,0.0,0.0,0.0,0.0,0.0,0.0,0.0,0.0,0.0,0.0,0.0,0.0,0.0,0.0,0.0,0.0,0.0,0.0,0.0,0.0,0.0,0.0,0.0,-0.924,-0.7607,-0.849,-0.9722,-1.1068,-1.2377,-1.3569,-1.4722,-1.514,-1.5874,0.0,0.0,0.0,0.0,0.0,0.0,0.0,0.0,0.0,0.0,0.0,0.0,0.0,0.0,0.0,0.0,0.0,0.0,0.0,0.0,0.0,0.0,0.0,0.0,0.0,0.0,0.0,0.0,0.0,0.0,0.0,0.0,0.0,0.0,0.0,0.0,0.0,0.0,0.0,0.0,0.0,0.0,-1.4795,-1.7633,0.0,0.0,0.0,-2.2966,-2.2811,0.0,0.0,0.0,0.0,0.0,0.0,0.0,0.0,0.0,0.0,0.0,0.0,0.0,0.0,0.0,0.0,0.0,0.0,0.0,0.0,0.0,0.0,0.0,0.0,0.0,0.0,0.0,0.0,0.0,0.0,0.0,0.0,0.0,0.0,0.0,0.0,0.0,0.0,0.0,0.0,0.0,0.0,0.0,0.0,0.0,0.0,0.0,0.0,0.0,0.0,0.0,0.0,0.0,0.0,0.0,0.0,0.0,-0.7958,-0.9243,-1.0724,-1.2382,-1.3392,-1.4384,-1.5358,-1.5229,0.0,0.0,0.0,0.0,0.0,0.0,0.0,0.0,0.0,0.0,0.0,0.0,0.0,0.0,0.0,0.0,0.0,0.0,0.0,0.0,0.0,0.0,0.0,0.0,0.0,0.0,0.0,-1.3014,0.0,0.0,0.0,0.0,0.0,0.0,0.0,0.0,0.0,0.0,0.0,0.0,0.0,0.0,-1.6493,-1.5852,-1.8781,-2.0842,0.0,0.0,-2.3664,-2.2732,-2.3914,-2.5306,0.0,0.0,0.0,0.0,0.0,0.0,0.0,0.0,0.0,0.0,0.0,0.0,0.0,0.0,0.0,0.0,0.0,0.0,0.0,0.0,0.0,0.0,0.0,0.0,0.0,0.0,0.0,0.0,0.0,0.0,0.0,0.0,0.0,0.0,0.0,0.0,0.0,0.0,0.0,0.0,0.0,0.0,0.0,0.0,0.0,0.0,0.0,0.0,0.0,0.0,0.0,0.0,0.0,0.0,-0.9423,-0.9201,-0.9584,-1.1106,-1.3621,-1.383,-1.4384,-1.5358,-1.5371,-1.5717,0.0,0.0,0.0,0.0,0.0,0.0,0.0,0.0,0.0,0.0,0.0,0.0,0.0,0.0,0.0,0.0,0.0,0.0,0.0,0.0,0.0,0.0,0.0,0.0,0.0,0.0,0.0,0.0,0.0,0.0,0.0,0.0,0.0,0.0,0.0,0.0,0.0,0.0,0.0,0.0,0.0,-1.7143,-1.8255,-1.9893,-2.1569,0.0,-2.3898,-2.4319,-2.4237,-2.4875,-2.5604,-2.6385,0.0,0.0,0.0,0.0,0.0,0.0,0.0,0.0,0.0,0.0,0.0,0.0,0.0,0.0,0.0,0.0,0.0,0.0,0.0,0.0,0.0,0.0,0.0,0.0,0.0,0.0,0.0,0.0,0.0,0.0,0.0,0.0,0.0,0.0,0.0,0.0,0.0,0.0,0.0,0.0,0.0,0.0,0.0,0.0,0.0,0.0,0.0,0.0,0.0,0.0,0.0,0.0,0.0,-1.0528,-0.99,-1.1111,-1.2276,-1.3304,-1.4161,-1.4637,-1.4819,-1.4856,-1.5255,0.0,0.0,0.0,0.0,0.0,0.0,0.0,0.0,0.0,0.0,0.0,0.0,0.0,0.0,0.0,0.0,0.0,0.0,0.0,0.0,0.0,0.0,0.0,0.0,0.0,0.0,0.0,0.0,-1.5022,-1.528,-1.7027,0.0,0.0,0.0,0.0,0.0,0.0,0.0,0.0,0.0,0.0,-1.8856,-1.9383,-2.0841,0.0,0.0,-2.3928,-2.4644,-2.5356,-2.6015,-2.6683,-2.7371,-2.8398,0.0,0.0,0.0,0.0,0.0,0.0,0.0,0.0,0.0,0.0,0.0,0.0,0.0,0.0,0.0,0.0,0.0,0.0,0.0,0.0,0.0,0.0,0.0,0.0,0.0,0.0,0.0,0.0,0.0,0.0,0.0,0.0,0.0,0.0,0.0,0.0,0.0,0.0,0.0,0.0,0.0,0.0,0.0,0.0,0.0,0.0,0.0,0.0,0.0,0.0,0.0,0.0,-1.1267,-1.0789,-1.2201,-1.3168,-1.3613,-1.4546,-1.4816,-1.4536,-1.4806,-1.5318,0.0,0.0,0.0,0.0,0.0,0.0,0.0,0.0,0.0,0.0,0.0,0.0,0.0,0.0,0.0,0.0,0.0,0.0,0.0,0.0,0.0,0.0,0.0,0.0,0.0,0.0,0.0,0.0,-1.651,-1.6929,-1.8323,0.0,0.0,0.0,0.0,0.0,0.0,0.0,0.0,0.0,0.0,-2.0072,-2.0509,-2.1593,-2.2657,-2.332,-2.4291,-2.5214,-2.5792,-2.7041,-2.7957,-2.8082,0.0,0.0,0.0,0.0,0.0,0.0,0.0,0.0,0.0,0.0,0.0,0.0,0.0,0.0,0.0,0.0,0.0,0.0,0.0,0.0,0.0,0.0,0.0,0.0,0.0,0.0,0.0,-0.7821,0.0,0.0,-1.0565,0.0,0.0,0.0,0.0,0.0,0.0,0.0,0.0,0.0,0.0,0.0,0.0,0.0,0.0,0.0,0.0,0.0,0.0,0.0,0.0,0.0,0.0,-1.1379,-1.204,-1.2586,-1.3522,-1.4847,-1.4957,-1.4847,-1.4522,-1.5512,-1.6034,-1.6016,0.0,0.0,0.0,0.0,0.0,0.0,0.0,0.0,0.0,0.0,0.0,0.0,0.0,0.0,0.0,0.0,0.0,0.0,0.0,0.0,0.0,0.0,0.0,0.0,0.0,0.0,-1.7297,-1.8003,-1.8847,0.0,0.0,0.0,0.0,0.0,0.0,0.0,0.0,0.0,-1.9666,-1.9756,-2.0399,-2.1786,-2.2211,-2.2868,-2.4193,-2.5437,-2.607,-2.5627,-2.7883,-2.935,0.0,0.0,0.0,0.0,0.0,0.0,0.0,0.0,0.0,0.0,0.0,0.0,0.0,0.0,0.0,0.0,0.0,0.0,0.0,0.0,0.0,0.0,0.0,0.0,0.0,0.0,0.0,-0.6755,-0.7222,0.0,0.0,0.0,0.0,0.0,0.0,0.0,0.0,0.0,0.0,0.0,-1.1451,-1.1938,0.0,0.0,0.0,0.0,0.0,0.0,0.0,0.0,0.0,0.0,0.0,0.0,-1.2587,-1.2838,-1.3371,-1.3877,-1.4376,-1.4425,-1.4329,-1.4235,-1.5246,-1.6076,-1.6664,0.0,0.0,0.0,0.0,0.0,0.0,0.0,0.0,0.0,0.0,0.0,0.0,0.0,0.0,0.0,0.0,0.0,0.0,0.0,0.0,0.0,0.0,0.0,0.0,0.0,-1.8886,0.0,0.0,0.0,0.0,0.0,0.0,0.0,0.0,0.0,0.0,0.0,-2.1896,-2.1906,-2.1974,-2.2201,-2.2675,-2.2789,-2.3506,0.0,0.0,0.0,0.0,0.0,0.0,0.0,0.0,0.0,0.0,0.0,0.0,0.0,0.0,-3.2597,-3.1917,-3.1633,-3.1542,-3.1542,0.0,0.0,0.0,0.0,0.0,0.0,0.0,0.0,0.0,0.0,0.0,0.0,0.0,0.0,-0.6986,-0.7382,-0.8545,0.0,0.0,0.0,0.0,0.0,0.0,0.0,0.0,-1.0662,-1.1779,-1.3025,-1.3081,-1.3621,0.0,-1.4543,-1.4135,0.0,0.0,0.0,0.0,0.0,0.0,0.0,0.0,-1.3206,-1.324,-1.3794,-1.4088,-1.4088,-1.4088,-1.4292,-1.465,-1.5764,-1.6857,-1.7779,-1.7661,-1.7266,0.0,0.0,0.0,0.0,0.0,0.0,0.0,0.0,0.0,0.0,0.0,0.0,0.0,0.0,0.0,0.0,0.0,0.0,0.0,0.0,0.0,0.0,0.0,-1.9678,0.0,0.0,0.0,0.0,0.0,0.0,0.0,0.0,0.0,-2.3485,-2.3674,-2.3984,-2.4183,-2.3904,-2.3731,-2.3891,0.0,0.0,0.0,0.0,0.0,0.0,0.0,-3.0585,-3.1719,-3.1651,-3.1971,-3.3483,-3.3832,-3.4301,-3.5323,0.0,0.0,-3.3259,-3.3072,-3.3086,-3.3072,-3.3366,-3.3685,-3.3959,-3.3518,-3.2876,0.0,0.0,0.0,0.0,0.0,0.0,0.0,0.0,-0.6895,-0.7465,0.0,-0.8272,0.0,0.0,0.0,0.0,0.0,-0.8802,0.0,0.0,-1.1237,-1.219,-1.3838,-1.362,-1.4136,-1.5338,-1.5351,-1.5057,-1.4482,-1.3893,0.0,0.0,0.0,0.0,0.0,0.0,-1.3206,-1.3227,-1.3761,-1.4055,-1.4041,-1.4062,-1.4594,-1.5707,-1.6943,-1.8119,-1.9156,-1.8403,-1.7812,-1.7402,-1.7396,0.0,0.0,0.0,0.0,0.0,0.0,0.0,0.0,0.0,0.0,0.0,0.0,0.0,0.0,0.0,0.0,0.0,0.0,0.0,0.0,-1.9658,0.0,0.0,0.0,0.0,0.0,0.0,0.0,0.0,0.0,0.0,-2.522,-2.5891,-2.6453,-2.6326,0.0,0.0,0.0,0.0,-2.5252,-2.6434,-2.7894,-2.8714,-2.8342,-3.0003,-3.1009,-3.0108,0.0,0.0,-3.3785,-3.5305,-3.6108,-3.5609,-3.5472,-3.5504,-3.5442,-3.5347,-3.5362,-3.5409,-3.5311,-3.5085,-3.4245,-3.3822,-3.3206,-0.6586,0.0,0.0,0.0,0.0,-0.718,-0.7282,-0.7346,-0.739,-0.7524,-0.7719,-0.8289,0.0,0.0,0.0,0.0,0.0,0.0,-1.1684,-1.2363,-1.3157,-1.3931,-1.4682,-1.4566,-1.476,-1.5084,-1.5084,-1.489,-1.4486,-1.4306,-1.3861,-1.3093,0.0,0.0,0.0,0.0,-1.3206,-1.322,-1.3373,-1.346,-1.346,-1.362,-1.4602,-1.6373,-1.6445,-1.7215,-1.8721,-1.8301,-1.7822,-1.7402,-1.7416,0.0,0.0,0.0,0.0,0.0,0.0,0.0,0.0,0.0,0.0,0.0,0.0,0.0,0.0,0.0,0.0,0.0,0.0,0.0,-1.9228,-1.9668,-2.0548,0.0,0.0,0.0,0.0,0.0,0.0,0.0,0.0,0.0,-2.7741,-2.7016,-2.6624,0.0,0.0,-2.606,-2.6162,-2.6093,-2.6542,-2.8011,-2.861,0.0,-3.0322,-3.0658,-3.1126,-3.1954,-3.2704,-3.3334,-3.3908,-3.439,-3.4896,-3.5356,-3.5489,-3.5489,-3.5489,-3.5489,-3.5457,-3.5457,-3.4953,-3.4394,-3.4027,-3.2996,-3.1888,-0.6181,-0.675,-0.7211,-0.7282,-0.7112,-0.7305,-0.739,-0.7421,-0.7482,-0.7455,-0.7409,-0.7871,-0.7599,-0.6914,-0.7937,0.0,0.0,0.0,-1.2727,-1.348,-1.4043,-1.4569,-1.4988,-1.485,-1.4894,-1.5001,-1.4888,-1.4696,-1.4516,-1.4402,-1.3986,-1.336,0.0,0.0,-1.2985,-1.312,-1.3206,-1.3206,-1.3206,-1.3206,-1.3213,-1.4311,-1.5422,-1.6472,-1.7028,-1.7715,-1.8546,-1.8198,-1.7891,-1.7646,-1.7637,-1.7432,0.0,0.0,0.0,0.0,0.0,0.0,0.0,0.0,0.0,0.0,0.0,-2.0276,-1.9297,0.0,0.0,0.0,-1.8964,-1.9712,-2.0373,-2.1394,0.0,0.0,0.0,0.0,0.0,0.0,0.0,-2.7059,-2.8108,-2.8974,-2.9484,-2.8574,-2.7894,-2.8165,-2.7617,-2.7196,-2.7403,0.0,-2.765,-2.9044,-2.9253,-2.9616,-3.0616,-3.0495,-3.0723,-3.2068,-3.2461,-3.2868,-3.336,-3.3449,-3.3671,-3.4192,-3.4341,-3.4341,-3.4341,-3.4341,-3.4491,-3.4806,-3.4143,-3.338,-3.2996,-3.1983,-3.1106,-0.5638,-0.5714,-0.6774,-0.7192,-0.7115,-0.7305,-0.7288,-0.7129,-0.7326,-0.7429,-0.7405,-0.7221,-0.7109,-0.7177,-0.8236,0.0,-1.0349,-1.1666,-1.3028,-1.4339,-1.4159,-1.4412,-1.4914,-1.4609,-1.4629,-1.4928,-1.4616,-1.4482,-1.4469,-1.4215,-1.3948,-1.3646,-1.3633,-1.3493,-1.322,-1.3227,-1.3227,-1.3247,-1.32,-1.3193,-1.3286,-1.5449,-1.6483,-1.6198,-1.8064,-1.8872,-1.8568,-1.8223,-1.8008,-1.8008,-1.8008,-1.7832,-1.7484,0.0,0.0,0.0,0.0,0.0,0.0,0.0,0.0,0.0,0.0,0.0,0.0,0.0,0.0,-1.8836,-2.0627,0.0,-2.2349,-2.4067,0.0,0.0,0.0,-2.5587,-2.6052,-2.7042,-2.7819,-2.8207,0.0,0.0,-3.047,-3.0105,-2.9777,-2.9636,-2.8824,-2.8394,-2.8843,-2.8514,-2.8609,-2.961,-2.9792,-2.9792,-2.9892,-2.9854,-3.0138,-3.0975,-3.1068,-3.1452,-3.2285,-3.25,-3.25,-3.2713,-3.2629,-3.2664,-3.2629,-3.2664,-3.2749,-3.3587,-3.3101,-3.2236,-3.1499,-3.1143,-3.0758,-0.3989,-0.5614,-0.5909,-0.6418,-0.7112,-0.7302,-0.7395,-0.7329,-0.7482,-0.7482,-0.7415,-0.7333,-0.7251,-0.7183,-0.8321,-0.8996,-0.9338,-1.1353,-1.2491,-1.2894,-1.3721,-1.4162,-1.4289,-1.4222,-1.4229,-1.4289,-1.4222,-1.4195,-1.4188,-1.4122,-1.4048,-1.3988,-1.3981,-1.3834,-1.3507,-1.332,-1.328,-1.3493,-1.3093,-1.308,-1.348,-1.4075,-1.4934,-1.6046,-1.6531,-1.7204,-1.809,-1.8066,-1.8008,-1.8008,-1.8008,-1.7935,-1.7861,-1.73,0.0,0.0,0.0,0.0,0.0,0.0,0.0,0.0,0.0,-1.9429,-1.8339,0.0,-2.0788,0.0,-2.2386,-2.3526,-2.3932,-2.4389,0.0,0.0,-2.6951,-2.7436,-2.8704,-2.9102,-2.9307,-2.9392,-2.9624,-2.9842,-2.998,-2.9867,-2.9789,-2.9764,-2.9539,-2.9466,-2.9539,-2.9465,-2.9495,-2.974,-2.9779,-2.9779,-2.9779,-2.9779,-2.9856,-3.0101,-3.0126,-3.0457,-3.1365,-3.1523,-3.1742,-3.2415,-3.2593,-3.2593,-3.2558,-3.2055,-3.1646,-3.1815,-3.1669,-3.1499,-3.1217,-3.0658,-3.0075,-0.3081,-0.4745,-0.5346,-0.6192,-0.7102,-0.7234,-0.7268,-0.7275,-0.7356,-0.7346,-0.7268,-0.7265,-0.7176,-0.7183,-0.8364,-0.889,-0.9021,-1.074,-1.1552,-1.1601,-1.2772,-1.3294,-1.3336,-1.3864,-1.4088,-1.4088,-1.4088,-1.4015,-1.3895,-1.3846,-1.3828,-1.3701,-1.3694,-1.3614,-1.3407,-1.3247,-1.3287,-1.3407,-1.312,-1.3113,-1.3434,-1.4054,-1.4835,-1.5796,-1.6455,-1.7132,-1.7969,-1.8008,-1.8008,-1.8008,-1.8008,-1.8008,-1.7998,-1.7383,-1.7109,0.0,0.0,0.0,0.0,0.0,0.0,0.0,0.0,0.0,0.0,0.0,-2.2557,-2.2863,-2.4292,-2.5354,-2.5817,-2.6467,-2.7318,-2.8397,-2.8535,-2.8876,-2.9715,-2.9779,-2.9779,-2.9779,-2.9779,-2.9779,-2.9779,-2.9779,-2.9779,-2.9779,-2.9779,-2.9779,-2.9779,-2.9779,-2.9779,-2.9779,-2.9779,-2.9779,-2.9779,-2.9779,-2.9779,-2.9779,-2.9779,-3.0011,-3.0482,-3.0595,-3.0771,-3.123,-3.1328,-3.1341,-3.1341,-3.0983,-3.0582,-3.0595,-3.0595,-3.0558,-3.0558,-3.0177,-2.9779,-0.2621,-0.3714,-0.5,-0.6175,-0.7095,-0.7095,-0.7095,-0.7095,-0.7095,-0.7095,-0.7095,-0.7095,-0.7095,-0.7183,-0.8193,-0.8671,-0.8759,-0.9879,-1.0394,-1.0438,-1.1552,-1.214,-1.2281,-1.3328,-1.3882,-1.3981,-1.3975,-1.3841,-1.3547,-1.3547,-1.342,-1.3213,-1.3206,-1.3193,-1.3153,-1.3146,-1.3153,-1.3153,-1.3227,-1.326,-1.3267,-1.4488,-1.5239,-1.5489,-1.665,-1.7479,-1.7808,-1.7828,-1.7891,-1.8052,-1.8086,-1.8052,-1.8086,-1.7744,-1.7686,0.0,-1.7666,0.0,0.0,0.0,0.0,0.0,0.0,0.0,0.0,-2.3438,-2.4431,-2.5018,-2.6356,-2.7324,-2.7755,-2.9003,-2.9779,-2.9779,-2.9779,-2.9779,-2.9779,-2.9779,-2.9779,-2.9779,-2.9779,-2.9779,-2.9779,-2.9779,-2.9779,-2.9779,-2.9779,-2.9779,-2.9779,-2.9779,-2.9779,-2.9779,-2.9779,-2.9779,-2.9779,-2.9779,-2.9779,-2.9779,-2.9779,-2.9779,-2.9818,-2.9818,-2.9818,-2.9856,-2.9921,-2.9895,-2.9792,-2.9818,-2.9793,-2.9731,-2.9693,-2.9705,-2.9705,-2.9667,-2.9654,-0.252,-0.3683,-0.494,-0.6091,-0.7095,-0.7095,-0.7095,-0.7095,-0.7095,-0.7095,-0.7095,-0.7095,-0.7095,-0.7139,-0.736,-0.7448,-0.7489,-0.8671,-0.9235,-0.9279,-1.0389,-1.1283,-1.1981,-1.2189,-1.271,-1.3347,-1.338,-1.3307,-1.3293,-1.3293,-1.3267,-1.3206,-1.3206,-1.3086,-1.2884,0.0,0.0,0.0,-1.3313,-1.352,-1.3527,-1.4048,-1.4471,-1.4773,-1.5034,0.0,-1.6795,-1.6853,-1.7366,-1.8416,-1.8481,0.0,0.0,0.0,0.0,0.0,0.0,0.0,0.0,0.0,0.0,0.0,-2.3189,-2.3978,-2.3095,-2.5292,-2.7122,-2.7987,-2.8772,-2.926,-2.9333,-2.9588,-2.9779,-2.9779,-2.9779,-2.9779,-2.9779,-2.9779,-2.9779,-2.9779,-2.9779,-2.9779,-2.9779,-2.9779,-2.9779,-2.9779,-2.9779,-2.9779,-2.9779,-2.9779,-2.9779,-2.9779,-2.9779,-2.9779,-2.9779,-2.9779,-2.9779,-2.9779,-2.9779,-2.9779,-2.9754,-2.9779,-2.9779,-2.9779,-2.9779,-2.9767,-2.9767,-2.9779,-2.9591,-2.9176,-2.9101,-2.9089,-2.9051,-2.9051,-2.8963,-0.2842,0.0,-0.5134,-0.6071,0.0,-0.7095,-0.7095,-0.7095,-0.7095,-0.7095,-0.7095,-0.7095,-0.7095,-0.7095,-0.7095,-0.7095,-0.7139,-0.7753,-0.8013,-0.8053,-0.913,-0.9875,-1.0361,-1.1331,-1.2029,-1.2479,-1.2962,-1.3133,-1.2986,-1.2986,-1.2906,-1.2759,-1.2759,-1.2679,-1.2532,-1.2569,-1.2643,-1.2784,-1.3193,-1.3387,-1.34,-1.3714,-1.402,-1.4408,-1.4973,0.0,0.0,0.0,0.0,0.0,0.0,0.0,0.0,0.0,0.0,-1.8926,-1.8955,-1.9141,-1.9578,-2.0513,-2.1224,-2.1697,-2.3828,-2.5337,-2.5888,-2.76,-2.8829,-2.9276,-2.9628,-2.9779,-2.9779,-2.9779,-2.9779,-2.9779,-2.9779,-2.9779,-2.9779,-2.9779,-2.9779,-2.9779,-2.9779,-2.9779,-2.9779,-2.9779,-2.9779,-2.9779,-2.9779,-2.9779,-2.9779,-2.9779,-2.9779,-2.9779,-2.9779,-2.9779,-2.9779,-2.9779,-2.9654,-2.9478,-2.9603,-2.9641,-2.9415,-2.9616,-2.9779,-2.9767,-2.9566,-2.9365,-2.934,-2.9164,-2.8875,-2.8612,-2.8524,-2.8411,-2.8222,-2.8335,-2.8448,-0.3395,-0.5403,-0.5628,-0.6248,-0.7095,-0.7095,-0.7095,-0.7095,0.0,0.0,0.0,-0.7095,-0.7095,-0.7095,-0.7095,-0.7095,-0.7095,-0.7071,-0.7061,-0.7095,-0.7967,-0.8417,-0.8664,-1.0268,-1.1124,-1.1328,-1.2288,-1.2641,-1.2437,-1.2627,-1.2583,-1.2325,-1.2305,-1.2305,-1.2305,-1.2305,-1.2425,-1.271,-1.2973,-1.3126,-1.3133,-1.3414,-1.3651,-1.3953,-1.5085,-1.5897,-1.635,-1.757,-1.8369,-1.8598,-1.8598,-1.8802,-1.9248,-1.9014,-1.9143,-1.9844,-1.998,-2.0185,-2.0615,-2.1479,-2.2145,-2.237,-2.3941,-2.5931,-2.8435,-2.9171,-2.9495,-2.9495,-2.9663,-2.9779,-2.9779,-2.9779,-2.9779,-2.9779,-2.9779,-2.9779,-2.9779,-2.9779,-2.9779,-2.9779,-2.9779,-2.9779,-2.9779,-2.9779,-2.9741,-2.9654,-2.9591,-2.9591,-2.9541,-2.9641,-2.9779,-2.9779,-2.9679,-2.9603,-2.9616,-2.9465,-2.9302,-2.8888,-2.9164,-2.9302,-2.8976,-2.9176,-2.9478,-2.9389,-2.9076,-2.8825,-2.8749,-2.8473,-2.8084,-2.7971,-2.7959,-2.7795,-2.7331,-2.7482,-2.777,-0.415,-0.5492,-0.6428,-0.6959,-0.7095,-0.7095,-0.7095,-0.7095,-0.7095,-0.7095,-0.7095,-0.7095,-0.7095,-0.7095,-0.7095,-0.7095,-0.7088,-0.6974,-0.6913,-0.6953,-0.6968,-0.739,-0.8089,-0.8374,-0.8905,-0.9665,-1.0642,-1.1109,-1.1191,-1.195,-1.2338,-1.2311,-1.2305,-1.2305,-1.2305,-1.2305,-1.2318,-1.2371,-1.269,-1.2851,-1.2851,-1.3113,-1.3185,-1.3033,-1.3982,-1.4749,-1.5401,-1.6386,-1.7425,-1.8508,-1.8598,-1.8838,-1.9258,-1.9561,-1.9795,-1.9922,-2.0264,-2.0546,-2.0634,-2.1479,-2.2574,-2.3833,-2.4249,-2.5283,-2.7317,-2.8035,-2.8347,-2.8386,-2.9157,-2.9779,-2.9779,-2.974,-2.974,-2.9779,-2.9779,-2.9779,-2.9779,-2.9779,-2.9779,-2.9779,-2.9779,-2.9779,-2.9741,-2.9754,-2.9553,-2.9139,-2.9063,-2.8863,-2.8699,-2.9189,-2.9729,-2.9716,-2.9365,-2.9051,-2.9026,-2.8637,-2.8411,-2.8235,-2.8323,-2.8423,-2.826,-2.8373,-2.8474,-2.8388,-2.8337,-2.8221,-2.8191,-2.8156,-2.7869,-2.7542,-2.7394,-2.7253,-2.6776,-2.6751,-2.6776,-0.4639,-0.6293,-0.6918,-0.7095,-0.7095,-0.7095,-0.7095,-0.7095,-0.7095,-0.7095,-0.7095,-0.7095,-0.7095,-0.7095,-0.7095,-0.7055,-0.698,-0.6916,-0.6885,-0.6797,-0.6647,-0.6822,-0.7219,-0.7673,-0.809,-0.8542,-0.9523,-1.0002,-1.0083,-1.0975,-1.1471,-1.1508,-1.2033,-1.2305,-1.2305,-1.2305,-1.2305,-1.2305,-1.2438,-1.2543,-1.2549,-1.2844,-1.2851,-1.2549,-1.4089,-1.5024,-1.5215,-1.6819,-1.7954,-1.8588,-1.8598,-1.8792,-1.9268,-1.9473,-1.9678,-1.9912,-2.0322,-2.0615,-2.0615,-2.1011,-2.1752,-2.2929,-2.2787,-2.3211,-2.4665,-2.6058,-2.695,-2.7215,-2.7758,-2.8239,-2.8819,-2.8858,-2.9106,-2.974,-2.9779,-2.9779,-2.9779,-2.9779,-2.9779,-2.9779,-2.9779,-2.9666,-2.9352,-2.9327,-2.9114,-2.8599,-2.8486,-2.836,-2.8122,-2.8511,-2.8875,-2.885,-2.8649,-2.8511,-2.8473,-2.8285,-2.7996,-2.772,-2.7908,-2.7946,-2.7783,-2.7858,-2.805,-2.8064,-2.7888,-2.7695,-2.7664,-2.7415,-2.7153,-2.6989,-2.6876,-2.6725,-2.6537,-2.6273,-2.6147,-0.4949,-0.7095,-0.7061,-0.7048,-0.7051,-0.7082,-0.7095,-0.7092,-0.7061,-0.7065,-0.7095,-0.7095,-0.7095,-0.7092,-0.7065,-0.6987,-0.6929,-0.6812,-0.6759,-0.6641,-0.6491,-0.6463,-0.6532,-0.7153,-0.7442,-0.7591,-0.8461,-0.8955,-0.9069,-1.019,-1.0938,-1.1199,-1.1916,-1.2305,-1.2305,-1.2305,-1.2305,-1.2305,-1.2305,-1.2305,-1.2311,-1.2563,-1.2644,-1.2774,-1.4483,-1.5516,-1.5621,-1.7411,-1.8461,-1.8461,-1.8461,-1.8691,-1.9102,-1.9141,-1.9326,-1.9746,-2.0088,-2.0361,-2.0458,-2.0556,-2.0895,-2.1603,-2.1291,-2.1461,-2.2362,-2.382,-2.5088,-2.5732,-2.6173,-2.6684,-2.7263,-2.7528,-2.7929,-2.8817,-2.8907,-2.8753,-2.8895,-2.9102,-2.9195,-2.912,-2.9288,-2.9214,-2.8838,-2.87,-2.8511,-2.8059,-2.7821,-2.7733,-2.7733,-2.7745,-2.7733,-2.777,-2.7833,-2.7921,-2.7908,-2.777,-2.7519,-2.7143,-2.7406,-2.7419,-2.7278,-2.7469,-2.7684,-2.7627,-2.7387,-2.7067,-2.6944,-2.6766,-2.6499,-2.6361,-2.6285,-2.6248,-2.6047,-2.5745,-2.5624,-0.4949,-0.6943,-0.6924,-0.6906,-0.693,-0.7045,-0.7095,-0.7082,-0.6964,-0.698,-0.7092,-0.7095,-0.7092,-0.7078,-0.6964,-0.69,-0.6892,-0.6641,-0.6552,-0.6525,-0.6385,-0.6317,-0.6327,-0.6419,-0.6412,-0.6563,-0.7476,-0.7936,-0.8046,-0.9814,-1.1242,-1.207,-1.2268,-1.2268,-1.2305,-1.2305,-1.2305,-1.2305,-1.2305,-1.2305,-1.2305,-1.2331,-1.273,-1.3571,-1.4625,-1.5621,-1.6349,-1.7505,-1.8066,-1.8076,-1.8076,-1.8262,-1.8598,-1.8666,-1.8887,-1.9297,-1.9394,-1.957,-1.9951,-2.0342,-2.0624,-2.0712,-2.0722,-2.084,-2.1312,-2.157,-2.2261,-2.3577,-2.5011,-2.562,-2.5525,-2.5792,-2.6109,-2.6411,-2.6399,-2.6172,-2.6411,-2.6991,-2.7358,-2.6944,-2.7791,-2.8235,-2.8173,-2.8134,-2.7934,-2.7454,-2.7077,-2.6839,-2.6826,-2.6826,-2.6801,-2.6813,-2.7052,-2.7318,-2.7306,-2.6952,-2.6763,-2.6625,-2.6612,-2.6637,-2.6625,-2.6612,-2.6628,-2.6744,-2.6666,-2.6411,-2.6114,-2.6076,-2.6248,-2.5799,-2.5649,-2.5548,-2.5134,-2.4933,-2.5096,-0.3927,-0.6068,-0.6063,-0.6393,-0.6977,-0.7075,-0.7095,-0.7088,-0.7034,-0.7045,-0.7092,-0.7095,-0.7048,-0.6967,-0.691,-0.6834,-0.6654,-0.6569,-0.6463,-0.6388,-0.6323,-0.63,-0.63,-0.63,-0.63,-0.63,-0.6718,-0.6911,-0.7134,-0.8342,-0.9809,-1.1273,-1.1428,-1.1694,-1.2231,-1.2305,-1.2305,-1.2305,-1.2305,-1.2305,-1.2305,-1.2305,-1.2482,-1.2989,-1.4378,-1.534,-1.5869,-1.7182,-1.8008,-1.8008,-1.8008,-1.8096,-1.8217,-1.8461,-1.8676,-1.8906,-1.915,-1.9473,-1.9855,-2.0088,-2.0293,-2.0576,-2.0615,-2.0693,-2.081,-2.084,-2.1145,-2.1778,-2.2867,-2.3633,-2.4133,-2.4342,-2.4701,-2.5267,-2.5464,-2.5425,-2.5475,-2.5778,-2.614,-2.6538,-2.6951,-2.7324,-2.7501,-2.7366,-2.7102,-2.6851,-2.66,-2.6499,-2.6487,-2.6487,-2.6487,-2.6512,-2.6713,-2.6813,-2.6801,-2.6675,-2.6373,-2.6097,-2.5984,-2.5984,-2.5984,-2.5984,-2.5971,-2.5975,-2.5992,-2.5786,-2.5248,-2.527,-2.5385,-2.5146,-2.5109,-2.4971,-2.4443,-2.4343,-2.4456,-0.2994,-0.4819,-0.5193,-0.5797,-0.6546,-0.6903,-0.7038,-0.7038,-0.7038,-0.7014,-0.6984,-0.7018,-0.6933,-0.6824,-0.6802,-0.6719,-0.6532,-0.647,-0.6399,-0.6303,-0.63,-0.63,-0.63,-0.63,-0.63,-0.63,-0.63,-0.6451,-0.6756,-0.7403,-0.8836,-1.0522,-1.0789,-1.1273,-1.2194,-1.2305,-1.2305,-1.2305,-1.2305,-1.2305,-1.2305,-1.2305,-1.2549,-1.3164,-1.445,-1.5446,-1.5983,-1.7295,-1.8008,-1.8008,-1.8008,-1.8008,-1.8018,-1.8266,-1.8432,-1.8461,-1.8867,-1.9307,-1.9717,-1.9853,-2.0107,-2.0546,-2.0615,-2.0615,-2.0615,-2.0615,-2.0615,-2.0713,-2.1182,-2.197,-2.255,-2.2802,-2.3234,-2.3996,-2.4113,-2.4113,-2.4035,-2.4298,-2.4697,-2.5248,-2.5422,-2.6016,-2.65,-2.6567,-2.6549,-2.6524,-2.6512,-2.6487,-2.6487,-2.6487,-2.6449,-2.6285,-2.6248,-2.626,-2.626,-2.6223,-2.5996,-2.5598,-2.5385,-2.5385,-2.5385,-2.5385,-2.5385,-2.5393,-2.5405,-2.5217,-2.4785,-2.4671,-2.4707,-2.46,-2.4537,-2.4374,-2.3847,-2.3791,-2.3766,-0.2549,-0.3737,-0.4715,-0.5119,-0.5284,-0.6374,-0.6903,-0.6913,-0.6903,-0.6822,-0.678,-0.6885,-0.6776,-0.6576,-0.6661,-0.662,-0.6504,-0.6375,-0.6313,-0.63,-0.63,-0.63,-0.63,-0.63,-0.63,-0.63,-0.63,-0.6718,-0.7591,-0.7744,-0.8836,-1.0671,-1.0708,-1.1273,-1.2157,-1.2305,-1.2305,-1.2305,-1.2305,-1.2305,-1.2305,-1.2305,-1.3164,-1.4665,-1.5128,-1.5983,-1.7467,-1.7906,-1.8008,-1.8008,-1.8008,-1.8008,-1.8008,-1.8037,-1.8066,-1.8096,-1.8403,-1.8848,-1.9287,-1.9639,-2.0049,-2.0498,-2.0556,-2.0595,-2.0605,-2.0615,-2.0615,-2.0615,-2.0693,-2.083,-2.0938,-2.1323,-2.1481,-2.156,-2.153,-2.157,-2.149,-2.2431,-2.2552,-2.2676,-2.3483,-2.4509,-2.5206,-2.5933,-2.6383,-2.6487,-2.6487,-2.6461,-2.6399,-2.6436,-2.621,-2.5787,-2.5649,-2.5636,-2.5624,-2.5649,-2.541,-2.5034,-2.4845,-2.4813,-2.4813,-2.4858,-2.4845,-2.4845,-2.4845,-2.4669,-2.4305,-2.4205,-2.4293,-2.4243,-2.4067,-2.3803,-2.3446,-2.3233,-2.3233,-0.1344,-0.2546,-0.3675,-0.459,-0.5287,-0.5613,-0.6187,-0.6886,-0.6886,-0.6856,-0.6861,-0.6862,-0.6814,-0.6617,-0.6569,-0.6515,-0.6381,-0.6323,-0.63,-0.63,-0.63,-0.63,-0.63,-0.63,-0.63,-0.63,-0.63,-0.649,-0.6795,-0.683,-0.7855,-0.9518,-0.9857,-1.0645,-1.2003,-1.2305,-1.2305,-1.2305,-1.2305,-1.2305,-1.2305,-1.2305,-1.2945,-1.4178,-1.4879,-1.5525,-1.6193,-1.7339,-1.8008,-1.8008,-1.8008,-1.8008,-1.8008,-1.8008,-1.8008,-1.8027,-1.8144,-1.8383,-1.8773,-1.8978,-1.9404,-2.0059,-2.0146,-2.0283,-2.0546,-2.0615,-2.0615,-2.0615,-2.0615,-2.0615,-2.0635,-2.0723,-2.081,-2.081,-2.081,-2.082,-2.084,-2.1173,-2.1509,-2.2107,-2.3379,-2.485,-2.5581,-2.6267,-2.6487,-2.6487,-2.6487,-2.6323,-2.6021,-2.5912,-2.5711,-2.5259,-2.5096,-2.4983,-2.4582,-2.4921,-2.4946,-2.4531,-2.4293,-2.4293,-2.4293,-2.4293,-2.428,-2.428,-2.4293,-2.413,-2.3766,-2.3552,-2.3647,-2.3659,-2.3527,-2.3371,-2.3158,-2.3108,-2.3095,-0.0449,-0.1343,-0.2484,-0.3624,-0.4673,-0.4966,-0.5709,-0.6751,-0.6834,-0.6803,-0.6742,-0.6807,-0.6749,-0.6576,-0.6535,-0.6436,-0.6306,-0.63,-0.63,-0.63,-0.63,-0.63,-0.63,-0.63,-0.63,-0.63,-0.63,-0.63,-0.63,-0.63,-0.7173,-0.8727,-0.9107,-1.0126,-1.1583,-1.2114,-1.2305,-1.2305,-1.2305,-1.2305,-1.2305,-1.2305,-1.2586,-1.3273,-1.4199,-1.4879,-1.5199,-1.6724,-1.7535,-1.7579,-1.7828,-1.8008,-1.8008,-1.8008,-1.8008,-1.8008,-1.8008,-1.8159,-1.852,-1.8598,-1.8919,-1.9629,-1.9853,-2.0059,-2.0332,-2.0517,-2.0595,-2.0615,-2.0615,-2.0615,-2.0615,-2.0615,-2.0615,-2.0615,-2.0615,-2.0615,-2.0615,-2.0615,-2.1088,-2.2,-2.3379,-2.4779,-2.5838,-2.6267,-2.6352,-2.6273,-2.6223,-2.5996,-2.5485,-2.5322,-2.5159,-2.4682,-2.4556,-2.4293,-2.3966,-2.401,-2.4161,-2.3853,-2.3791,-2.3778,-2.3791,-2.3766,-2.3735,-2.374,-2.3622,-2.3459,-2.3233,-2.2982,-2.2957,-2.302,-2.297,-2.2869,-2.292,-2.3108,-2.302,0.0,0.0,-0.1139,-0.2257,-0.3419,-0.4313,-0.5457,-0.6296,-0.66,-0.6569,-0.646,-0.6586,-0.6559,-0.6402,-0.6453,-0.6422,-0.6317,-0.63,-0.63,-0.63,-0.63,-0.63,-0.63,-0.63,-0.63,-0.63,-0.63,-0.63,-0.63,-0.6335,-0.6868,-0.7855,-0.8884,-0.9852,-1.0858,-1.1811,-1.2305,-1.2305,-1.2305,-1.2305,-1.2305,-1.2305,-1.2321,-1.2455,-1.3222,-1.4083,-1.4996,-1.6062,-1.6706,-1.6784,-1.7545,-1.8008,-1.8008,-1.8008,-1.8008,-1.8008,-1.8008,-1.8213,-1.85,-1.8549,-1.8724,-1.9228,-1.9639,-1.9824,-2.0019,-2.0293,-2.0556,-2.0605,-2.0615,-2.0615,-2.0615,-2.0615,-2.0615,-2.0615,-2.0615,-2.0615,-2.0615,-2.0605,-2.0962,-2.1989,-2.311,-2.3927,-2.4909,-2.5931,-2.6251,-2.5774,-2.5661,-2.5473,-2.4946,-2.4795,-2.4569,-2.4155,-2.3966,-2.3791,-2.3409,-2.312,-2.3158,-2.3158,-2.3233,-2.3271,-2.3333,-2.3333,-2.3371,-2.3358,-2.3371,-2.3195,-2.2749,-2.2535,-2.2569,-2.2606,-2.2493,-2.241,-2.2523,-2.2648,-2.2769,0.0,0.0,-0.0351,-0.1215,-0.2327,-0.3285,-0.4313,-0.5465,-0.6202,-0.6485,-0.6474,-0.6502,-0.6528,-0.6446,-0.6399,-0.634,-0.6303,-0.63,-0.63,-0.63,-0.63,-0.63,-0.63,-0.63,-0.63,-0.63,-0.63,-0.63,-0.63,-0.63,-0.6795,-0.7821,-0.877,-0.9782,-1.0752,-1.1774,-1.2305,-1.2305,-1.2305,-1.2305,-1.2305,-1.2305,-1.2211,-1.208,-1.2476,-1.2824,-1.3041,-1.5295,-1.6523,-1.6567,-1.7501,-1.8008,-1.8008,-1.8008,-1.8008,-1.8008,-1.8008,-1.8037,-1.8174,-1.8198,-1.8398,-1.8724,-1.8939,-1.9336,-1.9824,-2.0019,-2.0244,-2.0527,-2.0605,-2.0615,-2.0615,-2.0615,-2.0615,-2.0615,-2.0615,-2.0615,-2.0605,-2.0644,-2.1375,-2.2702,-2.3294,-2.4042,-2.5158,-2.6092,-2.6038,-2.5272,-2.531,-2.5234,-2.4494,-2.4243,-2.4029,-2.3496,-2.3421,-2.3421,-2.3221,-2.3095,-2.3095,-2.3095,-2.3095,-2.3095,-2.3095,-2.3095,-2.3095,-2.2982,-2.2995,-2.2769,-2.2322,-2.2108,-2.2133,-2.2058,-2.187,-2.1882,-2.197,-2.2108,-2.2272,0.0,0.0,0.0,-0.0645,-0.1774,-0.27,-0.3744,-0.488,-0.5954,-0.6436,-0.6429,-0.6433,-0.6433,-0.6416,-0.634,-0.63,-0.63,-0.63,-0.63,-0.63,-0.63,-0.63,-0.63,-0.63,-0.63,-0.63,-0.63,-0.63,-0.63,-0.6296,-0.6602,-0.7326,-0.8237,-0.9216,-1.0228,-1.1205,-1.1879,-1.2231,-1.2305,-1.2305,-1.2305,-1.2305,-1.2164,-1.1993,-1.2151,-1.2181,-1.2089,-1.4297,-1.5544,-1.5755,-1.6715,-1.7579,-1.794,-1.8008,-1.8008,-1.8008,-1.8008,-1.8008,-1.8008,-1.8037,-1.8105,-1.8334,-1.851,-1.8802,-1.9319,-1.9541,-1.9873,-2.0234,-2.0351,-2.0429,-2.0566,-2.0615,-2.0615,-2.0615,-2.0615,-2.0615,-2.0644,-2.0934,-2.1745,-2.3073,-2.3829,-2.4531,-2.5376,-2.5845,-2.572,-2.4858,-2.477,-2.4732,-2.3954,-2.3678,-2.3384,-2.3208,-2.3195,-2.3183,-2.3133,-2.3095,-2.3095,-2.3095,-2.3095,-2.3095,-2.3095,-2.3083,-2.307,-2.2631,-2.2506,-2.2234,-2.1823,-2.1584,-2.1481,-2.1343,-2.1305,-2.1405,-2.1531,-2.1631,-2.1757,0.0,0.0,0.0,-0.0549,-0.1509,-0.2505,-0.3508,-0.4623,-0.5676,-0.6197,-0.6271,-0.632,-0.6232,-0.6187,-0.6225,-0.6219,-0.6219,-0.63,-0.63,-0.63,-0.63,-0.63,-0.63,-0.63,-0.63,-0.63,-0.63,-0.63,-0.63,-0.63,-0.63,-0.6528,-0.748,-0.8351,-0.9442,-1.034,-1.1385,-1.2187,-1.2305,-1.2305,-1.2305,-1.2305,-1.2164,-1.194,-1.2144,-1.2164,-1.213,-1.3107,-1.3803,-1.4032,-1.5782,-1.7042,-1.7677,-1.7944,-1.8008,-1.8008,-1.8008,-1.8008,-1.8008,-1.8008,-1.7993,-1.8086,-1.8334,-1.8588,-1.8734,-1.9046,-1.9434,-1.9824,-1.9883,-2.0029,-2.0322,-2.0429,-2.0439,-2.0498,-2.0527,-2.0595,-2.0673,-2.1344,-2.2174,-2.322,-2.428,-2.4998,-2.5294,-2.546,-2.5021,-2.4305,-2.4042,-2.3879,-2.3434,-2.3246,-2.3145,-2.3095,-2.3095,-2.3095,-2.3095,-2.3095,-2.3095,-2.3045,-2.3007,-2.292,-2.2957,-2.2945,-2.2732,-2.2334,-2.1958,-2.1644,-2.1345,-2.1069,-2.0928,-2.0916,-2.0941,-2.1031,-2.1043,-2.1029,-2.1079,0.0,0.0,0.0,-0.0165,-0.0568,-0.1555,-0.2558,-0.3593,-0.4688,-0.5628,-0.6103,-0.63,-0.5828,-0.5276,-0.5944,-0.5906,-0.547,-0.5944,-0.63,-0.63,-0.63,-0.63,-0.63,-0.63,-0.63,-0.63,-0.63,-0.63,-0.63,-0.63,-0.63,-0.6338,-0.7253,-0.8275,-0.9296,-1.0228,-1.1279,-1.2157,-1.2305,-1.2305,-1.2305,-1.2305,-1.2158,-1.1966,-1.2151,-1.2151,-1.1966,-1.2362,-1.3287,-1.4453,-1.5783,-1.656,-1.6732,-1.7456,-1.791,-1.8008,-1.8008,-1.8008,-1.8008,-1.8008,-1.8008,-1.8008,-1.8135,-1.8276,-1.8578,-1.8695,-1.9023,-1.9346,-1.9453,-1.9502,-1.9656,-1.9695,-1.9648,-1.9734,-2.0175,-2.0537,-2.0613,-2.108,-2.1807,-2.2764,-2.3387,-2.391,-2.4344,-2.4636,-2.453,-2.376,-2.3622,-2.3747,-2.3271,-2.3095,-2.3095,-2.3095,-2.3095,-2.3095,-2.3095,-2.3095,-2.307,-2.3007,-2.2869,-2.2631,-2.2656,-2.2686,-2.2284,-2.1807,-2.1493,-2.1194,-2.0792,-2.0453,-2.0439,-2.0501,-2.0376,-2.0365,-2.0213,-2.0188,-2.025,0.0,0.0,0.0,0.0,0.0,-0.1143,-0.1918,-0.2696,-0.4062,-0.4999,-0.555,-0.5631,-0.5276,-0.4763,-0.4882,-0.4921,-0.4805,-0.5354,-0.5864,-0.63,-0.63,-0.63,-0.63,-0.63,-0.63,-0.63,-0.63,-0.63,-0.63,-0.63,-0.63,-0.6374,-0.6868,-0.7706,-0.8618,-0.9669,-1.0677,-1.1545,-1.204,-1.2305,-1.2305,-1.2305,-1.2144,-1.2027,-1.2144,-1.2204,-1.2098,-1.2211,-1.2905,-1.3987,-1.4808,-1.5455,-1.6127,-1.6728,-1.7422,-1.7901,-1.8008,-1.8008,-1.8008,-1.8008,-1.8008,-1.8008,-1.8008,-1.8125,-1.8276,-1.8344,-1.8555,-1.8936,-1.9004,-1.9111,-1.9248,-1.9277,-1.9277,-1.9412,-1.9783,-2.0067,-2.0077,-2.0618,-2.1201,-2.1854,-2.2468,-2.2989,-2.3399,-2.3772,-2.3622,-2.3324,-2.3371,-2.3346,-2.317,-2.3133,-2.3095,-2.3095,-2.3095,-2.3095,-2.3095,-2.3095,-2.2794,-2.2732,-2.2485,-2.2284,-2.2108,-2.2121,-2.1807,-2.1358,-2.1043,-2.0729,-2.0338,-2.0062,-2.0075,-2.0049,-1.9836,-1.9798,-1.9798,-1.9798,-1.9798,0.0,0.0,0.0,0.0,0.0,-0.102,-0.1489,-0.1997,-0.3439,-0.4295,-0.4491,-0.453,-0.4336,-0.4334,-0.3671,-0.3591,-0.43,-0.4649,-0.5434,-0.6022,-0.63,-0.63,-0.63,-0.63,-0.63,-0.63,-0.63,-0.63,-0.63,-0.63,-0.63,-0.6335,-0.6374,-0.6907,-0.7897,-0.877,-0.9701,-1.0864,-1.162,-1.2114,-1.2231,-1.2298,-1.2184,-1.2094,-1.2164,-1.2291,-1.2278,-1.2328,-1.2594,-1.3142,-1.3262,-1.4356,-1.5714,-1.599,-1.6809,-1.7741,-1.8008,-1.8008,-1.8008,-1.8008,-1.8008,-1.8008,-1.8008,-1.8008,-1.8057,-1.8086,-1.8223,-1.851,-1.8539,-1.873,-1.8955,-1.9092,-1.9043,-1.9023,-1.9131,-1.915,-1.9367,-2.0058,-2.0727,-2.0776,-2.1499,-2.2114,-2.2497,-2.2639,-2.2749,-2.3192,-2.3233,-2.3195,-2.3145,-2.312,-2.3095,-2.3095,-2.3095,-2.3095,-2.3095,-2.3095,-2.2669,-2.2343,-2.1983,-2.1681,-2.1317,-2.123,-2.1157,-2.0905,-2.0641,-2.0326,-2.0024,-1.9861,-1.9849,-1.9849,-1.9811,-1.9798,-1.9798,-1.9798,-1.9798,0.0,0.0,0.0,0.0,0.0,-0.0275,-0.0823,-0.1606,-0.2074,-0.2854,-0.3318,-0.3435,-0.3008,-0.2349,-0.2735,-0.2852,-0.2738,-0.3947,-0.5276,-0.618,-0.63,-0.63,-0.63,-0.63,-0.63,-0.63,-0.63,-0.63,-0.63,-0.63,-0.63,-0.63,-0.6335,-0.6795,-0.7668,-0.8165,-0.9064,-1.049,-1.1056,-1.1663,-1.2231,-1.2305,-1.2265,-1.2198,-1.2265,-1.2298,-1.2305,-1.2305,-1.2267,-1.2428,-1.3085,-1.3987,-1.5018,-1.5918,-1.6843,-1.7702,-1.8008,-1.8008,-1.8008,-1.8008,-1.7974,-1.7906,-1.7862,-1.8008,-1.8008,-1.794,-1.8013,-1.8144,-1.812,-1.8252,-1.8359,-1.8311,-1.8369,-1.8398,-1.8379,-1.835,-1.8478,-1.9355,-1.9945,-2.0168,-2.0586,-2.1238,-2.1954,-2.2115,-2.2394,-2.2914,-2.3095,-2.3095,-2.3095,-2.3108,-2.3095,-2.3095,-2.3095,-2.3083,-2.302,-2.2844,-2.2297,-2.182,-2.1418,-2.1119,-2.0727,-2.0614,-2.0641,-2.049,-2.0238,-1.9974,-1.9811,-1.9798,-1.9823,-1.9811,-1.9798,-1.9798,-1.9798,-1.9798,-1.9798,0.0,0.0,0.0,0.0,0.0,0.0,-0.0314,-0.0902,-0.1412,-0.188,-0.2308,-0.2384,-0.2074,-0.1606,-0.1644,-0.1528,-0.2115,-0.3711,-0.5002,-0.5589,-0.5983,-0.63,-0.63,-0.63,-0.63,-0.63,-0.63,-0.63,-0.63,-0.63,-0.63,-0.63,-0.63,-0.6528,-0.7288,-0.7936,-0.9031,-1.0083,-1.1093,-1.1811,-1.2231,-1.2305,-1.2305,-1.2305,-1.2305,-1.2305,-1.2305,-1.2305,-1.2225,-1.229,-1.2708,-1.3596,-1.4537,-1.5386,-1.6403,-1.7721,-1.8008,-1.8008,-1.8008,-1.7974,-1.7828,-1.7364,-1.7364,-1.732,-1.7354,-1.7354,-1.7613,-1.7862,-1.8018,-1.8018,-1.8008,-1.8018,-1.8008,-1.8008,-1.8008,-1.8008,-1.8115,-1.8604,-1.8998,-1.9138,-1.9577,-2.0357,-2.0953,-2.1408,-2.2199,-2.2781,-2.2975,-2.3005,-2.3108,-2.3108,-2.3108,-2.3095,-2.3095,-2.3058,-2.2957,-2.2585,-2.1832,-2.128,-2.074,-2.0451,-2.015,-2.0162,-2.0264,-2.01,-1.9987,-1.9924,-1.9798,-1.9798,-1.9798,-1.9798,-1.9798,-1.9798,-1.9798,-1.9798,-1.9798,0.0166,0.0,0.0,0.0,0.0,0.0,0.0,-0.0157,-0.0941,-0.1255,-0.1372,-0.1372,-0.1293,-0.1137,-0.051,-0.0667,-0.184,-0.3322,-0.4453,-0.4924,-0.5906,-0.6219,-0.63,-0.63,-0.63,-0.63,-0.63,-0.63,-0.63,-0.63,-0.63,-0.63,-0.63,-0.6374,-0.6756,-0.7783,-0.8727,-0.9183,-1.0571,-1.1626,-1.2003,-1.2114,-1.2305,-1.2305,-1.2305,-1.2305,-1.2305,-1.2305,-1.2298,-1.2305,-1.2305,-1.3122,-1.4104,-1.4675,-1.5497,-1.7526,-1.7501,-1.7398,-1.7501,-1.7476,-1.7079,-1.6428,-1.6393,-1.6393,-1.6393,-1.6454,-1.6853,-1.7467,-1.7794,-1.8008,-1.8008,-1.8008,-1.8008,-1.8008,-1.8008,-1.8008,-1.8008,-1.8008,-1.8149,-1.8207,-1.8738,-1.9452,-2.0204,-2.0782,-2.1741,-2.2525,-2.2689,-2.2811,-2.2884,-2.2854,-2.2689,-2.2854,-2.2823,-2.2767,-2.266,-2.2058,-2.1343,-2.0941,-2.03,-2.0049,-1.9823,-1.9911,-2.0012,-1.9924,-1.9823,-1.9798,-1.9798,-1.9798,-1.9798,-1.9798,-1.9798,-1.9798,-1.9798,-1.9798,-1.9798,0.0943,0.0,0.0,0.0,0.0,0.0,0.0,0.0,0.0,0.0,0.0,0.0,0.0,0.0,0.0,0.0,-0.1605,-0.2813,-0.3826,-0.4608,-0.5631,-0.618,-0.63,-0.63,-0.63,-0.63,-0.63,-0.63,-0.63,-0.63,-0.63,-0.63,-0.63,-0.63,-0.6338,-0.6756,-0.7591,-0.8313,-0.948,-1.0421,-1.1056,-1.1774,-1.2231,-1.2268,-1.2305,-1.2305,-1.2305,-1.2305,-1.2305,-1.2305,-1.2305,-1.2887,-1.3569,-1.3833,-1.4869,-1.6192,-1.6298,-1.6263,-1.6645,-1.6158,-1.5728,-1.5446,-1.5403,-1.5403,-1.5446,-1.5508,-1.5974,-1.6853,-1.7579,-1.8008,-1.8008,-1.8008,-1.8008,-1.8008,-1.8008,-1.8008,-1.8008,-1.8008,-1.8008,-1.8042,-1.8303,-1.8664,-1.9529,-2.0236,-2.091,-2.1447,-2.1573,-2.1865,-2.2063,-2.1928,-2.1772,-2.2051,-2.2445,-2.2399,-2.2326,-2.154,-2.0842,-2.0639,-2.0213,-1.9974,-1.9811,-1.9798,-1.9798,-1.9798,-1.9798,-1.9798,-1.9798,-1.9798,-1.9798,-1.9798,-1.9798,-1.9798,-1.9798,-1.9798,-1.9798,0.107,0.0,0.0,0.0,0.0,0.0,0.0,0.0,0.0,0.0,0.0,0.0,0.0,0.0,0.0,0.0,-0.0941,-0.184,-0.2891,-0.3906,-0.4921,-0.5828,-0.6141,-0.6219,-0.63,-0.63,-0.63,-0.6257,-0.63,-0.63,-0.63,-0.63,-0.63,-0.63,-0.6451,-0.6907,-0.7253,-0.7974,-0.8765,-0.9523,-1.0078,-1.1019,-1.1657,-1.2187,-1.2268,-1.2305,-1.2305,-1.2305,-1.2305,-1.2305,-1.2305,-1.2556,-1.2842,-1.32,-1.3839,-1.5332,-1.5376,-1.5305,-1.5755,-1.5376,-1.5057,-1.4486,-1.4422,-1.4422,-1.4422,-1.4557,-1.5155,-1.6393,-1.7432,-1.8008,-1.8008,-1.8008,-1.8008,-1.8008,-1.8008,-1.8008,-1.8008,-1.8008,-1.8008,-1.8076,-1.8529,-1.8921,-1.9243,-1.9824,-2.0182,-2.0398,-2.0526,-2.0814,-2.1164,-2.0974,-2.0771,-2.1502,-2.1898,-2.1839,-2.174,-2.1127,-2.0503,-2.0275,-2.0137,-1.9899,-1.9798,-1.9798,-1.9798,-1.9798,-1.9798,-1.9798,-1.9798,-1.9798,-1.9798,-1.9798,-1.9798,-1.9798,-1.9798,-1.9798,-1.9798,0.1459,0.0327,0.008,0.0,0.0,0.0,0.0,0.0,0.0,0.0,0.0,0.0,0.0,0.0,0.0,0.0,0.0,-0.1137,-0.2113,-0.2852,-0.3865,-0.4885,-0.5395,-0.567,-0.547,-0.5276,-0.5786,-0.6099,-0.6257,-0.63,-0.63,-0.63,-0.63,-0.63,-0.6451,-0.6868,-0.7442,-0.7821,-0.8466,-0.9036,-0.9485,-1.0083,-1.0975,-1.1885,-1.1996,-1.204,-1.2268,-1.2305,-1.2305,-1.2305,-1.2305,-1.2305,-1.2305,-1.2305,-1.3018,-1.4299,-1.4585,-1.4665,-1.4807,-1.4557,-1.4027,-1.3484,-1.3411,-1.3419,-1.3673,-1.4063,-1.4835,-1.6324,-1.7423,-1.8008,-1.8008,-1.8008,-1.8008,-1.8008,-1.8008,-1.8008,-1.8008,-1.8008,-1.8008,-1.8269,-1.8754,-1.8921,-1.8977,-1.8977,-1.9276,-1.9309,-1.9431,-1.9846,-2.0107,-1.9879,-1.9944,-2.0881,-2.1326,-2.1256,-2.1066,-2.0738,-2.0277,-2.0012,-1.9962,-1.9836,-1.9798,-1.9798,-1.9798,-1.9798,-1.9798,-1.9798,-1.9798,-1.9798,-1.9798,-1.9798,-1.9798,-1.9798,-1.9798,-1.9798,-1.9798,0.2684,0.1504,0.0418,0.0,0.0,0.0,0.0,0.0,0.0,0.0,0.0,0.0,0.0,0.0,0.0,0.0,0.0,-0.0941,-0.1607,-0.2074,-0.2854,-0.3437,-0.3593,-0.3476,-0.3826,-0.4023,-0.4608,-0.5431,-0.5983,-0.618,-0.63,-0.63,-0.63,-0.63,-0.6335,-0.6567,-0.649,-0.6679,-0.748,-0.8389,-0.9074,-0.941,-1.0008,-1.0677,-1.1087,-1.1428,-1.2077,-1.2194,-1.2305,-1.2305,-1.2305,-1.2305,-1.2305,-1.2305,-1.2342,-1.2592,-1.2732,-1.2989,-1.36,-1.3346,-1.2989,-1.2696,-1.2592,-1.2482,-1.2915,-1.4127,-1.5332,-1.6419,-1.7423,-1.793,-1.8008,-1.8008,-1.8008,-1.8008,-1.8008,-1.8008,-1.8008,-1.8008,-1.8008,-1.8042,-1.8395,-1.8337,-1.8303,-1.8269,-1.8269,-1.8303,-1.8428,-1.8877,-1.9158,-1.906,-1.8929,-1.9774,-2.0369,-2.0322,-2.0305,-2.0011,-2.0021,-1.9772,-1.9811,-1.9798,-1.9798,-1.9798,-1.9798,-1.9798,-1.9798,-1.9798,-1.9798,-1.9798,-1.9798,-1.9798,-1.9798,-1.9798,-1.9798,-1.9798,-1.9798,0.3526,0.1708,0.0507,0.0,0.0,0.0,0.0,0.0,0.0,0.0,0.0,0.0,0.0,0.0,0.0,0.0,0.0,0.0,-0.1059,-0.149,-0.2035,-0.254,-0.3085,-0.3124,-0.3124,-0.3085,-0.3593,-0.4375,-0.5198,-0.5983,-0.63,-0.63,-0.63,-0.63,-0.63,-0.63,-0.63,-0.6451,-0.6834,-0.7442,-0.8161,-0.8504,-0.8917,-0.989,-1.0447,-1.0975,-1.1465,-1.2077,-1.2268,-1.2305,-1.2305,-1.2305,-1.2305,-1.2305,-1.2305,-1.2305,-1.2342,-1.2519,-1.2776,-1.2482,-1.2342,-1.2305,-1.2305,-1.2342,-1.2696,-1.4019,-1.5305,-1.5763,-1.7182,-1.7862,-1.8008,-1.8008,-1.8008,-1.8008,-1.8008,-1.8008,-1.8008,-1.8008,-1.8008,-1.8008,-1.8008,-1.8008,-1.8008,-1.8042,-1.811,-1.8134,-1.8158,-1.8341,-1.8601,-1.8668,-1.8509,-1.853,-1.8981,-1.9277,-1.9316,-1.9243,-1.9648,-1.9592,-1.9811,-1.9798,-1.9798,-1.9798,-1.9798,-1.9798,-1.9798,-1.9798,-1.9786,-1.9798,-1.9798,-1.9798,-1.9798,-1.9798,-1.9798,-1.9798,-1.9798,0.4335,0.2615,0.1418,0.0597,0.0042,0.0297,0.0,0.0,0.0,0.0,0.0,0.0,0.0,0.0,0.0,0.0,0.0,0.0,0.0,-0.0983,-0.1293,-0.1605,-0.1917,-0.2189,-0.2189,-0.2384,-0.254,-0.3088,-0.3986,-0.5079,-0.5906,-0.6261,-0.63,-0.63,-0.63,-0.63,-0.63,-0.6296,-0.6335,-0.6795,-0.7288,-0.7399,-0.8008,-0.8799,-0.9626,-1.026,-1.0864,-1.1428,-1.1848,-1.2305,-1.2305,-1.2305,-1.2305,-1.2305,-1.2305,-1.2305,-1.2305,-1.2305,-1.2415,-1.2342,-1.2305,-1.2305,-1.2342,-1.2452,-1.2915,-1.4271,-1.5446,-1.5728,-1.7044,-1.7828,-1.8008,-1.8008,-1.8008,-1.8008,-1.8008,-1.8008,-1.8008,-1.8008,-1.8008,-1.8008,-1.8008,-1.8008,-1.8008,-1.8008,-1.8008,-1.8008,-1.7988,-1.7925,-1.7982,-1.8086,-1.7956,-1.7769,-1.7967,-1.8408,-1.8807,-1.8883,-1.9188,-1.9449,-1.9643,-1.9798,-1.9798,-1.9798,-1.9798,-1.9798,-1.9761,-1.9635,-1.9522,-1.966,-1.9798,-1.9798,-1.9798,-1.9798,-1.9798,-1.9798,-1.9798,0.5309,0.5033,0.3866,0.2111,0.0217,0.1213,0.1016,0.0,0.0,0.0,0.0,0.0,0.0,0.0,0.0,0.0,0.0,0.0,0.0,0.0,0.0,0.0,0.0,0.0,0.0,-0.0628,-0.1254,-0.1761,-0.2309,-0.383,-0.5082,-0.6145,-0.6222,-0.6261,-0.63,-0.63,-0.63,-0.63,-0.63,-0.6296,-0.6528,-0.6602,-0.6988,-0.7668,-0.8122,-0.8836,-1.064,-1.0975,-1.1502,-1.2231,-1.2305,-1.2305,-1.2305,-1.2305,-1.2305,-1.2305,-1.2305,-1.2305,-1.2305,-1.2305,-1.2305,-1.2305,-1.2342,-1.2592,-1.3098,-1.4343,-1.5438,-1.6105,-1.7079,-1.7803,-1.794,-1.8008,-1.8008,-1.8008,-1.8008,-1.8008,-1.8008,-1.8008,-1.8008,-1.8008,-1.8008,-1.8008,-1.8008,-1.8008,-1.8008,-1.8008,-1.7803,-1.7754,-1.7353,-1.732,-1.7234,-1.7123,-1.7168,-1.7647,-1.8464,-1.8635,-1.8581,-1.9018,-1.9423,-1.9643,-1.9773,-1.9798,-1.9798,-1.9648,-1.9572,-1.9409,-1.9246,-1.9258,-1.9359,-1.9673,-1.9773,-1.9673,-1.9736,-1.9798,-1.9798,0.6024,0.5403,0.5622,0.4398,0.2208,0.19,0.1533,0.0994,0.0,0.0,0.0,0.0,0.0,0.0,0.0,0.0,0.0,0.0,0.0,0.0,0.0,0.0,0.0,0.0,0.0,0.0,0.0,-0.1098,-0.1802,-0.266,-0.383,-0.4885,-0.5789,-0.6222,-0.63,-0.63,-0.63,-0.63,-0.63,-0.63,-0.63,-0.63,-0.649,-0.6795,-0.7629,-0.8423,-0.9744,-1.049,-1.1316,-1.2003,-1.2231,-1.2305,-1.2305,-1.2305,-1.2305,-1.2305,-1.2305,-1.2305,-1.2305,-1.2305,-1.2305,-1.2305,-1.2342,-1.2489,-1.2989,-1.3774,-1.47,-1.5623,-1.6645,-1.7364,-1.7974,-1.8008,-1.8008,-1.8008,-1.8008,-1.8008,-1.8008,-1.8008,-1.793,-1.79,-1.7959,-1.8008,-1.8008,-1.8008,-1.8008,-1.7988,-1.7754,-1.7471,-1.7041,-1.665,-1.6576,-1.6477,-1.6475,-1.6694,-1.7484,-1.7704,-1.7841,-1.8489,-1.9123,-1.9307,-1.9475,-1.9773,-1.9735,-1.9559,-1.9296,-1.9045,-1.8869,-1.8769,-1.8844,-1.902,-1.9258,-1.9434,-1.956,-1.9773,-1.9798,0.665,0.6027,0.6782,0.5753,0.3614,0.2681,0.2139,0.1595,0.0484,0.0,0.0,0.0,0.0,0.0,0.0,0.0,0.0,0.0,0.0,0.0,0.0,0.0,0.0,0.0,0.0,0.0,0.0,-0.0515,-0.1019,-0.141,-0.2426,-0.3752,-0.5118,-0.5747,-0.63,-0.63,-0.63,-0.63,-0.63,-0.63,-0.63,-0.63,-0.63,-0.6412,-0.6984,-0.7744,-0.8803,-0.9707,-1.0714,-1.1545,-1.204,-1.2268,-1.2305,-1.2305,-1.2305,-1.2305,-1.2305,-1.2305,-1.2305,-1.2305,-1.2305,-1.2305,-1.2305,-1.2305,-1.2526,-1.3171,-1.4279,-1.5199,-1.6114,-1.6957,-1.7828,-1.8008,-1.8008,-1.8008,-1.8008,-1.8008,-1.8008,-1.7998,-1.7871,-1.7773,-1.7803,-1.7725,-1.751,-1.7461,-1.7578,-1.7461,-1.709,-1.6846,-1.6592,-1.623,-1.5978,-1.5851,-1.5782,-1.6061,-1.6425,-1.6838,-1.7274,-1.7895,-1.8463,-1.8821,-1.9044,-1.9371,-1.952,-1.9309,-1.8995,-1.8668,-1.838,-1.8141,-1.8166,-1.8279,-1.8681,-1.9158,-1.9597,-1.9798,-1.9798,0.7051,0.7051,0.7095,0.5797,0.3927,0.3614,0.2962,0.1884,0.0,0.0,0.0,0.0,0.0,0.0,0.0,0.0,0.0,0.0,0.0,0.0,0.0,0.0,0.0,0.0,0.0,0.0,0.0,0.0,-0.0198,-0.0913,-0.1582,-0.2472,-0.4038,-0.5431,-0.618,-0.63,-0.63,-0.63,-0.63,-0.63,-0.63,-0.63,-0.63,-0.6335,-0.649,-0.7099,-0.8084,-0.8841,-0.989,-1.0975,-1.1731,-1.2077,-1.2268,-1.2305,-1.2305,-1.2305,-1.2305,-1.2305,-1.2305,-1.2305,-1.2305,-1.2305,-1.2305,-1.2305,-1.2489,-1.3098,-1.4063,-1.5021,-1.593,-1.6888,-1.7569,-1.8008,-1.8008,-1.8008,-1.8008,-1.8008,-1.8008,-1.7861,-1.7705,-1.7568,-1.7422,-1.7266,-1.6973,-1.6794,-1.7012,-1.6885,-1.6486,-1.6232,-1.6074,-1.5898,-1.5635,-1.5576,-1.5498,-1.5692,-1.6036,-1.6293,-1.6698,-1.733,-1.7759,-1.807,-1.8474,-1.8821,-1.892,-1.8908,-1.8757,-1.8444,-1.7928,-1.7448,-1.7601,-1.7852,-1.8481,-1.9008,-1.9484,-1.9798,-1.9798,0.7095,0.7095,0.7095,0.6647,0.5844,0.5087,0.4088,0.2745,0.0,0.0,0.0,0.0,0.0,0.0,0.0,0.0,0.0,0.0,0.0,0.0,0.0,0.0,0.0,0.0,0.0,0.0,0.0,0.0,-0.0041,0.0,0.0,-0.1891,-0.3433,-0.516,-0.6022,-0.63,-0.63,-0.63,-0.63,-0.63,-0.63,-0.63,-0.63,-0.63,-0.63,-0.6756,-0.7629,-0.8199,-0.9097,-1.0335,-1.113,-1.1545,-1.2033,-1.2187,-1.2261,-1.2268,-1.2305,-1.2305,-1.2305,-1.2305,-1.2305,-1.2305,-1.2305,-1.2305,-1.2378,-1.2519,-1.3593,-1.4772,-1.5473,-1.6472,-1.7579,-1.794,-1.8008,-1.8008,-1.8008,-1.8008,-1.7949,-1.7686,-1.7471,-1.7344,-1.7207,-1.6963,-1.6648,-1.6141,-1.6186,-1.6287,-1.593,-1.5819,-1.5732,-1.5654,-1.5478,-1.5478,-1.5469,-1.5546,-1.5729,-1.5921,-1.6179,-1.6669,-1.6996,-1.7219,-1.7688,-1.8178,-1.8298,-1.8277,-1.8277,-1.823,-1.7593,-1.7129,-1.7207,-1.7526,-1.8144,-1.872,-1.9183,-1.9572,-1.9798,0.7095,0.7095,0.7095,0.7095,0.6918,0.5891,0.4508,0.2815,0.0,0.0,0.0,0.0,0.0,0.0,0.0,0.0,0.0,0.0,0.0,0.0,0.0,0.0,0.0,0.0,0.0,0.0,0.0,0.0,0.0,0.0,0.0,-0.1744,-0.2994,-0.4182,-0.526,-0.5944,-0.63,-0.63,-0.63,-0.63,-0.63,-0.63,-0.63,-0.63,-0.6374,-0.6602,-0.7176,-0.7783,-0.8385,-0.9508,-1.0222,-1.0752,-1.1428,-1.1768,-1.1959,-1.215,-1.2305,-1.2305,-1.2305,-1.2305,-1.2305,-1.2305,-1.2305,-1.2305,-1.2305,-1.2378,-1.32,-1.4163,-1.4871,-1.6009,-1.7182,-1.7535,-1.8008,-1.8008,-1.7861,-1.7852,-1.7705,-1.7432,-1.7041,-1.6934,-1.6704,-1.649,-1.6183,-1.5699,-1.5296,-1.5368,-1.5381,-1.5349,-1.5352,-1.541,-1.542,-1.542,-1.542,-1.5468,-1.5497,-1.5526,-1.5787,-1.6065,-1.6283,-1.651,-1.6894,-1.7401,-1.7496,-1.7644,-1.7672,-1.7541,-1.7111,-1.6845,-1.7076,-1.7347,-1.7763,-1.8322,-1.887,-1.9233,-1.951,0.7095,0.7095,0.7095,0.7095,0.6918,0.5891,0.4109,0.188,0.0539,0.0,0.0,0.0,0.0,0.0,0.0,0.0,0.0,0.0,0.0,0.0,0.0,0.0,0.0,0.0,0.0,0.0,0.0,0.0,0.0,0.0,0.0,-0.1269,-0.1864,-0.299,-0.421,-0.5356,-0.5944,-0.6219,-0.63,-0.63,-0.63,-0.63,-0.63,-0.63,-0.6335,-0.6374,-0.6756,-0.7215,-0.7668,-0.8309,-0.8803,-0.9744,-1.0378,-1.0746,-1.1391,-1.1922,-1.215,-1.2305,-1.2305,-1.2305,-1.2305,-1.2305,-1.2305,-1.2305,-1.2305,-1.2342,-1.2989,-1.3839,-1.4657,-1.5614,-1.6532,-1.7285,-1.8008,-1.7842,-1.7627,-1.7519,-1.7383,-1.7051,-1.6602,-1.6326,-1.6019,-1.5725,-1.5333,-1.4898,-1.4375,-1.4366,-1.4475,-1.4768,-1.4863,-1.5371,-1.5381,-1.542,-1.542,-1.542,-1.542,-1.542,-1.5468,-1.5787,-1.569,-1.5892,-1.6255,-1.6715,-1.7088,-1.7245,-1.71,-1.7037,-1.717,-1.7158,-1.7075,-1.7374,-1.7804,-1.8085,-1.8682,-1.8782,-1.907,0.7095,0.7095,0.7095,0.7095,0.6918,0.5894,0.4463,0.2948,0.0,0.0,0.0,0.0,0.0,0.0,0.0,0.0,0.0,0.0,0.0,0.0,0.0,0.0,0.0,0.0,0.0,0.0,0.0,0.0,0.0,0.0,0.0,-0.046,-0.1149,-0.2008,-0.2999,-0.4258,-0.5279,-0.6064,-0.618,-0.63,-0.63,-0.63,-0.63,-0.63,-0.63,-0.63,-0.6451,-0.6606,-0.7061,-0.7783,-0.8046,-0.8727,-0.9599,-0.9782,-1.0153,-1.1162,-1.1774,-1.2305,-1.2305,-1.2305,-1.2305,-1.2305,-1.2305,-1.2305,-1.2305,-1.2415,-1.2739,-1.3484,-1.4414,-1.5296,-1.6254,-1.707,-1.7725,-1.7847,-1.7607,-1.7305,-1.7109,-1.6682,-1.6221,-1.5934,-1.565,-1.5038,-1.4617,-1.3885,-1.3424,-1.339,-1.3515,-1.3876,-1.4362,-1.4883,-1.5362,-1.5391,-1.542,-1.542,-1.542,-1.542,-1.542,-1.5439,-1.5439,-1.5439,-1.5748,-1.6195,-1.6697,-1.6945,-1.6954,-1.734,-1.7811,-1.7666,-1.7371,-1.7689,-1.8084,-1.8244,-1.8417,-1.8618,-1.892,0.7095,0.7095,0.7095,0.7095,0.6918,0.5894,0.4954,0.4018,0.2236,0.121,0.0807,0.0,0.1165,0.0,0.0,0.0,0.0,0.0,0.0,0.0,0.0,0.0,0.0,0.0,0.0,0.0,0.0,0.0,0.0,0.0,0.0,-0.0126,0.0,0.0,-0.1898,-0.2932,-0.4183,-0.5279,-0.5983,-0.6219,-0.63,-0.63,-0.63,-0.63,-0.63,-0.63,-0.63,-0.63,-0.6679,-0.7138,-0.7211,-0.7706,-0.8656,-0.9069,-0.9782,-1.0714,-1.1236,-1.1885,-1.215,-1.2305,-1.2305,-1.2305,-1.2305,-1.2305,-1.2305,-1.2342,-1.2629,-1.3091,-1.4019,-1.4942,-1.5939,-1.6828,-1.7398,-1.793,-1.7545,-1.7148,-1.6709,-1.625,-1.5956,-1.5671,-1.518,-1.4533,-1.3846,-1.3053,-1.2504,-1.2543,-1.2665,-1.2992,-1.3614,-1.4309,-1.4951,-1.5332,-1.5391,-1.542,-1.542,-1.542,-1.542,-1.542,-1.542,-1.5439,-1.5497,-1.568,-1.6118,-1.6542,-1.6879,-1.716,-1.7268,-1.7721,-1.7741,-1.8005,-1.8264,-1.8558,-1.867,-1.8719,-1.9108,0.7095,0.7095,0.7095,0.7095,0.6962,0.6027,0.5492,0.5314,0.4239,0.3126,0.2325,0.3035,0.2769,0.2006,0.1671,0.108,0.0,0.0,0.0,0.0,0.0,0.0,0.0,0.0,0.0,0.0,0.0,0.0,0.0,0.0,0.0,0.0,0.0,0.0,-0.1223,-0.1803,-0.2895,-0.4027,-0.5237,-0.5983,-0.6219,-0.63,-0.63,-0.63,-0.63,-0.63,-0.63,-0.63,-0.63,-0.63,-0.6451,-0.6907,-0.7629,-0.858,-0.9518,-1.0115,-1.0453,-1.1162,-1.1657,-1.1885,-1.215,-1.2187,-1.2305,-1.2305,-1.2305,-1.2305,-1.2519,-1.2732,-1.3557,-1.4235,-1.5092,-1.6236,-1.7042,-1.7268,-1.7042,-1.6776,-1.6494,-1.6055,-1.5673,-1.5291,-1.4561,-1.3974,-1.3515,-1.2718,-1.1717,-1.1717,-1.181,-1.2081,-1.281,-1.3631,-1.4508,-1.5177,-1.5362,-1.541,-1.542,-1.542,-1.542,-1.542,-1.542,-1.542,-1.5439,-1.5497,-1.5526,-1.6193,-1.6821,-1.6398,-1.643,-1.7125,-1.7751,-1.7885,-1.8229,-1.8821,-1.8971,-1.8995,-1.9221,0.7095,0.7095,0.7095,0.7095,0.7095,0.6827,0.616,0.5492,0.6068,0.5041,0.3525,0.3481,0.3525,0.3163,0.2261,0.1616,0.1244,0.0,0.0,0.0,0.0,0.0,0.0,0.0,0.0,0.0,0.0,0.0,0.0,0.0,0.0,0.0,0.0,0.0,-0.0551,-0.1058,-0.1958,-0.2817,-0.4025,-0.5315,-0.5906,-0.618,-0.63,-0.63,-0.63,-0.63,-0.63,-0.63,-0.63,-0.63,-0.63,-0.6451,-0.6683,-0.7633,-0.8199,-0.8609,-0.9329,-1.0153,-1.0864,-1.1279,-1.1583,-1.207,-1.2261,-1.2268,-1.2305,-1.2305,-1.2415,-1.2629,-1.2952,-1.3564,-1.4343,-1.5553,-1.6535,-1.6559,-1.6481,-1.6313,-1.6166,-1.5779,-1.5362,-1.4697,-1.3944,-1.3485,-1.3061,-1.2266,-1.1264,-1.0895,-1.087,-1.1195,-1.2089,-1.2945,-1.4115,-1.4825,-1.5294,-1.5381,-1.541,-1.542,-1.542,-1.542,-1.542,-1.542,-1.542,-1.5584,-1.5748,-1.634,-1.6726,-1.6312,-1.6348,-1.7147,-1.7655,-1.766,-1.8222,-1.8797,-1.9269,-1.9383,-1.9546,0.7058,0.7004,0.7004,0.7041,0.7088,0.7095,0.6738,0.6381,0.6827,0.6381,0.5262,0.5129,0.4861,0.4315,0.3145,0.2156,0.1725,0.0546,0.0,0.0,0.0,0.0,0.0,0.0,0.0,0.0,0.0,0.0,0.0,0.0,0.0,0.0,0.0,0.0,0.0,0.0,-0.1176,-0.1684,-0.2932,-0.3908,-0.5082,-0.5628,-0.618,-0.63,-0.63,-0.63,-0.63,-0.63,-0.63,-0.63,-0.63,-0.63,-0.6451,-0.6868,-0.7365,-0.7859,-0.8461,-0.9069,-0.9895,-1.0527,-1.0938,-1.1428,-1.2187,-1.2231,-1.2305,-1.2305,-1.2305,-1.2482,-1.2519,-1.3055,-1.3709,-1.4756,-1.5575,-1.59,-1.539,-1.5008,-1.4879,-1.4673,-1.4282,-1.3855,-1.3312,-1.3,-1.2451,-1.1655,-1.0832,-1.0713,-1.0624,-1.0895,-1.1664,-1.2365,-1.3524,-1.4512,-1.5011,-1.5323,-1.541,-1.542,-1.542,-1.542,-1.5468,-1.542,-1.5439,-1.569,-1.6026,-1.6197,-1.6312,-1.6226,-1.6461,-1.6912,-1.7135,-1.7092,-1.7897,-1.8799,-1.9228,-1.9592,-1.9695,0.7028,0.692,0.6896,0.6967,0.7085,0.7095,0.7095,0.7051,0.7095,0.7095,0.6915,0.6915,0.6428,0.5499,0.4128,0.305,0.189,0.0629,0.0,0.0,0.0,0.0,0.0,0.0,0.0,0.0,0.0,0.0,0.0,0.0,0.0,0.0,0.0,0.0,0.0,0.0,-0.0471,-0.1097,-0.1879,-0.2231,-0.3478,-0.4921,-0.5628,-0.6022,-0.6219,-0.6257,-0.63,-0.63,-0.63,-0.63,-0.63,-0.63,-0.63,-0.6451,-0.6795,-0.7288,-0.7476,-0.8161,-0.8955,-0.9701,-1.0153,-1.0752,-1.162,-1.2077,-1.2114,-1.2268,-1.2268,-1.2285,-1.2352,-1.2524,-1.3165,-1.3759,-1.4567,-1.4908,-1.4246,-1.3848,-1.376,-1.3683,-1.3411,-1.307,-1.2795,-1.2489,-1.1903,-1.1076,-1.0706,-1.0618,-1.0737,-1.1069,-1.1516,-1.2166,-1.3033,-1.4049,-1.4805,-1.5079,-1.5352,-1.5468,-1.5468,-1.5642,-1.5661,-1.5526,-1.5439,-1.5613,-1.5661,-1.5555,-1.5642,-1.5806,-1.5864,-1.614,-1.6283,-1.6585,-1.7191,-1.8031,-1.8874,-1.9228,-1.9553,0.7082,0.7048,0.6937,0.6967,0.7085,0.7095,0.7095,0.7095,0.7095,0.7095,0.7095,0.7095,0.6871,0.6647,0.4448,0.3263,0.2729,0.0,0.0,0.0,0.0,0.0,0.0,0.0,0.0,0.0,0.0,0.0,0.0,0.0,0.0,0.0,0.0,0.0,0.0,0.0,0.0,0.0,-0.1137,-0.1645,-0.2231,-0.3556,-0.4724,-0.5315,-0.5864,-0.6103,-0.63,-0.63,-0.63,-0.63,-0.63,-0.63,-0.63,-0.63,-0.6528,-0.6679,-0.6791,-0.7249,-0.8008,-0.8575,-0.9026,-0.989,-1.0683,-1.1354,-1.1583,-1.2114,-1.2124,-1.2211,-1.2201,-1.206,-1.2536,-1.2958,-1.3548,-1.3335,-1.2884,-1.2956,-1.2991,-1.3039,-1.2948,-1.2634,-1.2328,-1.2081,-1.1748,-1.1076,-1.0555,-1.0466,-1.0428,-1.0762,-1.1007,-1.178,-1.2661,-1.3562,-1.4531,-1.505,-1.542,-1.5555,-1.5642,-1.5806,-1.5892,-1.5777,-1.5613,-1.542,-1.542,-1.542,-1.542,-1.5526,-1.5584,-1.5671,-1.5921,-1.6255,-1.6454,-1.7079,-1.8058,-1.8741,-1.8965]}]]